Date StartTime U_cm/s V_cm/s W_cm/s Ustd_cm/s Vstd_cm/s Wstd_cm/s Uvar_(cm/s)^2 Vvar_(cm/s)^2 Wvar_(cm/s)^2 KE_(m/s)^2 TurbulentKE_(m/s)^2 HorizWindSpeed_cm/s FrictionSpeec_cm/s DragCoef SpeedOfSound_m/s SonicTemperature_C Pressure_mb 
11/13/2014  00:00:00      -38.235      -30.963       -4.424       16.557       11.732       12.166      274.140      137.629      148.019        0.150        0.028       49.200        8.918        0.033      334.084        3.821      859.219
11/13/2014  00:01:00       -5.648      -14.266       -8.061       17.256       15.342        7.532      297.779      235.384       56.734        0.045        0.029       15.343        5.271        0.118      334.177        3.979      859.150
11/13/2014  00:02:00       -6.315       23.986       31.056       11.857       18.502       22.081      140.583      342.340      487.573        0.127        0.049       24.804       16.186        0.426      334.202        4.019      859.060
11/13/2014  00:03:00        3.586       31.591       48.681       21.082       19.899       11.186      444.471      395.989      125.132        0.217        0.048       31.794        9.551        0.090      334.240        4.084      859.020
11/13/2014  00:04:00      -10.568       14.185       28.366        8.933       20.225       12.074       79.791      409.033      145.783        0.088        0.032       17.689       12.437        0.494      334.244        4.089      859.032
11/13/2014  00:05:00      -14.639      -11.520        5.470       10.767       12.450        8.904      115.932      155.009       79.286        0.036        0.018       18.629        4.660        0.063      334.327        4.227      859.063
11/13/2014  00:06:00      -27.056       -5.718       -4.169       16.036       12.552        8.942      257.151      157.541       79.961        0.064        0.025       27.654        6.218        0.051      334.193        4.005      859.073
11/13/2014  00:07:00      -10.057        3.804       -2.398        5.921        5.483        6.155       35.059       30.064       37.878        0.011        0.005       10.752        4.208        0.153      334.105        3.856      859.057
11/13/2014  00:08:00      -11.915       -0.164       -6.676        6.007        3.586        3.785       36.089       12.862       14.326        0.012        0.003       11.917        1.865        0.024      334.120        3.884      859.061
11/13/2014  00:09:00      -24.715      -19.838       -3.557       22.874       11.900        8.248      523.221      141.616       68.030        0.087        0.037       31.692        7.825        0.061      334.160        3.949      859.082
11/13/2014  00:10:00      -44.954      -28.792       -0.669       22.446       12.645       11.351      503.805      159.886      128.841        0.182        0.040       53.383       11.229        0.044      334.083        3.821      859.100
11/13/2014  00:11:00      -45.531      -33.187        1.715       26.309       16.930       13.643      692.184      286.641      186.137        0.217        0.058       56.342       13.467        0.057      334.077        3.811      859.086
11/13/2014  00:12:00      -44.133      -27.430       -0.627       31.701       16.272       12.195     1004.936      264.790      148.726        0.206        0.071       51.963        8.353        0.026      334.076        3.809      859.046
11/13/2014  00:13:00      -32.677      -43.205       -2.693       52.388       21.139       19.173     2744.544      446.854      367.608        0.325        0.178       54.171       17.197        0.101      334.095        3.841      859.006
11/13/2014  00:14:00       -8.035      -35.366      -13.112       24.002       18.803       18.094      576.080      353.547      327.390        0.137        0.063       36.267       13.275        0.134      334.140        3.916      858.984
11/13/2014  00:15:00      -41.794       -4.727       -0.879       16.419       28.576       14.618      269.587      816.560      213.692        0.153        0.065       42.060       15.960        0.144      334.088        3.828      858.941
11/13/2014  00:16:00      -13.355       16.348        9.062       14.844       13.235       11.120      220.346      175.178      123.658        0.052        0.026       21.109        5.111        0.059      333.961        3.620      858.886
11/13/2014  00:17:00      -14.740       12.735        1.825        9.972       13.844        7.556       99.438      191.650       57.099        0.037        0.017       19.479        7.021        0.130      333.990        3.669      858.853
11/13/2014  00:18:00      -59.283      -32.792       -0.801       27.321       17.219       12.321      746.414      296.504      151.818        0.289        0.060       67.748       12.275        0.033      333.979        3.650      858.894
11/13/2014  00:19:00      -39.694      -51.888       -4.929       28.435       25.267       18.757      808.522      638.433      351.812        0.305        0.090       65.330       11.794        0.033      334.014        3.708      858.930
11/13/2014  00:20:00       -0.863      -19.525       11.916       20.380       15.095       17.615      415.352      227.865      310.303        0.074        0.048       19.544        9.544        0.238      334.030        3.733      858.946
11/13/2014  00:21:00      -21.466      -14.421        5.256       17.368       12.665       11.954      301.640      160.390      142.906        0.065        0.030       25.860       10.609        0.168      334.023        3.722      858.968
11/13/2014  00:22:00      -27.787       -4.164        2.677       13.509       14.586        8.368      182.484      212.758       70.020        0.063        0.023       28.098        4.595        0.027      333.996        3.678      858.986
11/13/2014  00:23:00      -32.896      -13.024       -1.386       11.114        9.426        7.805      123.520       88.843       60.915        0.076        0.014       35.380        1.212        0.001      334.005        3.696      858.970
11/13/2014  00:24:00      -13.613       -9.975        3.200       10.879       10.638        5.764      118.349      113.174       33.223        0.028        0.013       16.876        3.624        0.046      334.030        3.734      858.960
11/13/2014  00:25:00      -19.131      -10.103        3.371       12.337       14.215        6.325      152.206      202.059       40.003        0.044        0.020       21.635        5.555        0.066      334.039        3.748      858.974
11/13/2014  00:26:00      -22.868       -6.129        6.945       13.122        7.809        9.496      172.193       60.975       90.168        0.047        0.016       23.676        7.493        0.100      334.046        3.761      858.966
11/13/2014  00:27:00       -1.090       12.507       14.614        7.467       11.252        8.303       55.756      126.606       68.936        0.031        0.013       12.555        5.287        0.177      334.072        3.802      858.939
11/13/2014  00:28:00       23.501       26.557        6.933       12.720       15.055       15.224      161.796      226.650      231.776        0.096        0.031       35.462        7.025        0.039      333.973        3.640      858.920
11/13/2014  00:29:00       23.598       28.954        0.744       12.703       15.186        9.917      161.365      230.611       98.346        0.094        0.025       37.352       10.658        0.081      333.941        3.587      858.893
11/13/2014  00:30:00       21.207       23.025        0.917       16.288       16.771       12.477      265.302      281.278      155.679        0.084        0.035       31.304       12.455        0.158      333.913        3.539      858.871
11/13/2014  00:31:00       42.009       41.861       -1.826       19.269       14.588       18.477      371.279      212.814      341.403        0.222        0.046       59.305       12.135        0.042      333.902        3.522      858.866
11/13/2014  00:32:00       63.098       43.419        3.084       12.915       12.303        9.058      166.798      151.358       82.051        0.314        0.020       76.593        5.037        0.004      333.942        3.589      858.857
11/13/2014  00:33:00       25.604       30.994        0.730       18.331       16.150        9.845      336.030      260.816       96.924        0.116        0.035       40.202        9.769        0.059      333.929        3.566      858.860
11/13/2014  00:34:00        7.071       46.468       -5.278       11.922        4.739        4.304      142.123       22.459       18.522        0.121        0.009       47.003        2.965        0.004      334.018        3.716      858.890
11/13/2014  00:35:00        5.279       37.661       -2.647       15.036       11.291        6.555      226.076      127.490       42.974        0.092        0.020       38.029        5.235        0.019      334.004        3.693      858.890
11/13/2014  00:36:00        2.318       32.225       -4.983        8.051       10.734        7.567       64.811      115.224       57.266        0.065        0.012       32.308        6.897        0.046      334.079        3.813      858.876
11/13/2014  00:37:00       -6.733        0.068        3.082       10.528       12.250        7.842      110.844      150.072       61.492        0.019        0.016        6.733        8.385        1.551      333.999        3.683      858.867
11/13/2014  00:38:00      -13.084       -6.164       -0.752       10.123        6.642        6.904      102.466       44.115       47.662        0.020        0.010       14.463        3.565        0.061      333.804        3.361      858.830
11/13/2014  00:39:00       -9.411      -11.323        9.694       10.168       11.601        8.609      103.394      134.591       74.122        0.031        0.016       14.723        4.537        0.095      334.013        3.706      858.797
11/13/2014  00:40:00      -24.514       -8.730        6.009       12.121       10.989       11.966      146.926      120.756      143.193        0.056        0.021       26.022        5.283        0.041      333.803        3.358      858.783
11/13/2014  00:41:00      -33.800       -6.961       -3.523        9.039       10.050        7.293       81.698      100.994       53.183        0.072        0.012       34.510        3.645        0.011      333.776        3.314      858.760
11/13/2014  00:42:00      -33.680       12.676       -3.893       11.966       10.778        7.222      143.182      116.156       52.159        0.081        0.016       35.986        6.011        0.028      333.673        3.143      858.730
11/13/2014  00:43:00      -27.853        4.907       -7.209       12.287       10.806        7.134      150.972      116.766       50.891        0.059        0.016       28.282        3.910        0.019      333.730        3.236      858.727
11/13/2014  00:44:00      -28.569        1.787       -5.046        9.244        9.954        6.364       85.443       99.087       40.498        0.053        0.011       28.625        5.339        0.035      333.812        3.375      858.755
11/13/2014  00:45:00      -39.168       19.064       -9.055       12.907       17.750        8.559      166.585      315.068       73.254        0.127        0.028       43.561       10.921        0.063      333.765        3.294      858.775
11/13/2014  00:46:00      -64.916       33.180       -9.684       18.082       19.093       10.569      326.960      364.556      111.710        0.311        0.040       72.904        8.776        0.014      333.671        3.138      858.772
11/13/2014  00:47:00      -83.786       85.233      -25.576       24.160       27.671       14.727      583.717      765.699      216.878        0.825        0.078      119.519       11.123        0.009      333.802        3.356      858.744
11/13/2014  00:48:00     -100.387       49.174      -14.514       37.906       28.878       21.772     1436.870      833.967      474.013        0.773        0.137      111.784       18.496        0.027      333.894        3.508      858.744
11/13/2014  00:49:00      -99.092       79.779      -18.908       29.269       35.756       22.280      856.675     1278.506      496.410        0.959        0.132      127.217       14.795        0.014      333.941        3.587      858.763
11/13/2014  00:50:00      -53.417       82.488      -11.906       39.504       35.819       21.228     1560.556     1283.013      450.615        0.655        0.165       98.274       25.134        0.065      333.952        3.604      858.750
11/13/2014  00:51:00      -26.555       42.708       -8.345       18.719       25.815       13.783      350.393      666.409      189.965        0.190        0.060       50.291        9.377        0.035      334.027        3.728      858.765
11/13/2014  00:52:00      -31.989      -21.564      -13.888       25.755       17.703       11.681      663.319      313.386      136.439        0.140        0.056       38.579        7.586        0.039      333.980        3.652      858.814
11/13/2014  00:53:00      -25.571       -5.406       -1.559       23.078       14.550       14.301      532.605      211.708      204.505        0.082        0.047       26.136       14.666        0.315      333.965        3.627      858.826
11/13/2014  00:54:00      -16.944        1.262       -3.025       10.121        9.395        7.322      102.432       88.267       53.605        0.027        0.012       16.991        4.204        0.061      333.894        3.509      858.782
11/13/2014  00:55:00      -44.039       -2.611       -9.866       23.578       21.315       10.407      555.920      454.318      108.310        0.158        0.056       44.116        8.584        0.038      333.862        3.455      858.785
11/13/2014  00:56:00      -88.645      -50.798       -4.515       19.904       23.371       15.734      396.169      546.188      247.544        0.582        0.059      102.168        9.660        0.009      333.762        3.289      858.857
11/13/2014  00:57:00     -110.554      -19.141      -12.658       27.011       18.170       14.749      729.621      330.166      217.539        0.701        0.064      112.199       12.624        0.013      333.753        3.274      858.882
11/13/2014  00:58:00     -121.007       12.048      -12.542       25.148       22.981       13.246      632.419      528.112      175.459        0.814        0.067      121.606        9.178        0.006      333.742        3.256      858.848
11/13/2014  00:59:00      -85.849       32.497      -11.967       28.820       29.489       12.348      830.599      869.572      152.475        0.521        0.093       91.793        8.216        0.008      333.784        3.326      858.770
11/13/2014  01:00:00      -67.976       58.939      -15.930       24.271       21.553       14.901      589.077      464.538      222.036        0.481        0.064       89.970       13.792        0.024      334.024        3.722      858.699
11/13/2014  01:01:00      -75.181       45.880      -16.714       17.097       20.718       13.113      292.297      429.246      171.957        0.446        0.045       88.075       11.658        0.018      334.167        3.961      858.697
11/13/2014  01:02:00      -90.665       58.640      -22.648       20.651       24.147       16.161      426.481      583.076      261.179        0.672        0.064      107.976       10.239        0.009      334.102        3.854      858.711
11/13/2014  01:03:00      -84.153        0.053      -16.937       22.261       21.170       15.560      495.553      448.187      242.128        0.428        0.059       84.153       11.857        0.020      333.914        3.541      858.727
11/13/2014  01:04:00      -57.304       -6.481      -11.819       24.763       22.554       15.307      613.200      508.661      234.305        0.241        0.068       57.669       12.567        0.047      333.835        3.412      858.758
11/13/2014  01:05:00      -86.402       -7.208       -4.711       34.398       28.591       20.057     1183.188      817.421      402.279        0.497        0.120       86.702       16.254        0.035      333.837        3.413      858.760
11/13/2014  01:06:00      -82.882       33.791      -15.037       24.454       22.152       15.906      597.979      490.727      253.008        0.479        0.067       89.506       14.035        0.025      334.022        3.719      858.751
11/13/2014  01:07:00      -67.037       18.146       -8.479       20.470       22.629       16.428      419.019      512.055      269.891        0.305        0.060       69.450       12.011        0.030      334.073        3.804      858.785
11/13/2014  01:08:00      -73.843      -26.949      -10.222       21.708       20.469       14.633      471.222      418.984      214.131        0.369        0.055       78.607        9.334        0.014      333.970        3.635      858.847
11/13/2014  01:09:00      -57.752        2.818      -13.490       14.893       22.045       16.331      221.791      485.975      266.701        0.225        0.049       57.821       13.127        0.052      334.004        3.692      858.855
11/13/2014  01:10:00      -37.571       26.664       -3.124       20.501       26.799       14.434      420.271      718.175      208.349        0.174        0.067       46.071       12.473        0.073      334.174        3.973      858.839
11/13/2014  01:11:00      -60.824       29.085      -11.889       22.550       21.855       15.021      508.512      477.652      225.638        0.295        0.061       67.420       11.841        0.031      334.178        3.979      858.866
11/13/2014  01:12:00      -67.002       -3.726      -12.080       11.087        9.112        8.040      122.924       83.033       64.641        0.246        0.014       67.106        1.944        0.001      333.972        3.638      858.905
11/13/2014  01:13:00      -64.009      -24.654       -7.730       13.915       16.482        9.192      193.628      271.654       84.501        0.266        0.027       68.592        3.319        0.002      333.967        3.630      858.923
11/13/2014  01:14:00      -45.763      -22.974       -4.430       21.307       12.904        9.079      454.007      166.515       82.425        0.167        0.035       51.206        7.063        0.019      333.951        3.605      858.904
11/13/2014  01:15:00        3.733       -4.215       17.777       16.776       16.076       10.771      281.447      258.433      116.023        0.050        0.033        5.630       13.162        5.464      333.962        3.624      858.876
11/13/2014  01:16:00       43.893       52.128       24.529       32.726       17.266       16.514     1070.963      298.124      272.699        0.344        0.082       68.147       15.339        0.051      334.087        3.830      858.771
11/13/2014  01:17:00       87.640       55.571       27.107       27.192       16.916       19.441      739.430      286.150      377.957        0.645        0.070      103.773       12.352        0.014      334.177        3.978      858.649
11/13/2014  01:18:00       74.461       33.491        1.728       20.572       15.202       21.160      423.191      231.106      447.728        0.389        0.055       81.646        4.774        0.003      334.182        3.988      858.616
11/13/2014  01:19:00       26.221        9.062       10.443       20.815       13.170       10.882      433.250      173.437      118.419        0.080        0.036       27.743        5.944        0.046      334.179        3.981      858.629
11/13/2014  01:20:00        1.257       18.500       -2.057       11.420       11.272        6.223      130.416      127.065       38.725        0.032        0.015       18.543        5.526        0.089      334.212        4.036      858.669
11/13/2014  01:21:00      -34.842        9.207       -7.275       25.087       15.577        6.416      629.378      242.658       41.169        0.113        0.046       36.038        5.729        0.025      334.182        3.988      858.741
11/13/2014  01:22:00      -62.470      -18.519       -7.780       12.456        9.752        8.534      155.145       95.096       72.829        0.231        0.016       65.157        5.267        0.007      334.076        3.809      858.812
11/13/2014  01:23:00      -31.135      -26.117       -3.857       19.094        9.498        7.406      364.581       90.214       54.853        0.109        0.025       40.639        6.865        0.029      334.179        3.983      858.847
11/13/2014  01:24:00      -41.744      -15.114       -2.636        9.058        6.407        6.209       82.049       41.048       38.554        0.107        0.008       44.396        2.760        0.004      334.215        4.040      858.907
11/13/2014  01:25:00      -27.214        8.657       -4.211        9.585       11.925        7.463       91.874      142.199       55.694        0.056        0.014       28.558        7.420        0.068      334.205        4.026      858.895
11/13/2014  01:26:00      -16.304       20.183       -1.908       10.428        7.650        6.266      108.741       58.519       39.268        0.044        0.010       25.946        3.815        0.022      334.232        4.073      858.846
11/13/2014  01:27:00      -69.563       22.555      -11.160       24.898       17.145       10.891      619.925      293.960      118.604        0.325        0.052       73.128        7.129        0.010      334.217        4.043      858.849
11/13/2014  01:28:00      -27.109       66.996       -4.234       33.708       32.530       18.401     1136.229     1058.225      338.581        0.389        0.127       72.273       19.730        0.075      334.313        4.203      858.744
11/13/2014  01:29:00       36.248      134.942      -17.315       22.678       34.477       23.143      514.314     1188.686      535.610        1.103        0.112      139.725       21.013        0.023      334.307        4.192      858.544
11/13/2014  01:30:00       13.790      150.603      -25.607       31.833       32.816       15.406     1013.354     1076.896      237.338        1.293        0.116      151.233       11.704        0.006      334.270        4.132      858.456
11/13/2014  01:31:00      -34.619      143.034      -21.831       20.799       20.786       15.480      432.598      432.041      239.620        1.162        0.055      147.164        9.345        0.004      334.343        4.253      858.469
11/13/2014  01:32:00        8.000      104.018       -9.964       19.153       22.716       15.358      366.847      516.036      235.877        0.605        0.056      104.325       12.955        0.015      334.302        4.185      858.463
11/13/2014  01:33:00       39.234       46.878       -4.366       21.960       33.902       15.998      482.261     1149.340      255.945        0.282        0.094       61.130       17.908        0.086      334.264        4.120      858.452
11/13/2014  01:34:00       26.395       29.001        4.842       33.634       23.767       20.541     1131.266      564.871      421.943        0.184        0.106       39.214       17.833        0.207      334.326        4.226      858.528
11/13/2014  01:35:00      -35.076      -15.222       -3.941       35.849       27.609       17.886     1285.151      762.253      319.912        0.192        0.118       38.236        7.919        0.043      334.457        4.443      858.664
11/13/2014  01:36:00      -59.289      -34.804      -10.447       34.012       21.547       17.734     1156.805      464.255      314.510        0.339        0.097       68.750       19.842        0.083      334.426        4.392      858.743
11/13/2014  01:37:00      -36.325        6.407       -1.871       26.089       16.410       12.009      680.656      269.293      144.222        0.123        0.055       36.886       12.353        0.112      334.424        4.389      858.717
11/13/2014  01:38:00      -72.010       35.070       -6.372       28.481       21.524       15.866      811.159      463.267      251.742        0.399        0.076       80.096       14.101        0.031      334.350        4.268      858.633
11/13/2014  01:39:00      -79.853       32.962       -6.166       19.625       16.242       12.909      385.156      263.803      166.639        0.416        0.041       86.388        9.321        0.012      334.294        4.171      858.573
11/13/2014  01:40:00      -58.486       44.095      -13.927       20.218       20.646       14.312      408.750      426.247      204.836        0.330        0.052       73.246       15.020        0.042      334.335        4.240      858.525
11/13/2014  01:41:00      -42.942       41.433       -7.361       25.493       22.361       13.290      649.872      499.994      176.612        0.247        0.066       59.672       11.205        0.035      334.414        4.371      858.450
11/13/2014  01:42:00       25.010       30.126        3.832       36.904       19.513       19.128     1361.870      380.739      365.869        0.183        0.105       39.154       11.734        0.090      334.462        4.451      858.357
11/13/2014  01:43:00       -3.485        0.378      -11.740       15.841       21.769        8.951      250.922      473.868       80.115        0.048        0.040        3.505        7.845        5.010      334.453        4.435      858.364
11/13/2014  01:44:00      -12.634       -6.399        1.903       14.353       30.135        9.955      206.007      908.092       99.110        0.071        0.061       14.162        8.777        0.384      334.525        4.556      858.421
11/13/2014  01:45:00       14.824       23.762       15.945       12.793       10.996       10.203      163.667      120.922      104.100        0.071        0.019       28.007        6.173        0.049      334.469        4.464      858.415
11/13/2014  01:46:00        5.210       29.380       -2.883       20.030       10.368        5.264      401.205      107.495       27.709        0.072        0.027       29.838        5.286        0.031      334.470        4.463      858.405
11/13/2014  01:47:00      -35.667        9.371       -5.553       23.608        8.842        9.195      557.351       78.184       84.550        0.106        0.036       36.877        6.028        0.027      334.442        4.418      858.451
11/13/2014  01:48:00      -76.504        3.607       -9.707       17.300       15.160       12.333      299.297      229.819      152.100        0.332        0.034       76.589        8.647        0.013      334.407        4.359      858.480
11/13/2014  01:49:00      -38.425        1.935       -1.195       19.771       18.579       11.795      390.901      345.189      139.112        0.118        0.044       38.473       12.164        0.100      334.448        4.428      858.464
11/13/2014  01:50:00      -44.584       19.729      -10.948       17.945       20.121       10.190      322.025      404.867      103.846        0.166        0.042       48.754        8.223        0.028      334.337        4.245      858.426
11/13/2014  01:51:00      -33.842        1.811       -9.729        5.619       16.252        5.167       31.568      264.117       26.701        0.078        0.016       33.890        4.947        0.021      334.309        4.198      858.411
11/13/2014  01:52:00      -28.228      -23.973       -1.002       18.086       18.169       13.960      327.110      330.105      194.887        0.111        0.043       37.034       12.505        0.114      334.474        4.471      858.450
11/13/2014  01:53:00      -47.504      -29.220        0.104       40.789       20.067       14.604     1663.780      402.677      213.280        0.269        0.114       55.771       20.297        0.132      334.419        4.380      858.446
11/13/2014  01:54:00      -50.370      -23.556       -8.089       23.953       16.888       11.877      573.736      285.193      141.064        0.208        0.050       55.606        8.917        0.026      334.402        4.353      858.390
11/13/2014  01:55:00      -50.533      -13.710       -8.578       12.307       12.802       13.143      151.454      163.882      172.739        0.165        0.024       52.360        5.382        0.011      334.359        4.280      858.359
11/13/2014  01:56:00      -29.124      -20.182       -3.366       28.082       12.875       15.768      788.626      165.759      248.615        0.123        0.060       35.433       14.719        0.173      334.467        4.459      858.375
11/13/2014  01:57:00      -84.052      -30.943       -3.802       29.749       20.608       13.525      884.983      424.698      182.934        0.476        0.075       89.567       14.332        0.026      334.383        4.321      858.405
11/13/2014  01:58:00      -78.132       -6.066       -5.065       30.674       20.073       15.954      940.898      402.942      254.541        0.388        0.080       78.367       16.657        0.045      334.396        4.342      858.404
11/13/2014  01:59:00      -89.525      -28.476       -8.212       20.770       10.249       12.550      431.386      105.049      157.493        0.479        0.035       93.944        7.087        0.006      334.374        4.307      858.438
11/13/2014  02:00:00      -32.719      -27.489       13.895       44.696       20.585       17.015     1997.768      423.752      289.525        0.236        0.136       42.734       18.089        0.179      334.501        4.517      858.538
11/13/2014  02:01:00      -37.610      -28.045        2.639       37.636       33.239       17.818     1416.489     1104.852      317.490        0.252        0.142       46.915       19.726        0.177      334.533        4.567      858.614
11/13/2014  02:02:00      -77.564      -65.457       -1.292       36.920       38.022       25.791     1363.098     1445.694      665.189        0.689        0.174      101.493       22.144        0.048      334.518        4.543      858.641
11/13/2014  02:03:00      -64.307      -30.380        2.538       38.518       24.738       16.697     1483.612      611.981      278.805        0.372        0.119       71.122       14.757        0.043      334.468        4.462      858.593
11/13/2014  02:04:00      -95.098      -16.478       -8.425       16.436       16.718       11.460      270.153      279.499      131.340        0.503        0.034       96.515        5.516        0.003      334.433        4.405      858.490
11/13/2014  02:05:00      -27.927      -24.198        6.766       20.727       22.773       11.727      429.589      518.629      137.514        0.125        0.054       36.952       12.678        0.118      334.462        4.451      858.397
11/13/2014  02:06:00      -18.091       -9.998       -1.816       17.074        8.867        7.941      291.518       78.628       63.061        0.043        0.022       20.670        6.393        0.096      334.503        4.520      858.349
11/13/2014  02:07:00      -43.393      -20.614        1.618       25.649       15.358       14.158      657.882      235.868      200.461        0.170        0.055       48.041       11.480        0.057      334.558        4.608      858.362
11/13/2014  02:08:00      -23.834      -21.123        0.116       23.634       23.224       18.450      558.565      539.360      340.391        0.123        0.072       31.847       12.994        0.166      334.550        4.596      858.363
11/13/2014  02:09:00        7.182        0.129       15.403       19.347        8.299       12.776      374.306       68.878      163.215        0.045        0.030        7.183       13.196        3.375      334.573        4.636      858.313
11/13/2014  02:10:00      -22.030       -0.346        4.105       12.360        7.243        9.217      152.779       52.460       84.957        0.040        0.015       22.033        7.561        0.118      334.560        4.612      858.251
11/13/2014  02:11:00       -9.580        1.355        1.375        9.864       14.190        7.697       97.304      201.362       59.237        0.023        0.018        9.675        5.387        0.310      334.507        4.527      858.218
11/13/2014  02:12:00       -0.444       24.769       13.810       11.585       11.551       11.625      134.207      133.435      135.144        0.060        0.020       24.773        8.573        0.120      334.438        4.412      858.184
11/13/2014  02:13:00       -4.160       44.614       10.295       30.858       19.438       18.216      952.219      377.836      331.835        0.189        0.083       44.808       14.745        0.108      334.444        4.421      858.123
11/13/2014  02:14:00      -44.052       66.747       -6.419       35.534       42.444       19.986     1262.636     1801.483      399.433        0.495        0.173       79.973       21.046        0.069      334.558        4.609      858.152
11/13/2014  02:15:00      -82.858       -1.742       -8.162       27.980       26.025       15.140      782.865      677.290      229.230        0.431        0.084       82.877       14.152        0.029      334.462        4.451      858.256
11/13/2014  02:16:00      -43.354      -29.083        5.259       34.856       22.653       18.189     1214.937      513.179      330.825        0.241        0.103       52.206       14.214        0.074      334.559        4.611      858.322
11/13/2014  02:17:00      -59.704        8.433       -3.997       12.377       13.501        8.365      153.189      182.274       69.973        0.203        0.020       60.297        7.442        0.015      334.434        4.407      858.311
11/13/2014  02:18:00      -19.743       17.558       -0.259       15.005       12.761        6.067      225.146      162.846       36.805        0.056        0.021       26.421        8.501        0.104      334.440        4.417      858.246
11/13/2014  02:19:00      -16.179        5.478        2.546       10.407       11.494        8.361      108.306      132.106       69.906        0.030        0.016       17.081        7.262        0.181      334.453        4.435      858.220
11/13/2014  02:20:00      -19.504        4.279        3.551       14.336        9.805        9.720      205.521       96.140       94.479        0.040        0.020       19.968        9.125        0.209      334.492        4.501      858.220
11/13/2014  02:21:00      -24.959       16.473       -2.480       11.254       12.973        5.839      126.657      168.288       34.100        0.061        0.016       29.905        5.935        0.039      334.439        4.415      858.169
11/13/2014  02:22:00      -19.520       21.994      -11.683       14.691        9.764        5.943      215.813       95.330       35.314        0.067        0.017       29.407        5.213        0.031      334.440        4.415      858.135
11/13/2014  02:23:00      -22.865        0.110       -4.725       26.734       21.771        8.557      714.716      473.988       73.227        0.090        0.063       22.865       10.644        0.217      334.469        4.462      858.160
11/13/2014  02:24:00       -8.783       11.350        6.009       40.200       28.535       13.625     1616.006      814.242      185.640        0.143        0.131       14.352       20.002        1.942      334.458        4.443      858.159
11/13/2014  02:25:00       80.092       68.428        0.268       30.560       25.705       26.385      933.890      660.726      696.161        0.669        0.115      105.343       18.558        0.031      334.435        4.406      858.079
11/13/2014  02:26:00       79.873       29.494        5.579       33.453       31.041       26.671     1119.071      963.538      711.350        0.504        0.140       85.144       12.426        0.021      334.482        4.484      858.089
11/13/2014  02:27:00        3.904      -16.403        5.193       18.812       21.221       21.405      353.902      450.334      458.184        0.079        0.063       16.861       12.474        0.547      334.571        4.631      858.216
11/13/2014  02:28:00       12.956       13.172       12.119       14.261       17.245       17.353      203.368      297.395      301.133        0.064        0.040       18.476       12.368        0.448      334.581        4.647      858.295
11/13/2014  02:29:00       54.744       53.204       14.604       19.704       21.589       14.931      388.244      466.106      222.937        0.356        0.054       76.339       16.412        0.046      334.493        4.502      858.259
11/13/2014  02:30:00       34.061       38.318        0.449       31.017       28.626       18.365      962.041      819.441      337.291        0.237        0.106       51.268       17.628        0.118      334.421        4.383      858.204
11/13/2014  02:31:00       15.383       59.242       -4.441       25.689       26.257       15.514      659.934      689.438      240.678        0.268        0.080       61.207       14.908        0.059      334.403        4.352      858.239
11/13/2014  02:32:00       -9.156       71.698        0.714       17.703       35.553       19.595      313.410     1264.040      383.952        0.359        0.098       72.280       22.860        0.100      334.466        4.457      858.324
11/13/2014  02:33:00      -56.937       63.755      -14.286       24.895       28.953       16.392      619.758      838.286      268.710        0.462        0.086       85.478       19.428        0.052      334.448        4.427      858.399
11/13/2014  02:34:00      -41.837       82.291      -10.429       25.089       30.921       13.836      629.446      956.094      191.422        0.520        0.089       92.316        8.305        0.008      334.623        4.717      858.440
11/13/2014  02:35:00      -49.452      123.488      -17.165       24.073       49.577       20.551      579.532     2457.893      422.327        1.072        0.173      133.022       19.061        0.021      334.600        4.680      858.452
11/13/2014  02:36:00      -59.098       31.645       -0.799       25.663       32.850       19.012      658.593     1079.148      361.443        0.330        0.105       67.038       17.539        0.068      334.544        4.587      858.429
11/13/2014  02:37:00      -26.906       41.585       -9.803       17.344       32.209       17.712      300.813     1037.451      313.723        0.210        0.083       49.530       19.316        0.152      334.562        4.616      858.385
11/13/2014  02:38:00      102.539       53.704       -4.546       28.568       21.624       20.543      816.123      467.615      422.025        0.756        0.085      115.751       10.563        0.008      334.529        4.563      858.313
11/13/2014  02:39:00       66.616       70.960       -5.821       27.696       31.798       22.673      767.049     1011.095      514.060        0.590        0.115       97.329       12.930        0.018      334.488        4.493      858.268
11/13/2014  02:40:00       38.787       48.548       -5.402       24.660       19.102       15.399      608.102      364.895      237.124        0.255        0.061       62.140       10.056        0.026      334.455        4.439      858.251
11/13/2014  02:41:00       26.291       37.073        0.247       18.843       23.349       21.266      355.061      545.192      452.240        0.171        0.068       45.449       16.536        0.132      334.446        4.425      858.189
11/13/2014  02:42:00       24.694       62.258       -1.312       34.433       35.446       22.041     1185.628     1256.438      485.795        0.371        0.146       66.977       24.448        0.133      334.452        4.435      858.053
11/13/2014  02:43:00       69.849       49.448        2.744       31.072       24.123       22.576      965.444      581.924      509.687        0.469        0.103       85.580       19.203        0.050      334.442        4.419      857.909
11/13/2014  02:44:00       55.005       34.750       -7.182       26.712       31.925       22.009      713.529     1019.209      484.386        0.325        0.111       65.062       16.333        0.063      334.430        4.400      857.866
11/13/2014  02:45:00       10.195       14.629       -0.242       21.880       17.431       11.385      478.740      303.829      129.614        0.061        0.046       17.831        9.876        0.307      334.439        4.413      857.926
11/13/2014  02:46:00       16.788       11.957        0.991       13.353       19.562       12.367      178.304      382.681      152.941        0.057        0.036       20.611       12.041        0.341      334.469        4.461      857.989
11/13/2014  02:47:00       -1.381        5.711       -3.002        9.286       20.233       10.422       86.228      409.371      108.627        0.032        0.030        5.876        5.038        0.735      334.482        4.482      858.022
11/13/2014  02:48:00      -30.522        1.241       -3.941       14.248       12.789       13.359      203.019      163.565      178.463        0.075        0.027       30.547        7.841        0.066      334.527        4.559      857.993
11/13/2014  02:49:00      -16.620       62.336       -7.513       23.710       43.678       18.661      562.141     1907.769      348.232        0.352        0.141       64.514       20.586        0.102      334.534        4.570      857.940
11/13/2014  02:50:00       19.770      111.777      -21.026       11.132       12.313        7.691      123.923      151.619       59.147        0.683        0.017      113.512        4.753        0.002      334.497        4.508      857.895
11/13/2014  02:51:00       27.988       79.282       -9.120       15.965       25.342       14.642      254.866      642.216      214.389        0.413        0.056       84.077       15.739        0.035      334.493        4.502      857.908
11/13/2014  02:52:00       32.345      100.414      -14.031       26.648       24.073       17.981      710.141      579.495      323.311        0.647        0.081      105.495       14.703        0.019      334.479        4.481      857.904
11/13/2014  02:53:00      -10.760      121.560      -20.765       36.111       30.988       18.803     1303.984      960.262      353.540        0.897        0.131      122.035       21.080        0.030      334.562        4.617      857.923
11/13/2014  02:54:00      -61.939       68.242      -18.590       29.341       31.636       16.243      860.894     1000.844      263.846        0.548        0.106       92.160       11.889        0.017      334.692        4.834      857.942
11/13/2014  02:55:00        4.616       46.105        2.637       46.546       23.594       18.589     2166.552      556.669      345.536        0.261        0.153       46.335       23.081        0.248      334.688        4.826      857.902
11/13/2014  02:56:00       87.506       73.290       12.620       34.411       33.187       29.022     1184.106     1101.375      842.272        0.816        0.156      114.143       15.401        0.018      334.599        4.677      857.804
11/13/2014  02:57:00       75.788       81.709       51.862       52.615       33.377       42.570     2768.379     1114.026     1812.226        1.040        0.285      111.446       36.658        0.108      334.577        4.641      857.750
11/13/2014  02:58:00       31.112       35.345       45.132       38.119       41.498       33.922     1453.039     1722.043     1150.729        0.429        0.216       47.087       28.966        0.378      334.527        4.560      857.746
11/13/2014  02:59:00       19.790       68.361       -3.131       26.411       37.569       26.776      697.564     1411.460      716.952        0.395        0.141       71.168       24.324        0.117      334.484        4.489      857.763
11/13/2014  03:00:00       -2.258       61.356       -5.132       11.711       22.697       19.079      137.145      515.132      364.015        0.241        0.051       61.397       19.370        0.100      334.519        4.546      857.793
11/13/2014  03:01:00      -16.570       16.092        1.264       23.856       23.767       15.221      569.109      564.878      231.668        0.095        0.068       23.098       13.182        0.326      334.625        4.720      857.850
11/13/2014  03:02:00       21.649       12.924        5.870       13.883       14.107       11.062      192.750      199.016      122.370        0.059        0.026       25.213       10.217        0.164      334.633        4.733      857.901
11/13/2014  03:03:00       24.985       46.497       22.026       23.099       17.751       22.834      533.565      315.100      521.409        0.232        0.069       52.785       11.213        0.045      334.616        4.706      857.911
11/13/2014  03:04:00       96.473       64.063       26.528       33.458       18.429       24.688     1119.442      339.628      609.479        0.809        0.103      115.806       24.996        0.047      334.547        4.592      857.815
11/13/2014  03:05:00      148.080       85.301        3.637       44.335       37.034       30.411     1965.603     1371.490      924.847        1.674        0.213      170.892       18.494        0.012      334.547        4.590      857.621
11/13/2014  03:06:00      129.000       69.309        8.715       59.400       38.872       37.639     3528.363     1511.067     1416.725        1.399        0.323      146.440       16.911        0.013      334.521        4.548      857.478
11/13/2014  03:07:00       72.226       48.256        6.792       48.150       33.280       30.644     2318.383     1107.569      939.029        0.598        0.218       86.863       19.393        0.050      334.450        4.431      857.493
11/13/2014  03:08:00       37.399       54.792       -1.438       34.511       30.208       23.505     1191.024      912.499      552.490        0.353        0.133       66.339       14.300        0.046      334.419        4.380      857.596
11/13/2014  03:09:00       46.115       77.220        3.080       37.176       25.329       30.329     1382.029      641.541      919.866        0.552        0.147       89.942       18.421        0.042      334.454        4.436      857.651
11/13/2014  03:10:00       44.602       54.342       -1.415       25.103       22.895       14.924      630.170      524.199      222.714        0.316        0.069       70.302       11.627        0.027      334.454        4.435      857.656
11/13/2014  03:11:00       40.784       43.277       -1.016       25.441       21.171       21.129      647.226      448.229      446.421        0.254        0.077       59.466       17.883        0.090      334.507        4.524      857.658
11/13/2014  03:12:00       23.280        8.170       -2.678       23.545       13.574       13.267      554.368      184.240      176.026        0.077        0.046       24.672        9.615        0.152      334.477        4.475      857.637
11/13/2014  03:13:00       56.242       28.998        9.891       23.290       17.940       21.787      542.428      321.837      474.671        0.272        0.067       63.278       11.127        0.031      334.496        4.505      857.647
11/13/2014  03:14:00       42.294       35.538       26.247       24.657       16.727       17.964      607.984      279.808      322.688        0.248        0.061       55.242        7.217        0.017      334.507        4.524      857.682
11/13/2014  03:15:00       10.885      -11.793       11.043       16.879       19.387       18.649      284.886      375.852      347.772        0.069        0.050       16.048       16.199        1.019      334.616        4.705      857.704
11/13/2014  03:16:00       23.817      -26.032       -7.098       11.807       20.539       12.172      139.408      421.842      148.151        0.100        0.035       35.284        6.458        0.033      334.643        4.752      857.713
11/13/2014  03:17:00       27.610       18.208       26.188       22.587       18.094       13.675      510.175      327.390      187.012        0.140        0.051       33.073       11.496        0.121      334.621        4.713      857.693
11/13/2014  03:18:00       26.811       63.185       54.051       28.405       30.834       32.296      806.871      950.760     1043.060        0.522        0.140       68.638       31.456        0.210      334.614        4.702      857.642
11/13/2014  03:19:00       18.022       98.153       96.482       52.279       40.409       28.341     2733.132     1632.889      803.218        1.222        0.258       99.793       30.141        0.091      334.596        4.672      857.565
11/13/2014  03:20:00        6.708       78.734       89.983       30.909       56.375       33.286      955.351     3178.088     1107.990        0.979        0.262       79.019       36.857        0.218      334.590        4.661      857.557
11/13/2014  03:21:00        6.175       27.938       56.045       30.288       30.399       28.263      917.340      924.113      798.805        0.330        0.132       28.613       24.617        0.740      334.564        4.620      857.606
11/13/2014  03:22:00       26.774       36.545       38.473       41.468       30.930       30.472     1719.557      956.677      928.530        0.357        0.180       45.303       24.992        0.304      334.544        4.586      857.609
11/13/2014  03:23:00       36.733       29.227       28.457       42.526       25.495       30.122     1808.485      650.000      907.349        0.319        0.168       46.942       29.329        0.390      334.496        4.508      857.622
11/13/2014  03:24:00       51.066       34.736        3.661       16.934       17.368       16.400      286.757      301.660      268.954        0.234        0.043       61.760        5.963        0.009      334.422        4.384      857.601
11/13/2014  03:25:00       38.273       39.550        5.845       16.977       16.216       13.605      288.212      262.949      185.103        0.190        0.037       55.036       10.676        0.038      334.405        4.357      857.555
11/13/2014  03:26:00       23.363       53.393      -11.079       14.190       15.748       11.259      201.343      247.999      126.774        0.205        0.029       58.281        5.196        0.008      334.399        4.345      857.512
11/13/2014  03:27:00       19.944       75.913      -14.989       12.323       31.075        6.291      151.867      965.670       39.579        0.377        0.058       78.489        9.663        0.015      334.374        4.305      857.485
11/13/2014  03:28:00        3.334      100.434      -12.463       20.529       14.411        9.620      421.428      207.674       92.543        0.549        0.036      100.489        6.363        0.004      334.440        4.416      857.471
11/13/2014  03:29:00       -2.548      101.613       -9.346       17.038       16.823       10.515      290.277      283.007      110.567        0.555        0.034      101.645        6.426        0.004      334.489        4.496      857.504
11/13/2014  03:30:00        8.335       72.420        4.965       16.724       40.634       17.300      279.687     1651.114      299.303        0.378        0.112       72.898       14.765        0.041      334.438        4.411      857.586
11/13/2014  03:31:00       49.310       42.709        0.680       15.289       14.188       13.050      233.756      201.295      170.295        0.243        0.030       65.235        6.527        0.010      334.430        4.397      857.660
11/13/2014  03:32:00       59.081       44.746        6.487       16.997        9.896       17.031      288.902       97.939      290.062        0.311        0.034       74.113        7.898        0.011      334.504        4.519      857.678
11/13/2014  03:33:00       55.401       38.271       12.691       16.559       12.178       16.719      274.190      148.315      279.540        0.270        0.035       67.335        6.044        0.008      334.537        4.574      857.682
11/13/2014  03:34:00       29.723       48.330       -4.954       16.569       18.083       16.525      274.527      326.992      273.064        0.206        0.044       56.738       13.605        0.057      334.470        4.465      857.687
11/13/2014  03:35:00       -1.538       99.261      -13.880       22.165       32.076       11.808      491.289     1028.871      139.427        0.585        0.083       99.273       11.919        0.014      334.475        4.471      857.688
11/13/2014  03:36:00        2.928      111.943      -20.618       12.256       17.069        7.601      150.208      291.347       57.778        0.673        0.025      111.981        4.365        0.002      334.454        4.435      857.674
11/13/2014  03:37:00       12.065       68.862      -15.173       17.847       24.224       14.021      318.501      586.780      196.589        0.311        0.055       69.911       14.679        0.044      334.473        4.467      857.696
11/13/2014  03:38:00        1.016       71.583       -7.264       22.416       22.443       14.447      502.475      503.686      208.722        0.320        0.061       71.590       12.116        0.029      334.528        4.562      857.703
11/13/2014  03:39:00       17.209       93.881       -8.503       23.528       18.469       16.545      553.566      341.092      273.749        0.517        0.058       95.445       12.716        0.018      334.496        4.506      857.711
11/13/2014  03:40:00       -4.318      118.424      -15.219       22.836       19.685       18.111      521.462      387.495      327.995        0.776        0.062      118.503       11.993        0.010      334.511        4.531      857.687
11/13/2014  03:41:00      -13.971      122.170      -16.940       23.194       26.400       17.529      537.942      696.974      307.268        0.847        0.077      122.966       11.308        0.008      334.662        4.781      857.681
11/13/2014  03:42:00      -18.889       71.061       -4.699       20.772       41.415       19.787      431.459     1715.240      391.533        0.398        0.127       73.529       21.728        0.087      334.809        5.027      857.694
11/13/2014  03:43:00      -32.353       89.439      -12.082       20.372       32.175       19.310      415.003     1035.201      372.889        0.551        0.091       95.111       14.905        0.025      334.798        5.008      857.695
11/13/2014  03:44:00       -9.550      138.999      -15.728       19.458       35.332       17.444      378.625     1248.339      304.298        1.079        0.097      139.327       17.965        0.017      334.772        4.965      857.653
11/13/2014  03:45:00       25.393      124.713      -19.378       32.969       36.869       21.834     1086.942     1359.332      476.729        0.975        0.146      127.272       19.455        0.023      334.632        4.731      857.455
11/13/2014  03:46:00       16.692      170.197      -25.695       34.743       37.981       19.766     1207.098     1442.594      390.708        1.647        0.152      171.014       17.371        0.010      334.629        4.727      857.358
11/13/2014  03:47:00      -49.904      127.560      -22.520       30.725       59.250       26.054      944.029     3510.603      678.826        1.220        0.257      136.974       26.838        0.038      334.811        5.028      857.490
11/13/2014  03:48:00      -76.829       84.004      -22.921       40.481       41.738       28.023     1638.743     1742.022      785.262        0.882        0.208      113.840       26.882        0.056      334.766        4.955      857.626
11/13/2014  03:49:00     -109.686      121.221      -30.490       48.660       46.895       33.156     2367.782     2199.166     1099.305        1.666        0.283      163.480       29.756        0.033      334.819        5.041      857.664
11/13/2014  03:50:00      -52.528      199.178      -19.481       41.553       58.426       34.484     1726.679     3413.553     1189.118        2.457        0.316      205.988       26.729        0.017      334.873        5.130      857.676
11/13/2014  03:51:00      -13.630      192.047      -13.748       30.065       55.235       30.212      903.887     3050.867      912.781        2.106        0.243      192.530       23.838        0.015      334.885        5.151      857.701
11/13/2014  03:52:00      -64.322      137.062      -10.060       69.765       58.054       33.762     4867.206     3370.316     1139.902        1.620        0.469      151.404       33.187        0.048      334.935        5.235      857.754
11/13/2014  03:53:00      -51.422      154.586      -25.416       56.677       46.749       26.956     3212.246     2185.495      726.611        1.665        0.306      162.914       24.369        0.022      334.879        5.141      857.833
11/13/2014  03:54:00      -15.447      139.767      -15.705       55.288       71.935       38.114     3056.812     5174.711     1452.704        1.485        0.484      140.618       32.561        0.054      334.930        5.227      857.898
11/13/2014  03:55:00       -0.030       88.187       -5.586       31.529       49.107       34.905      994.107     2411.474     1218.362        0.622        0.231       88.187       23.458        0.071      334.884        5.152      857.922
11/13/2014  03:56:00        5.413       53.219       15.359       42.064       44.393       30.696     1769.344     1970.764      942.233        0.389        0.234       53.494       29.421        0.302      334.920        5.210      857.948
11/13/2014  03:57:00        5.328      201.172      -32.732       22.317       55.047       21.787      498.042     3030.141      474.669        2.279        0.200      201.243       17.722        0.008      334.834        5.066      857.954
11/13/2014  03:58:00       36.935       89.288       -7.628       45.368       63.341       27.735     2058.211     4012.021      769.222        0.812        0.342       96.626       31.857        0.109      334.829        5.058      857.921
11/13/2014  03:59:00       68.383       53.156       -3.185       60.881       32.903       24.766     3706.554     1082.622      613.372        0.646        0.270       86.613        9.594        0.012      334.843        5.083      857.919
11/13/2014  04:00:00       57.394      241.161      -37.559       62.199       93.416       46.913     3868.658     8726.512     2200.852        3.883        0.740      247.896       48.372        0.038      334.808        5.021      857.963
11/13/2014  04:01:00       70.557      207.335      -12.279       83.259      127.650       54.600     6932.044    16294.603     2981.181        3.716        1.310      219.011       60.556        0.076      334.820        5.043      858.012
11/13/2014  04:02:00      -31.074      187.305      -14.236       60.942       98.810       49.055     3713.932     9763.394     2406.432        2.606        0.794      189.865       54.525        0.082      334.907        5.186      858.086
11/13/2014  04:03:00        5.416      156.815       -3.524       61.909       94.276       47.395     3832.767     8888.023     2246.332        1.980        0.748      156.909       54.213        0.119      334.960        5.277      858.127
11/13/2014  04:04:00       39.273      142.880       -7.225       76.140      101.937       51.240     5797.230    10391.254     2625.565        2.041        0.941      148.179       56.886        0.147      334.940        5.243      858.111
11/13/2014  04:05:00       -2.239      249.179      -20.719       61.548      130.829       53.586     3788.110    17116.298     2871.435        4.315        1.189      249.189       59.835        0.058      334.946        5.253      858.054
11/13/2014  04:06:00        9.514      160.845        8.200      101.610      129.874       63.381    10324.676    16867.186     4017.102        2.861        1.560      161.126       74.754        0.215      335.000        5.342      857.996
11/13/2014  04:07:00      -69.153      241.769      -31.387       97.013      132.849       53.853     9411.455    17648.919     2900.164        4.708        1.498      251.465       51.655        0.042      335.010        5.358      858.105
11/13/2014  04:08:00      -89.228      327.615      -45.239       97.698      117.171       58.120     9544.899    13729.143     3377.966        7.199        1.333      339.548       63.535        0.035      335.078        5.472      858.281
11/13/2014  04:09:00       41.246      297.620      -32.091       75.239      140.637       63.238     5660.839    19778.761     3999.089        6.037        1.472      300.464       66.181        0.049      335.066        5.451      858.315
11/13/2014  04:10:00      146.425      142.344       29.458       89.090       97.542       77.088     7936.943     9514.479     5942.617        3.298        1.170      204.211       47.685        0.055      335.063        5.449      858.198
11/13/2014  04:11:00      234.722      199.625       26.580      171.547      120.907       75.365    29428.451    14618.548     5679.906        7.268        2.486      308.131       60.306        0.038      335.085        5.483      858.104
11/13/2014  04:12:00      160.155      124.432       16.806       97.437       69.719       73.173     9494.010     4860.690     5354.329        3.056        0.985      202.813       52.335        0.067      335.075        5.467      858.088
11/13/2014  04:13:00       44.217      309.410      -24.028      112.132      185.574       84.736    12573.663    34437.681     7180.119        7.622        2.710      312.553       87.797        0.079      335.094        5.498      858.063
11/13/2014  04:14:00      -45.499      425.178      -58.013      100.502      133.542       68.677    10100.731    17833.414     4716.506       10.942        1.633      427.605       68.003        0.025      335.113        5.530      858.102
11/13/2014  04:15:00       59.011      243.531      -12.278      125.749      176.529       76.267    15812.869    31162.415     5816.600        5.786        2.640      250.579       90.558        0.131      335.054        5.432      858.102
11/13/2014  04:16:00       87.072       79.193        8.585       67.454       64.287       59.402     4549.981     4132.863     3528.584        1.307        0.611      117.699       31.613        0.072      335.015        5.369      858.122
11/13/2014  04:17:00      111.537       79.965        9.162       67.741       44.529       45.433     4588.795     1982.800     2064.142        1.378        0.432      137.241       33.980        0.061      334.990        5.326      858.130
11/13/2014  04:18:00      101.280       26.038       14.811       53.383       39.375       24.882     2849.739     1550.394      619.113        0.809        0.251      104.573       22.473        0.046      334.973        5.300      858.138
11/13/2014  04:19:00       91.371       31.669       42.692       36.008       63.422       30.300     1296.564     4022.402      918.104        0.870        0.312       96.704       34.085        0.124      334.994        5.333      858.116
11/13/2014  04:20:00       64.739       81.203       21.586       52.025       50.677       52.001     2706.598     2568.168     2704.144        0.961        0.399      103.851       31.686        0.093      334.980        5.311      858.145
11/13/2014  04:21:00       23.073      232.947      -16.409       75.508      114.934       60.758     5701.407    13209.772     3691.541        3.883        1.130      234.087       59.467        0.065      334.977        5.303      858.198
11/13/2014  04:22:00       14.193      197.129      -29.333      100.788       99.629       47.473    10158.129     9926.021     2253.639        3.113        1.117      197.639       52.669        0.071      334.956        5.268      858.189
11/13/2014  04:23:00       30.445      357.366      -52.512       73.050      121.083       54.982     5336.295    14661.091     3022.977        7.720        1.151      358.660       57.317        0.026      334.903        5.180      858.190
11/13/2014  04:24:00      -79.264      407.873      -52.300       68.915      116.681       51.411     4749.282    13614.548     2643.104        9.819        1.050      415.503       58.165        0.020      334.904        5.181      858.223
11/13/2014  04:25:00      -38.580      224.219      -33.423       81.792       74.379       38.959     6689.964     5532.277     1517.811        3.331        0.687      227.514       32.710        0.021      335.011        5.358      858.249
11/13/2014  04:26:00      -75.974      347.962      -42.449       75.539       99.891       46.404     5706.170     9978.265     2153.323        7.324        0.892      356.160       45.583        0.016      334.924        5.214      858.194
11/13/2014  04:27:00      -96.415      215.163      -31.267       78.672       93.630       37.449     6189.339     8766.541     1402.405        3.646        0.818      235.777       40.469        0.029      334.951        5.259      858.226
11/13/2014  04:28:00      -68.057      195.672      -17.110       69.307      129.920       40.856     4803.416    16879.272     1669.183        3.328        1.168      207.170       50.118        0.059      334.919        5.207      858.244
11/13/2014  04:29:00     -166.355      230.326      -33.006      122.548       78.914       49.446    15017.928     6227.352     2444.939        5.275        1.185      284.120       49.760        0.031      334.893        5.162      858.269
11/13/2014  04:30:00     -113.144      234.913      -32.827       65.566       67.549       39.716     4298.914     4562.920     1577.375        3.975        0.522      260.740       27.245        0.011      334.869        5.123      858.295
11/13/2014  04:31:00     -128.179       63.984       -9.308       76.807       88.094       39.109     5899.320     7760.587     1529.490        1.790        0.759      143.262       36.241        0.064      334.928        5.223      858.353
11/13/2014  04:32:00     -218.426      -20.315      -13.306       92.482       61.919       43.126     8552.932     3834.008     1859.893        3.127        0.712      219.369       49.871        0.052      334.668        4.788      858.413
11/13/2014  04:33:00     -175.805      -17.748      -13.790       94.278       58.359       40.065     8888.264     3405.718     1605.214        2.265        0.695      176.699       51.469        0.085      334.612        4.697      858.431
11/13/2014  04:34:00     -222.179      -25.000       -8.930       94.588       64.887       41.712     8946.916     4210.367     1739.931        3.248        0.745      223.581       45.683        0.042      334.586        4.652      858.495
11/13/2014  04:35:00     -229.873       21.207      -27.775       54.500       61.232       27.064     2970.250     3749.374      732.477        3.076        0.373      230.849       24.557        0.011      334.561        4.610      858.569
11/13/2014  04:36:00      -77.730      -14.052        3.181       74.111       41.214       26.684     5492.387     1698.633      712.023        0.707        0.395       78.990       32.310        0.167      334.585        4.654      858.536
11/13/2014  04:37:00       18.738      -51.002        3.933       21.048       36.762       21.478      443.026     1351.421      461.291        0.261        0.113       54.335       11.757        0.047      334.626        4.723      858.471
11/13/2014  04:38:00      -12.349      -65.274       -3.875       54.050       37.933       21.195     2921.445     1438.890      449.228        0.462        0.240       66.431       12.925        0.038      334.534        4.571      858.477
11/13/2014  04:39:00      -54.210      -20.780       -2.366       35.495       63.339       26.965     1259.929     4011.793      727.120        0.469        0.300       58.057       22.987        0.157      334.429        4.394      858.522
11/13/2014  04:40:00       10.138       10.710       15.463       29.004       50.503       26.225      841.225     2550.534      687.733        0.227        0.204       14.748       19.455        1.740      334.470        4.464      858.513
11/13/2014  04:41:00       49.803      150.662      -28.847       58.774       53.767       27.491     3454.421     2890.840      755.757        1.655        0.355      158.680       26.879        0.029      334.508        4.525      858.416
11/13/2014  04:42:00       30.074      159.460      -23.194       39.709       56.046       31.754     1576.810     3141.109     1008.328        1.630        0.286      162.271       30.821        0.036      334.308        4.193      858.300
11/13/2014  04:43:00       19.165       76.498       -8.421       39.915       59.567       30.514     1593.220     3548.275      931.102        0.618        0.304       78.862       28.485        0.130      334.278        4.144      858.284
11/13/2014  04:44:00       80.100       50.302        9.430       43.153       26.890       26.598     1862.147      723.070      707.435        0.616        0.165       94.585       15.655        0.027      334.300        4.182      858.274
11/13/2014  04:45:00       16.341       33.912       -7.292       55.391       29.171       23.755     3068.194      850.933      564.290        0.298        0.224       37.644       21.160        0.316      334.259        4.112      858.377
11/13/2014  04:46:00      -26.066      -41.628       -5.270       27.978       21.158       19.186      782.787      447.676      368.118        0.202        0.080       49.116        7.059        0.021      334.376        4.309      858.501
11/13/2014  04:47:00      -34.792      -14.064        0.388       19.799       13.506       11.288      391.984      182.407      127.410        0.105        0.035       37.527        8.132        0.047      334.381        4.318      858.527
11/13/2014  04:48:00      -74.393       13.800       -8.108       31.782       17.835       13.032     1010.092      318.075      169.829        0.364        0.075       75.662       11.119        0.022      334.334        4.238      858.497
11/13/2014  04:49:00        1.543       58.028       -3.631       38.254       47.778       21.262     1463.395     2282.724      452.063        0.379        0.210       58.048       20.945        0.130      334.320        4.217      858.389
11/13/2014  04:50:00       29.080      123.497      -27.934       23.414       26.952       15.272      548.215      726.425      233.226        0.919        0.075      126.874       11.961        0.009      334.286        4.159      858.232
11/13/2014  04:51:00       48.713      108.999      -13.942       27.641       41.187       26.429      764.008     1696.384      698.468        0.880        0.158      119.389       23.548        0.039      334.304        4.189      858.108
11/13/2014  04:52:00       25.197       76.685       -6.283       31.241       38.583       24.941      975.980     1488.650      622.057        0.482        0.154       80.718       24.742        0.094      334.297        4.178      858.128
11/13/2014  04:53:00        3.977       85.251      -12.741       19.990       26.805       15.634      399.605      718.528      244.416        0.440        0.068       85.344       15.438        0.033      334.315        4.208      858.203
11/13/2014  04:54:00      -17.540       59.509       -2.901       33.626       25.203       19.399     1130.703      635.197      376.304        0.300        0.107       62.040       16.517        0.071      334.392        4.335      858.248
11/13/2014  04:55:00      -80.126       32.859      -16.483       20.171       18.926       12.792      406.882      358.204      163.640        0.435        0.046       86.602       11.373        0.017      334.381        4.316      858.272
11/13/2014  04:56:00      -90.303       41.174      -14.111       27.944       21.892       19.118      780.882      479.275      365.495        0.584        0.081       99.247       14.751        0.022      334.375        4.305      858.317
11/13/2014  04:57:00      -76.981       26.240      -16.329       24.692       40.313       17.214      609.672     1625.109      296.315        0.471        0.127       81.330       15.770        0.038      334.393        4.334      858.368
11/13/2014  04:58:00      -38.096      -23.920       -0.374       24.991       25.206       13.532      624.572      635.325      183.109        0.173        0.072       44.983       13.057        0.084      334.428        4.395      858.368
11/13/2014  04:59:00        3.925      -18.027        5.526       11.966       14.706       13.587      143.194      216.276      184.613        0.046        0.027       18.449        9.258        0.252      334.541        4.582      858.386
11/13/2014  05:00:00        4.569        6.202        4.974        8.674        5.124        6.447       75.238       26.251       41.568        0.011        0.007        7.703        4.459        0.335      334.487        4.492      858.415
11/13/2014  05:01:00       45.917       39.323        5.445       20.376       24.455       14.810      415.165      598.042      219.334        0.246        0.062       60.454       14.532        0.058      334.455        4.441      858.449
11/13/2014  05:02:00       52.665       60.523       -9.813       26.805       20.561       14.573      718.514      422.758      212.359        0.394        0.068       80.229       11.333        0.020      334.423        4.386      858.453
11/13/2014  05:03:00       59.503       54.274       13.764       33.245       23.095       22.717     1105.251      533.388      516.048        0.441        0.108       80.537        6.749        0.007      334.378        4.312      858.495
11/13/2014  05:04:00       48.496       48.667       34.663       32.845       28.184       25.578     1078.771      794.331      654.239        0.422        0.126       68.705       15.935        0.054      334.324        4.223      858.505
11/13/2014  05:05:00       83.233       53.132       37.682       31.826       17.579       21.952     1012.910      309.025      481.912        0.649        0.090       98.746       14.344        0.021      334.314        4.206      858.512
11/13/2014  05:06:00       61.621       29.017       20.117       32.618       29.286       27.360     1063.961      857.685      748.554        0.386        0.134       68.111       15.509        0.052      334.323        4.221      858.501
11/13/2014  05:07:00       67.406       41.638       25.119       34.502       23.667       22.471     1190.361      560.143      504.954        0.458        0.113       79.230       16.928        0.046      334.349        4.264      858.468
11/13/2014  05:08:00       88.187       65.550       40.375       43.436       26.030       31.639     1886.724      677.575     1001.028        0.863        0.178      109.881       28.892        0.069      334.348        4.262      858.423
11/13/2014  05:09:00       56.375       69.169       55.398       57.618       37.005       39.382     3319.884     1369.372     1550.922        0.863        0.312       89.233       34.830        0.152      334.335        4.239      858.376
11/13/2014  05:10:00       76.976       41.426       43.451       39.848       36.890       30.193     1587.855     1360.902      911.611        0.669        0.193       87.415       30.141        0.119      334.365        4.290      858.368
11/13/2014  05:11:00       89.646       19.956       34.707       40.871       33.526       33.518     1670.439     1124.008     1123.435        0.678        0.196       91.840       25.649        0.078      334.388        4.328      858.352
11/13/2014  05:12:00      125.483       56.194       27.183       69.308       42.769       40.004     4803.534     1829.217     1600.339        1.394        0.412      137.491       23.389        0.029      334.330        4.231      858.268
11/13/2014  05:13:00      149.989      107.312       25.375       65.366       40.024       44.747     4272.709     1601.891     2002.263        2.127        0.394      184.425       40.567        0.048      334.259        4.111      858.216
11/13/2014  05:14:00      140.479       83.762       16.928       44.016       43.326       37.753     1937.384     1877.175     1425.257        1.614        0.262      163.556       28.505        0.030      334.135        3.907      858.215
11/13/2014  05:15:00       11.258       10.727       19.531       51.032       34.817       24.075     2604.294     1212.218      579.584        0.251        0.220       15.550       14.939        0.923      334.138        3.912      858.290
11/13/2014  05:16:00       -2.559       -7.912       21.196       11.095       19.014       14.621      123.109      361.524      213.780        0.061        0.035        8.315       10.315        1.539      334.238        4.080      858.371
11/13/2014  05:17:00       21.116       13.459       11.523       29.793       14.075       12.912      887.636      198.116      166.711        0.101        0.063       25.041       10.731        0.184      334.221        4.053      858.419
11/13/2014  05:18:00       60.945       26.538        7.818       12.542       27.540       17.496      157.295      758.468      306.109        0.285        0.061       66.472        6.549        0.010      334.260        4.115      858.430
11/13/2014  05:19:00       61.895       47.257       12.260       17.167       17.208       14.864      294.693      296.104      220.943        0.351        0.041       77.873        9.740        0.016      334.219        4.046      858.423
11/13/2014  05:20:00       53.111       42.271       -2.137       25.670       14.750       15.533      658.955      217.558      241.259        0.286        0.056       67.879       11.140        0.027      334.233        4.070      858.406
11/13/2014  05:21:00       32.307       47.514        0.274       20.719       18.794       16.110      429.257      353.219      259.524        0.217        0.052       57.457       12.487        0.047      334.222        4.052      858.409
11/13/2014  05:22:00       38.185       67.649       -5.422       16.243       23.261       19.185      263.829      541.073      368.074        0.362        0.059       77.682       16.375        0.044      334.239        4.080      858.392
11/13/2014  05:23:00       43.327       63.437       -7.164       19.615       32.333       20.864      384.767     1045.404      435.320        0.391        0.093       76.821       18.968        0.061      334.261        4.119      858.389
11/13/2014  05:24:00       -1.830       42.150      -15.989       20.125       24.633        7.728      405.021      606.773       59.729        0.155        0.054       42.190        6.352        0.023      334.292        4.170      858.487
11/13/2014  05:25:00     -126.933      -26.065      -17.187       46.443       28.104       16.487     2156.976      789.816      271.834        1.015        0.161      129.581       14.556        0.013      334.314        4.205      858.616
11/13/2014  05:26:00     -118.685      -58.104       -5.404       42.444       26.774       21.910     1801.481      716.829      480.054        1.024        0.150      132.145       21.497        0.026      334.383        4.321      858.684
11/13/2014  05:27:00     -100.700      -67.871       -5.340       23.974       23.153       17.141      574.731      536.046      293.822        0.809        0.070      121.437       11.319        0.009      334.401        4.350      858.686
11/13/2014  05:28:00      -73.217      -62.449       -3.127       25.099       24.414       13.220      629.982      596.022      174.766        0.534        0.070       96.232        9.507        0.010      334.496        4.506      858.673
11/13/2014  05:29:00      -86.270      -74.161       -3.748       43.224       27.751       20.909     1868.280      770.103      437.170        0.802        0.154      113.764       20.535        0.033      334.476        4.475      858.676
11/13/2014  05:30:00     -121.815      -60.061        0.618       39.734       36.340       21.336     1578.775     1320.569      455.243        1.090        0.168      135.817       22.272        0.027      334.460        4.448      858.635
11/13/2014  05:31:00     -133.627      -38.209       -1.805       47.439       53.299       23.262     2250.498     2840.807      541.122        1.247        0.282      138.982       26.403        0.036      334.472        4.467      858.610
11/13/2014  05:32:00     -149.230      -28.424       -1.929       50.143       33.726       23.990     2514.335     1137.459      575.526        1.365        0.211      151.913       19.018        0.016      334.452        4.435      858.630
11/13/2014  05:33:00      -26.510      -41.048       11.764       57.333       42.923       17.162     3287.100     1842.355      294.521        0.397        0.271       48.865       14.399        0.087      334.503        4.520      858.644
11/13/2014  05:34:00       -9.446      -38.383        7.960        9.791       21.947       10.827       95.863      481.692      117.214        0.116        0.035       39.528        6.990        0.031      334.490        4.496      858.632
11/13/2014  05:35:00      -35.062      -17.442       -2.174       14.847       22.809        9.184      220.434      520.248       84.352        0.118        0.041       39.161        2.772        0.005      334.421        4.386      858.623
11/13/2014  05:36:00     -140.798      -56.874       -5.973       49.537       52.816       24.146     2453.918     2789.495      583.012        1.446        0.291      151.851       21.840        0.021      334.449        4.428      858.649
11/13/2014  05:37:00     -126.459      -50.486       -1.832       38.247       50.837       24.198     1462.806     2584.445      585.562        1.159        0.232      136.165       18.596        0.019      334.436        4.407      858.688
11/13/2014  05:38:00     -113.462      -44.415       -7.845       59.109       39.136       29.366     3493.875     1531.612      862.372        1.040        0.294      121.846       32.125        0.070      334.363        4.286      858.703
11/13/2014  05:39:00      -93.471      -12.545      -10.351       26.140       41.973       19.776      683.301     1761.748      391.109        0.592        0.142       94.309       13.922        0.022      334.280        4.148      858.688
11/13/2014  05:40:00     -101.542       26.627       -7.232       31.721       23.508       11.838     1006.242      552.628      140.138        0.639        0.085      104.975        7.165        0.005      334.158        3.946      858.665
11/13/2014  05:41:00      -81.449      -26.325       -8.389       26.777       23.119       13.007      717.028      534.505      169.194        0.441        0.071       85.598        8.375        0.010      334.159        3.948      858.631
11/13/2014  05:42:00     -136.911      -15.123      -13.517       26.842       24.444       17.968      720.476      597.500      322.839        1.040        0.082      137.744       16.785        0.015      334.171        3.968      858.629
11/13/2014  05:43:00     -155.747      -30.530       -8.782       32.783       36.079       20.481     1074.720     1301.695      419.468        1.403        0.140      158.711       17.997        0.013      334.020        3.716      858.679
11/13/2014  05:44:00     -135.880      -39.621       -5.078       57.573       26.052       22.619     3314.699      678.687      511.627        1.228        0.225      141.538       24.699        0.030      334.036        3.744      858.775
11/13/2014  05:45:00      -81.804      -53.141       -2.024       44.859       35.269       24.271     2012.332     1243.904      589.070        0.668        0.192       97.549       20.588        0.045      333.953        3.606      858.851
11/13/2014  05:46:00      -93.147      -83.231       -7.394       48.119       35.823       27.142     2315.395     1283.298      736.706        1.000        0.217      124.915       15.525        0.015      333.929        3.568      858.896
11/13/2014  05:47:00     -131.654      -47.494       -3.323       50.493       34.328       29.658     2549.533     1178.407      879.611        1.210        0.230      139.959       29.139        0.043      333.888        3.497      858.931
11/13/2014  05:48:00     -163.215      -65.705       -9.974       37.902       40.433       24.467     1436.580     1634.840      598.632        1.736        0.184      175.944       17.918        0.010      333.869        3.465      858.944
11/13/2014  05:49:00     -111.468      -50.956       -0.633       58.463       52.398       29.647     3417.959     2745.567      878.915        1.103        0.352      122.563       18.193        0.022      333.921        3.553      858.950
11/13/2014  05:50:00     -160.709      -34.486       -2.440       59.801       64.653       26.168     3576.162     4179.985      684.750        1.773        0.422      164.368       26.919        0.027      333.802        3.354      858.936
11/13/2014  05:51:00     -198.968       -3.666      -22.952       38.262       30.514       19.522     1463.950      931.132      381.105        2.145        0.139      199.002       17.740        0.008      333.770        3.301      858.903
11/13/2014  05:52:00     -127.879      -26.652       -8.029       47.343       31.087       24.006     2241.315      966.388      576.271        1.046        0.189      130.627       21.400        0.027      333.771        3.305      858.898
11/13/2014  05:53:00      -91.544      -46.199       -0.159       43.960       35.400       23.926     1932.510     1253.161      572.476        0.714        0.188      102.541       20.123        0.039      333.829        3.400      858.909
11/13/2014  05:54:00     -114.407      -75.811       -0.894       61.174       39.101       25.213     3742.261     1528.924      635.682        1.237        0.295      137.245       28.809        0.044      333.817        3.380      858.928
11/13/2014  05:55:00      -91.212      -94.067        2.864       70.030       49.953       31.657     4904.267     2495.341     1002.155        1.279        0.420      131.027       37.919        0.084      333.889        3.500      858.914
11/13/2014  05:56:00     -110.974      -86.668        3.796       75.300       51.305       32.839     5670.063     2632.163     1078.370        1.461        0.469      140.806       39.708        0.080      333.847        3.430      858.895
11/13/2014  05:57:00      -47.222     -107.179       -0.364       49.974       59.149       34.316     2497.377     3498.663     1177.557        1.044        0.359      117.121       28.559        0.059      333.883        3.491      858.889
11/13/2014  05:58:00      -64.972      -90.841       -5.026       68.160       49.319       23.043     4645.788     2432.388      530.980        1.005        0.380      111.684       18.779        0.028      333.881        3.486      858.874
11/13/2014  05:59:00      -72.838      -97.551       -1.165       44.382       52.781       28.725     1969.769     2785.816      825.121        1.020        0.279      121.744       20.773        0.029      333.922        3.555      858.876
11/13/2014  06:00:00      -95.330      -95.991        3.088       67.275       42.741       32.332     4525.953     1826.766     1045.343        1.285        0.370      135.286       30.558        0.051      333.905        3.527      858.888
11/13/2014  06:01:00      -82.366     -112.944        4.769       44.748       64.124       34.276     2002.340     4111.826     1174.854        1.342        0.364      139.787       32.970        0.056      333.906        3.528      858.907
11/13/2014  06:02:00      -87.504      -95.930       -2.164       60.461       49.169       31.948     3655.588     2417.562     1020.694        1.198        0.355      129.844       28.125        0.047      333.893        3.507      858.941
11/13/2014  06:03:00     -100.464     -106.254       -2.379       47.769       53.895       32.091     2281.849     2904.689     1029.862        1.380        0.311      146.229       26.854        0.034      333.866        3.462      858.971
11/13/2014  06:04:00     -126.120     -127.411       -2.506       69.799       76.632       40.138     4871.961     5872.526     1611.026        2.225        0.618      179.276       43.617        0.059      333.823        3.389      859.003
11/13/2014  06:05:00     -107.683      -92.558       12.683       75.071       53.198       39.872     5635.600     2830.064     1589.803        1.519        0.503      141.995       37.435        0.070      333.803        3.356      859.022
11/13/2014  06:06:00      -97.729     -141.561       -5.427       57.887       59.838       24.753     3350.872     3580.583      612.696        1.858        0.377      172.018       18.432        0.011      333.780        3.318      859.012
11/13/2014  06:07:00     -157.763     -102.521        1.222       76.892       48.732       30.118     5912.435     2374.768      907.111        2.230        0.460      188.148       21.934        0.014      333.750        3.267      858.977
11/13/2014  06:08:00      -72.462      -48.805        8.472       63.269       52.869       32.109     4002.921     2795.152     1030.971        0.777        0.391       87.365       22.640        0.067      333.804        3.360      858.924
11/13/2014  06:09:00     -120.860      -75.814        1.633       73.154       56.636       37.403     5351.437     3207.658     1398.997        1.516        0.498      142.671       29.888        0.044      333.769        3.300      858.884
11/13/2014  06:10:00      -57.482     -114.803        7.022       64.812       59.776       34.472     4200.573     3573.160     1188.341        1.275        0.448      128.390       32.566        0.064      333.817        3.379      858.825
11/13/2014  06:11:00      -48.452     -201.786       -3.784       48.100       58.544       26.770     2313.638     3427.447      716.645        2.477        0.323      207.521       24.594        0.014      333.736        3.243      858.750
11/13/2014  06:12:00      -28.201      -50.452       13.267       42.779       36.882       24.267     1830.034     1360.292      588.884        0.365        0.189       57.799       22.529        0.152      333.846        3.428      858.670
11/13/2014  06:13:00      -44.487      -15.107       -3.317       26.140       42.438       19.569      683.322     1801.003      382.938        0.254        0.143       46.982       21.487        0.209      333.876        3.477      858.648
11/13/2014  06:14:00      -49.734      -51.131       -7.413       39.205       40.077       25.660     1537.012     1606.140      658.424        0.447        0.190       71.329       17.584        0.061      333.915        3.544      858.666
11/13/2014  06:15:00      -28.235      -32.167        9.748       37.097       31.474       31.453     1376.159      990.614      989.277        0.264        0.168       42.801       25.244        0.348      333.890        3.503      858.708
11/13/2014  06:16:00      -44.761      -39.415        7.941       45.241       31.503       24.329     2046.708      992.446      591.921        0.362        0.182       59.641       21.792        0.134      333.890        3.502      858.755
11/13/2014  06:17:00      -86.901     -116.774        2.556       81.195       53.537       36.936     6592.625     2866.249     1364.260        1.601        0.541      145.560       36.304        0.062      333.726        3.229      858.761
11/13/2014  06:18:00      -23.971      -63.198        6.743       50.620       41.227       28.999     2562.423     1699.664      840.926        0.486        0.255       67.591       21.420        0.100      333.772        3.306      858.753
11/13/2014  06:19:00      -97.339      -86.532       -5.748       62.488       47.425       34.136     3904.702     2249.171     1165.285        1.216        0.366      130.241       25.245        0.038      333.752        3.272      858.773
11/13/2014  06:20:00      -40.011     -140.081        6.834       64.858       85.845       37.289     4206.620     7369.312     1390.449        1.712        0.648      145.683       29.487        0.041      333.768        3.297      858.802
11/13/2014  06:21:00      -71.156      -20.302       21.693       52.105       54.107       38.411     2714.978     2927.539     1475.408        0.653        0.356       73.996       32.306        0.191      333.791        3.338      858.787
11/13/2014  06:22:00      -53.515      -29.504        6.100       33.779       34.905       19.079     1141.042     1218.334      363.990        0.325        0.136       61.109       18.729        0.094      333.784        3.325      858.777
11/13/2014  06:23:00      -47.389      -27.455        1.187       36.139       31.124       17.846     1306.048      968.700      318.489        0.280        0.130       54.767       15.528        0.080      333.792        3.341      858.751
11/13/2014  06:24:00      -47.726      -49.149       -2.814       42.077       31.086       25.205     1770.438      966.321      635.303        0.404        0.169       68.508       16.392        0.057      333.802        3.357      858.757
11/13/2014  06:25:00      -22.958      -42.570        2.597       41.363       31.255       21.142     1710.912      976.881      446.988        0.274        0.157       48.366       18.053        0.139      333.858        3.449      858.785
11/13/2014  06:26:00      -41.762      -46.259       -9.042       27.169       36.041       21.598      738.144     1298.923      466.458        0.323        0.125       62.322        6.811        0.012      333.920        3.553      858.768
11/13/2014  06:27:00       -9.074      -57.176       -2.109       43.449       36.884       27.198     1887.787     1360.462      739.714        0.367        0.199       57.891       21.891        0.143      333.953        3.607      858.748
11/13/2014  06:28:00       -8.291      -52.156       -5.084       39.279       35.294       21.770     1542.828     1245.656      473.914        0.304        0.163       52.811       14.763        0.078      333.944        3.592      858.731
11/13/2014  06:29:00      -18.811      -34.053       -5.666       34.688       20.117       15.328     1203.261      404.681      234.941        0.169        0.092       38.903       14.423        0.137      333.992        3.673      858.739
11/13/2014  06:30:00      -47.400      -36.951        3.923       45.057       26.460       20.801     2030.112      700.140      432.691        0.339        0.158       60.101       18.518        0.095      333.904        3.526      858.762
11/13/2014  06:31:00      -50.161      -22.345        9.744       41.008       32.104       23.404     1681.663     1030.652      547.746        0.318        0.163       54.913       21.387        0.152      333.871        3.470      858.779
11/13/2014  06:32:00       -4.226      -77.843        3.720       56.637       37.388       33.125     3207.742     1397.881     1097.245        0.590        0.285       77.957       26.426        0.115      333.924        3.558      858.769
11/13/2014  06:33:00      -65.328     -136.549        6.694       65.036       68.019       33.784     4229.627     4626.543     1141.388        1.648        0.500      151.372       33.418        0.049      333.879        3.483      858.719
11/13/2014  06:34:00     -111.199      -73.717       -2.039       56.620       53.971       34.126     3205.790     2912.826     1164.557        1.254        0.364      133.414       25.204        0.036      333.878        3.482      858.693
11/13/2014  06:35:00      -56.598      -80.951        2.580       46.490       53.792       30.127     2161.345     2893.588      907.612        0.786        0.298       98.775       23.779        0.058      333.916        3.546      858.709
11/13/2014  06:36:00      -58.975      -77.586        8.187       76.520       67.804       28.539     5855.322     4597.404      814.465        1.041        0.563       97.456       25.031        0.066      333.908        3.532      858.742
11/13/2014  06:37:00     -171.981      -54.424       -4.064       72.529       46.440       27.897     5260.427     2156.661      778.240        2.037        0.410      180.386       27.202        0.023      333.833        3.405      858.743
11/13/2014  06:38:00     -135.236     -120.823       -3.294       56.448       59.582       39.351     3186.422     3549.986     1548.539        2.059        0.414      181.348       33.572        0.034      333.847        3.429      858.752
11/13/2014  06:39:00     -146.553     -121.291        4.985       66.596       55.084       33.610     4435.007     3034.217     1129.609        2.240        0.430      190.234       31.182        0.027      333.846        3.428      858.779
11/13/2014  06:40:00     -141.354     -108.458       -9.804       63.722       53.855       33.642     4060.482     2900.346     1131.779        1.996        0.405      178.169       19.144        0.012      333.837        3.413      858.803
11/13/2014  06:41:00     -138.471     -130.554      -13.218       52.344       75.010       36.784     2739.874     5626.446     1353.096        2.305        0.486      190.312       37.920        0.040      333.831        3.400      858.811
11/13/2014  06:42:00     -128.099      -99.004       -0.782       64.003       69.867       36.620     4096.351     4881.368     1340.989        1.826        0.516      161.899       38.524        0.057      333.811        3.368      858.815
11/13/2014  06:43:00     -118.501      -38.162       -8.194       75.209       63.760       31.405     5656.394     4065.309      986.268        1.313        0.535      124.494       42.823        0.118      333.817        3.380      858.807
11/13/2014  06:44:00      -84.245      -57.627        1.589       54.861       30.766       27.230     3009.730      946.563      741.466        0.756        0.235      102.069       31.459        0.095      333.839        3.417      858.786
11/13/2014  06:45:00      -91.783      -28.365        1.821       59.585       43.644       26.935     3550.417     1904.791      725.520        0.771        0.309       96.066       25.346        0.070      333.759        3.284      858.756
11/13/2014  06:46:00     -166.514      -47.102        0.356       91.630       58.894       37.771     8396.086     3468.500     1426.673        2.162        0.665      173.048       43.135        0.062      333.708        3.197      858.745
11/13/2014  06:47:00     -120.064      -51.151       -0.050       73.861       47.621       32.133     5455.388     2267.749     1032.503        1.289        0.438      130.506       37.228        0.081      333.690        3.170      858.717
11/13/2014  06:48:00      -27.029      -10.235       16.323       34.608       27.632       19.939     1197.679      763.536      397.555        0.173        0.118       28.902       16.326        0.319      333.746        3.262      858.679
11/13/2014  06:49:00     -113.384      -66.518       -4.231       41.778       39.071       28.234     1745.441     1526.506      797.143        1.068        0.203      131.455       18.316        0.019      333.722        3.223      858.707
11/13/2014  06:50:00      -76.108      -18.321        9.513       59.732       34.651       25.510     3567.932     1200.661      650.765        0.582        0.271       78.282       30.820        0.155      333.652        3.108      858.724
11/13/2014  06:51:00      -98.919      -69.649       -3.895       49.694       36.102       25.452     2469.540     1303.365      647.790        0.953        0.221      120.979       26.755        0.049      333.652        3.106      858.714
11/13/2014  06:52:00      -99.418      -53.072        0.648       47.038       56.214       21.531     2212.586     3160.053      463.569        0.927        0.292      112.697       20.416        0.033      333.681        3.155      858.692
11/13/2014  06:53:00      -76.395      -43.251       -5.584       35.978       31.352       18.295     1294.427      982.973      334.719        0.517        0.131       87.789       18.626        0.045      333.627        3.066      858.632
11/13/2014  06:54:00      -72.427      -94.260        1.408       65.950       28.974       21.227     4349.375      839.511      450.592        0.988        0.282      118.873       17.504        0.022      333.663        3.127      858.579
11/13/2014  06:55:00      -22.041      -32.814       -7.034       13.724       27.828       12.732      188.341      774.416      162.108        0.137        0.056       39.529        9.447        0.057      333.742        3.257      858.519
11/13/2014  06:56:00      -36.999      -36.331        5.671       28.099       34.059       21.189      789.555     1160.033      448.995        0.256        0.120       51.854       18.594        0.129      333.875        3.479      858.535
11/13/2014  06:57:00       16.602      -33.856        7.998       21.739       37.488       21.418      472.585     1405.332      458.731        0.191        0.117       37.707       25.696        0.464      333.842        3.422      858.583
11/13/2014  06:58:00       69.784       54.091       20.618       26.562       17.579       23.155      705.523      309.034      536.160        0.489        0.078       88.293       13.914        0.025      333.637        3.082      858.582
11/13/2014  06:59:00       45.248       38.753       12.954       21.307       16.433       15.226      453.971      270.046      231.846        0.234        0.048       59.575       11.728        0.039      333.547        2.932      858.636
11/13/2014  07:00:00       20.998       22.326        2.822       22.722       13.636        9.888      516.273      185.940       97.781        0.087        0.040       30.649        5.475        0.032      333.533        2.911      858.688
11/13/2014  07:01:00       26.716       27.852       17.969       32.984       24.011       12.437     1087.958      576.506      154.685        0.182        0.091       38.594        9.714        0.063      333.550        2.937      858.710
11/13/2014  07:02:00      -52.174       -2.383       -3.258       17.409       16.047       11.006      303.082      257.520      121.123        0.171        0.034       52.229        4.111        0.006      333.611        3.038      858.749
11/13/2014  07:03:00      -60.095      -20.152       -4.724       52.173       20.060       19.524     2721.973      402.399      381.206        0.377        0.175       63.384       22.181        0.122      333.754        3.276      858.773
11/13/2014  07:04:00     -104.735      -21.869       -0.511       35.846       30.773       22.627     1284.935      947.006      511.970        0.710        0.137      106.994       17.629        0.027      333.796        3.345      858.762
11/13/2014  07:05:00      -83.953       19.976      -10.114       25.027       26.645       12.700      626.357      709.946      161.300        0.452        0.075       86.297        8.986        0.011      333.795        3.343      858.660
11/13/2014  07:06:00     -142.141       14.241       -9.706       49.947       28.722       15.497     2494.703      824.928      240.169        1.203        0.178      142.852       11.478        0.006      333.754        3.275      858.643
11/13/2014  07:07:00      -92.153      -65.973       11.466      104.441       50.920       31.537    10907.847     2592.845      994.554        1.373        0.725      113.334       50.141        0.196      333.751        3.269      858.712
11/13/2014  07:08:00       74.738       69.104       35.052       51.007       39.385       38.921     2601.743     1551.173     1514.869        0.863        0.283      101.790       27.854        0.075      333.815        3.378      858.556
11/13/2014  07:09:00      -55.604       -4.344       -2.387       56.208       33.744       22.779     3159.338     1138.687      518.890        0.397        0.241       55.774       26.149        0.220      333.782        3.322      858.597
11/13/2014  07:10:00     -133.383      -73.534      -15.531       86.858       49.381       31.809     7544.233     2438.514     1011.838        1.721        0.550      152.310       32.591        0.046      333.843        3.423      858.741
11/13/2014  07:11:00       48.424       44.170       16.968       76.751       46.962       24.051     5890.661     2205.413      578.455        0.663        0.434       65.543       21.359        0.106      333.769        3.301      858.664
11/13/2014  07:12:00       46.044       25.126        0.220       70.974       38.401       26.271     5037.273     1474.650      690.159        0.498        0.360       52.453       19.086        0.132      333.691        3.172      858.487
11/13/2014  07:13:00       -6.338       -0.775       -1.815       40.409       27.402       17.856     1632.875      750.860      318.840        0.137        0.135        6.385       14.726        5.319      333.682        3.157      858.544
11/13/2014  07:14:00      -48.504       -0.520       -1.623       32.861       16.544       12.096     1079.871      273.710      146.306        0.193        0.075       48.507        7.269        0.022      333.664        3.128      858.645
11/13/2014  07:15:00       93.036       63.222       22.900       57.206       29.319       23.501     3272.471      859.576      552.304        0.893        0.234      112.485        6.471        0.003      333.689        3.167      858.643
11/13/2014  07:16:00      128.668       69.914       17.024       48.409       34.036       25.817     2343.463     1158.422      666.510        1.295        0.208      146.435       26.016        0.032      333.674        3.142      858.628
11/13/2014  07:17:00      -11.678      -37.593        4.755       24.778       46.252       24.332      613.945     2139.271      592.049        0.246        0.167       39.365       29.324        0.555      333.818        3.383      858.721
11/13/2014  07:18:00        6.309      -19.029       13.170       28.887       28.559       21.661      834.483      815.600      469.206        0.135        0.106       20.048       19.374        0.934      333.882        3.489      858.809
11/13/2014  07:19:00        9.614       49.356       68.783       29.758       35.669       26.353      885.538     1272.298      694.493        0.506        0.143       50.283       25.950        0.266      333.896        3.512      858.798
11/13/2014  07:20:00       38.389      -26.072       24.482       31.560       37.959       36.793      996.049     1440.849     1353.739        0.327        0.190       46.405       31.578        0.463      333.886        3.495      858.818
11/13/2014  07:21:00      -21.608      -25.925       -0.672       20.014       38.415       15.621      400.552     1475.737      244.010        0.163        0.106       33.749       19.749        0.342      333.978        3.648      858.867
11/13/2014  07:22:00       -1.371        2.339       11.589       19.023       10.634       19.747      361.865      113.092      389.950        0.050        0.043        2.711       15.256       31.670      333.912        3.538      858.860
11/13/2014  07:23:00        7.372       50.397       65.491       20.886       46.121       31.552      436.207     2127.145      995.525        0.522        0.178       50.933       35.101        0.475      333.900        3.517      858.842
11/13/2014  07:24:00       91.808      121.492       79.419       70.416       42.727       38.649     4958.381     1825.614     1493.713        1.889        0.414      152.279       38.618        0.064      333.857        3.446      858.774
11/13/2014  07:25:00       85.871       44.146       46.520       74.178       37.605       33.125     5502.384     1414.109     1097.248        0.975        0.401       96.554       23.452        0.059      333.698        3.183      858.761
11/13/2014  07:26:00      -10.206        6.511        5.506       10.445       26.443       14.287      109.092      699.237      204.119        0.059        0.051       12.107       14.667        1.468      333.660        3.122      858.867
11/13/2014  07:27:00       47.240       52.398        0.927       32.620       17.043       16.402     1064.065      290.448      269.039        0.330        0.081       70.549       11.977        0.029      333.695        3.177      858.896
11/13/2014  07:28:00      125.337       78.520       14.279       38.981       26.129       30.461     1519.528      682.715      927.868        1.260        0.157      147.901       16.908        0.013      333.645        3.095      858.840
11/13/2014  07:29:00       43.660       54.435       51.133       49.312       29.281       22.293     2431.654      857.363      497.000        0.563        0.189       69.781       21.892        0.098      333.698        3.184      858.866
11/13/2014  07:30:00       -2.366       15.271       31.287       12.068       29.672       16.364      145.647      880.448      267.787        0.126        0.065       15.453       20.014        1.678      333.798        3.350      858.974
11/13/2014  07:31:00       18.988       27.456       33.322       27.971       16.368       14.280      782.363      267.899      203.924        0.174        0.063       33.382       16.229        0.236      333.748        3.265      859.082
11/13/2014  07:32:00       87.786       61.737       22.408       17.575       17.649       17.810      308.867      311.474      317.203        0.648        0.047      107.321       14.245        0.018      333.651        3.105      859.089
11/13/2014  07:33:00      129.352       69.781        7.824       21.131       19.535       18.054      446.522      381.620      325.936        1.141        0.058      146.974       15.258        0.011      333.614        3.045      859.057
11/13/2014  07:34:00       98.860       56.221       16.607       25.381       23.724       22.220      644.180      562.829      493.709        0.745        0.085      113.728       16.387        0.021      333.684        3.159      859.053
11/13/2014  07:35:00       59.603       40.038        8.437       16.311       19.761       16.826      266.058      390.511      283.105        0.308        0.047       71.802        9.918        0.019      333.659        3.118      859.056
11/13/2014  07:36:00       42.204       33.673       -3.564       17.076       17.541        9.891      291.596      307.697       97.823        0.181        0.035       53.991        5.605        0.011      333.672        3.141      859.099
11/13/2014  07:37:00       23.454       33.623        9.851       12.380        9.284        9.648      153.261       86.200       93.080        0.106        0.017       40.995        5.522        0.018      333.708        3.199      859.133
11/13/2014  07:38:00       36.573       48.040       24.896       14.133        9.871       20.619      199.728       97.436      425.140        0.249        0.036       60.377       10.447        0.030      333.713        3.208      859.123
11/13/2014  07:39:00       68.955       52.448       38.450       28.132       16.230       21.968      791.386      263.408      482.605        0.526        0.077       86.634       15.382        0.032      333.750        3.269      859.118
11/13/2014  07:40:00       40.771       30.797       13.791       22.020       27.341       28.040      484.876      747.541      786.226        0.241        0.101       51.095       16.770        0.108      333.756        3.281      859.155
11/13/2014  07:41:00       20.014       39.212       -7.873       15.750       16.102        8.768      248.057      259.263       76.877        0.129        0.029       44.025        5.135        0.014      333.737        3.248      859.206
11/13/2014  07:42:00       12.054      106.296      -17.848       15.549       29.858       12.177      241.763      891.474      148.285        0.652        0.064      106.977       13.706        0.016      333.753        3.274      859.204
11/13/2014  07:43:00       32.278      108.040      -17.262       27.364       47.761       24.399      748.790     2281.068      595.321        0.832        0.181      112.758       23.774        0.044      333.769        3.302      859.178
11/13/2014  07:44:00       15.545       63.381       -9.603       33.122       30.988       18.370     1097.089      960.250      337.469        0.337        0.120       65.259       12.253        0.035      333.847        3.431      859.174
11/13/2014  07:45:00        6.497      113.997      -23.917       17.969       18.423        9.864      322.871      339.404       97.306        0.718        0.038      114.182        2.022        0.000      333.789        3.333      859.202
11/13/2014  07:46:00       12.781      112.484       -8.630       13.816       17.876       13.634      190.892      319.545      185.888        0.679        0.035      113.208       10.524        0.009      333.823        3.390      859.210
11/13/2014  07:47:00       20.620       95.202      -10.335       20.115       23.290       20.486      404.625      542.417      419.657        0.548        0.068       97.410       16.232        0.028      333.874        3.475      859.186
11/13/2014  07:48:00       20.760      107.285      -20.087       21.101       20.968       15.590      445.261      439.662      243.046        0.674        0.056      109.275       12.907        0.014      333.914        3.544      859.196
11/13/2014  07:49:00        3.126       83.452       -9.297       15.190       33.853       20.054      230.722     1146.010      402.163        0.442        0.089       83.511       18.946        0.051      334.020        3.716      859.212
11/13/2014  07:50:00      -12.405       41.941        4.808       23.603       28.830       16.852      557.082      831.185      283.979        0.180        0.084       43.737       14.718        0.113      334.160        3.949      859.227
11/13/2014  07:51:00      -16.638       -5.112        4.184       24.853       14.288       11.107      617.658      204.147      123.364        0.063        0.047       17.405        9.770        0.315      334.284        4.156      859.230
11/13/2014  07:52:00       56.172       31.463       13.847       26.377       17.292       18.618      695.734      299.003      346.638        0.284        0.067       64.384       17.528        0.074      334.157        3.945      859.213
11/13/2014  07:53:00      142.500       88.558       -4.622       25.681       19.742       25.718      659.497      389.731      661.405        1.494        0.086      167.776       11.215        0.004      334.107        3.861      859.170
11/13/2014  07:54:00      100.179       45.904        4.340       43.900       35.147       30.194     1927.209     1235.284      911.677        0.812        0.204      110.196       24.936        0.051      334.059        3.781      859.155
11/13/2014  07:55:00       67.623       54.118       15.257       21.783       19.505       20.936      474.502      380.450      438.312        0.451        0.065       86.612       11.260        0.017      334.023        3.723      859.171
11/13/2014  07:56:00       57.914       38.355        1.450       18.270       23.166       18.663      333.775      536.670      348.297        0.302        0.061       69.463       11.982        0.030      334.025        3.726      859.179
11/13/2014  07:57:00       83.037       66.827        3.933       20.475       24.852       16.844      419.212      617.611      283.704        0.635        0.066      106.588       11.613        0.012      334.042        3.753      859.183
11/13/2014  07:58:00       54.511       61.667       37.925       48.996       38.157       37.630     2400.591     1455.964     1415.980        0.674        0.264       82.305       33.291        0.164      334.174        3.971      859.175
11/13/2014  07:59:00       30.432      105.841       90.220       40.943       35.240       27.392     1676.333     1241.853      750.312        1.197        0.183      110.129       22.091        0.040      334.095        3.841      859.195
11/13/2014  08:00:00       67.119       61.064       42.129       25.924       18.672       19.281      672.046      348.649      371.755        0.570        0.070       90.740       17.212        0.036      334.022        3.721      859.235
11/13/2014  08:01:00       12.938        4.348       38.690       25.941       47.227       18.809      672.941     2230.357      353.766        0.247        0.163       13.649       21.641        2.514      334.259        4.115      859.259
11/13/2014  08:02:00       44.899       63.240       35.229       46.646       25.852       35.772     2175.894      668.306     1279.606        0.569        0.206       77.558       30.545        0.155      334.222        4.052      859.262
11/13/2014  08:03:00       76.905       49.758        0.829       42.978       33.828       20.990     1847.134     1144.325      440.597        0.591        0.172       91.599       22.276        0.059      334.057        3.777      859.278
11/13/2014  08:04:00       57.281       23.636       18.578       29.042       25.706       20.296      843.411      660.785      411.921        0.305        0.096       61.966       11.287        0.033      334.169        3.965      859.327
11/13/2014  08:05:00       33.788        2.969       20.502       23.779       15.262       20.237      565.424      232.935      409.540        0.139        0.060       33.918       15.021        0.196      334.186        3.993      859.384
11/13/2014  08:06:00       78.541       57.737       16.183       31.359       36.107       25.197      983.408     1303.716      634.876        0.634        0.146       97.480       24.244        0.062      334.148        3.930      859.395
11/13/2014  08:07:00      123.843       91.008        3.765       31.585       27.316       23.443      997.611      746.145      549.594        1.296        0.115      153.687       12.174        0.006      334.083        3.823      859.360
11/13/2014  08:08:00      117.421       62.108       13.719       53.841       33.984       24.125     2898.891     1154.914      582.027        1.123        0.232      132.835       12.561        0.009      334.199        4.015      859.336
11/13/2014  08:09:00       57.326       47.075       11.494       31.915       20.214       22.909     1018.558      408.615      524.843        0.379        0.098       74.178       11.830        0.025      334.159        3.947      859.321
11/13/2014  08:10:00       10.744       19.114       23.077       28.359       42.910       21.796      804.237     1841.301      475.057        0.207        0.156       21.927       21.305        0.944      334.306        4.192      859.308
11/13/2014  08:11:00       25.507       14.831       23.481       28.570       36.057       21.541      816.257     1300.098      464.021        0.200        0.129       29.505       20.147        0.466      334.303        4.186      859.317
11/13/2014  08:12:00       40.842       49.468        5.994       26.678       20.690       18.288      711.731      428.068      334.441        0.281        0.074       64.150        8.258        0.017      334.294        4.173      859.324
11/13/2014  08:13:00       56.548       54.199        2.862       46.832       29.877       21.691     2193.263      892.648      470.502        0.485        0.178       78.328       17.389        0.049      334.252        4.103      859.325
11/13/2014  08:14:00       48.411       35.303       13.204       32.780       25.657       23.693     1074.534      658.302      561.368        0.303        0.115       59.916       18.435        0.095      334.305        4.192      859.304
11/13/2014  08:15:00       65.779       54.368       11.602       25.504       15.973       21.632      650.434      255.149      467.946        0.440        0.069       85.339       11.359        0.018      334.178        3.980      859.297
11/13/2014  08:16:00       56.357       48.160       -7.749       26.587       30.069       29.767      706.857      904.157      886.091        0.403        0.125       74.131       12.685        0.029      334.251        4.101      859.312
11/13/2014  08:17:00       22.560       83.395       -8.522       20.416       36.841       19.001      416.804     1357.259      361.021        0.484        0.107       86.393       17.495        0.041      334.185        3.991      859.294
11/13/2014  08:18:00       33.084       58.744       -1.151       28.935       38.852       17.305      837.244     1509.463      299.466        0.360        0.132       67.420       18.231        0.073      334.270        4.133      859.282
11/13/2014  08:19:00       88.577       49.654       -0.157       31.406       33.243       24.438      986.316     1105.094      597.234        0.650        0.134      101.545       18.672        0.034      334.259        4.114      859.293
11/13/2014  08:20:00       13.714       12.428       11.129       19.831       20.247       17.408      393.251      409.948      303.040        0.079        0.055       18.507       13.911        0.565      334.433        4.405      859.317
11/13/2014  08:21:00       12.704       17.540       33.447       25.014       22.513       20.327      625.694      506.846      413.170        0.157        0.077       21.658       18.210        0.707      334.506        4.523      859.331
11/13/2014  08:22:00       32.547       40.032       36.233       22.007       22.217       16.595      484.313      493.606      275.380        0.261        0.063       51.594       10.043        0.038      334.381        4.317      859.337
11/13/2014  08:23:00       26.527       40.327       45.397       34.546       25.521       22.283     1193.396      651.307      496.530        0.337        0.117       48.270       11.795        0.060      334.457        4.444      859.337
11/13/2014  08:24:00       12.548      -33.881       12.375       20.829       48.717       24.720      433.844     2373.307      611.055        0.244        0.171       36.130       29.911        0.685      334.476        4.473      859.355
11/13/2014  08:25:00       12.554       -9.116       12.285       23.856       25.281       19.921      569.117      639.150      396.841        0.100        0.080       15.514       18.842        1.475      334.470        4.463      859.349
11/13/2014  08:26:00       30.594       36.335       17.164       26.442       33.587       19.256      699.193     1128.060      370.805        0.237        0.110       47.500       14.977        0.099      334.349        4.264      859.343
11/13/2014  08:27:00       48.915       58.469        0.632       28.827       23.081       17.406      831.004      532.719      302.960        0.374        0.083       76.233       15.033        0.039      334.257        4.112      859.296
11/13/2014  08:28:00       32.866       40.252       17.271       26.738       22.987       26.686      714.934      528.412      712.144        0.248        0.098       51.965       22.480        0.187      334.358        4.279      859.286
11/13/2014  08:29:00       23.348       -7.229       17.348       23.829       31.133       19.997      567.845      969.253      399.879        0.142        0.097       24.441       20.280        0.688      334.415        4.371      859.293
11/13/2014  08:30:00        6.959      -37.717       -0.899       11.762       17.002       13.477      138.354      289.057      181.620        0.104        0.030       38.353        9.015        0.055      334.273        4.139      859.322
11/13/2014  08:31:00        1.619        3.520       16.908       17.985       19.960       14.154      323.452      398.410      200.348        0.061        0.046        3.875       14.798       14.587      334.435        4.406      859.321
11/13/2014  08:32:00       26.824       28.550       33.658       27.552       21.882       22.052      759.112      478.826      486.271        0.220        0.086       39.174       13.389        0.117      334.442        4.417      859.293
11/13/2014  08:33:00       82.704       63.044        0.089       24.137       19.920       21.104      582.593      396.801      445.383        0.612        0.071      103.993        9.947        0.009      334.302        4.187      859.302
11/13/2014  08:34:00       85.704       48.734       -6.551       28.987       26.931       27.583      840.246      725.254      760.833        0.604        0.116       98.591       17.465        0.031      334.309        4.197      859.297
11/13/2014  08:35:00       66.929       47.802       15.161       42.049       32.733       23.872     1768.126     1071.429      569.850        0.520        0.170       82.247       15.603        0.036      334.341        4.250      859.328
11/13/2014  08:36:00       30.818       38.504        2.263       17.426       14.749       14.875      303.675      217.523      221.268        0.159        0.037       49.319        9.410        0.036      334.327        4.227      859.400
11/13/2014  08:37:00       75.219       65.689        6.240       52.690       25.642       19.423     2776.221      657.527      377.241        0.691        0.191       99.865       28.018        0.079      334.280        4.147      859.384
11/13/2014  08:38:00      125.074       61.825        6.998       40.958       29.382       25.467     1677.568      863.317      648.552        1.135        0.159      139.520       18.193        0.017      334.357        4.277      859.319
11/13/2014  08:39:00       69.941       15.343        5.185       63.218       42.208       27.377     3996.519     1781.531      749.495        0.584        0.326       71.604       19.195        0.072      334.472        4.469      859.365
11/13/2014  08:40:00      -58.748       -3.374       -1.296       54.289       26.029       19.302     2947.278      677.512      372.574        0.373        0.200       58.845       13.026        0.049      334.559        4.611      859.463
11/13/2014  08:41:00        2.137       18.504       31.416       39.843       32.080       22.563     1587.489     1029.131      509.103        0.223        0.156       18.627       24.296        1.701      334.609        4.694      859.478
11/13/2014  08:42:00       39.935       34.452        5.947       33.697       17.639       17.026     1135.505      311.134      289.880        0.228        0.087       52.742        9.529        0.033      334.513        4.534      859.447
11/13/2014  08:43:00       20.797       32.288        2.710       25.675       22.017       17.551      659.226      484.731      308.040        0.147        0.073       38.406       11.336        0.087      334.595        4.671      859.445
11/13/2014  08:44:00      -12.687       16.603       17.051       12.672       15.581       11.655      160.581      242.756      135.850        0.063        0.027       20.895        9.206        0.194      334.795        5.004      859.479
11/13/2014  08:45:00       -3.641       21.762        1.878       13.719       14.832       16.945      188.197      220.000      287.130        0.059        0.035       22.064       11.218        0.258      334.627        4.724      859.462
11/13/2014  08:46:00       37.479       38.269       28.910       24.127       20.012       14.398      582.135      400.494      207.288        0.245        0.059       53.565       12.447        0.054      334.563        4.618      859.409
11/13/2014  08:47:00       43.896       44.038       20.941       48.587       21.797       29.913     2360.734      475.115      894.796        0.402        0.187       62.179       28.567        0.211      334.572        4.633      859.341
11/13/2014  08:48:00       21.246       51.747        3.385       25.943       21.285       20.581      673.022      453.056      423.597        0.234        0.077       55.939        7.059        0.016      334.528        4.560      859.326
11/13/2014  08:49:00       36.387       50.573        3.109       26.610       23.551       20.321      708.112      554.634      412.961        0.278        0.084       62.303       18.079        0.084      334.512        4.534      859.323
11/13/2014  08:50:00        7.190       46.455      -12.209        9.936       13.044       10.383       98.720      170.142      107.798        0.137        0.019       47.008        5.687        0.015      334.497        4.509      859.342
11/13/2014  08:51:00        6.915       26.953        1.485       12.895       24.190       14.520      166.269      585.133      210.832        0.087        0.048       27.826       16.440        0.349      334.648        4.760      859.354
11/13/2014  08:52:00        9.079        2.224      -14.380       14.899       18.093        9.535      221.989      327.341       90.924        0.047        0.032        9.347        4.741        0.257      334.587        4.657      859.344
11/13/2014  08:53:00       13.971       -8.780       -0.348        8.205       16.251       11.631       67.329      264.091      135.273        0.037        0.023       16.501       10.164        0.379      334.618        4.708      859.318
11/13/2014  08:54:00        7.670        1.893        9.988       12.656        8.841        9.767      160.178       78.169       95.388        0.025        0.017        7.901        7.047        0.796      334.998        5.340      859.286
11/13/2014  08:55:00        1.723      -22.343       -4.919       13.163       15.603       15.030      173.254      243.448      225.891        0.058        0.032       22.409        9.076        0.164      334.835        5.070      859.274
11/13/2014  08:56:00      -17.625        1.359        1.830       13.550        9.387       14.313      183.594       88.115      204.868        0.040        0.024       17.678       11.364        0.413      334.998        5.339      859.287
11/13/2014  08:57:00        9.347        8.744       16.111       29.350       15.352       14.336      861.407      235.693      205.520        0.086        0.065       12.800       11.411        0.795      335.010        5.360      859.277
11/13/2014  08:58:00      -48.212      -25.329        1.454       32.630       27.801       15.232     1064.718      772.923      232.007        0.252        0.103       54.461       10.441        0.037      334.879        5.143      859.274
11/13/2014  08:59:00      -22.661        0.000       -0.966       24.273       15.877       19.100      589.182      252.092      364.795        0.086        0.060       22.661       18.934        0.698      334.957        5.271      859.297
11/13/2014  09:00:00       40.305       39.223        1.466       15.332       11.989       11.486      235.076      143.744      131.936        0.184        0.026       56.240        5.706        0.010      334.875        5.138      859.315
11/13/2014  09:01:00       41.821       25.904       -9.553       30.164       25.738       20.400      909.880      662.425      416.147        0.225        0.099       49.194       10.361        0.044      334.982        5.313      859.344
11/13/2014  09:02:00        2.842        3.307       11.875       25.192       18.498       15.639      634.626      342.192      244.591        0.069        0.061        4.360       14.910       11.693      335.162        5.614      859.360
11/13/2014  09:03:00       15.772       71.539       -5.361       21.111       46.727       18.925      445.655     2183.450      358.155        0.419        0.149       73.257       22.068        0.091      334.990        5.327      859.336
11/13/2014  09:04:00       80.172       71.393       -0.794       29.513       42.067       24.732      871.005     1769.600      611.677        0.739        0.163      107.352       20.183        0.035      334.862        5.114      859.314
11/13/2014  09:05:00        3.392       23.605       53.663       22.412       27.517       20.055      502.302      757.173      402.219        0.255        0.083       23.848       17.455        0.536      335.240        5.742      859.362
11/13/2014  09:06:00       48.240       39.101       37.573       32.126       35.503       33.846     1032.095     1260.442     1145.559        0.435        0.172       62.097       27.432        0.195      334.983        5.314      859.426
11/13/2014  09:07:00       82.485       69.920       27.695       24.333       18.812       21.419      592.104      353.899      458.781        0.693        0.070      108.132       16.071        0.022      334.844        5.084      859.457
11/13/2014  09:08:00       57.533       83.427       67.081       54.065       53.820       51.550     2923.019     2896.588     2657.414        1.162        0.424      101.342       45.902        0.205      335.067        5.456      859.440
11/13/2014  09:09:00       85.985       70.050       42.670       75.184       51.876       54.491     5652.583     2691.095     2969.287        1.271        0.566      110.907       47.877        0.186      334.982        5.313      859.416
11/13/2014  09:10:00       14.570        1.912       70.503       39.492       67.629       34.767     1559.623     4573.675     1208.770        0.626        0.367       14.695       36.146        6.050      335.148        5.590      859.433
11/13/2014  09:11:00       77.072       42.611       39.417       48.138       31.232       25.717     2317.242      975.447      661.360        0.663        0.198       88.067       17.958        0.042      334.878        5.140      859.508
11/13/2014  09:12:00       78.167       64.542       39.389       43.803       32.616       32.376     1918.685     1063.774     1048.222        0.793        0.202      101.370       29.396        0.084      334.936        5.236      859.529
11/13/2014  09:13:00       36.480       13.663       69.893       50.112       99.533       61.578     2511.184     9906.891     3791.885        1.130        0.810       38.954       69.072        3.144      335.180        5.642      859.499
11/13/2014  09:14:00       88.007     -104.844      -22.586       42.165       44.455       24.292     1777.928     1976.255      590.083        1.180        0.217      136.885       23.664        0.030      334.974        5.300      859.521
11/13/2014  09:15:00       70.811      -61.698       -0.746       32.672       35.142       23.589     1067.459     1234.978      556.447        0.584        0.143       93.920       20.228        0.046      335.010        5.360      859.555
11/13/2014  09:16:00       67.973       -5.558       29.995       46.298       29.403       33.998     2143.505      864.524     1155.840        0.486        0.208       68.200       20.975        0.095      334.907        5.189      859.539
11/13/2014  09:17:00       30.202       62.871       78.486       54.472       49.247       43.182     2967.174     2425.237     1864.697        0.914        0.363       69.749       33.101        0.225      335.178        5.639      859.492
11/13/2014  09:18:00       84.826       89.217       92.146       70.630       61.484       54.574     4988.616     3780.323     2978.343        1.769        0.587      123.106       39.035        0.101      334.941        5.246      859.482
11/13/2014  09:19:00      135.476      118.046       80.041       65.398       56.118       57.246     4276.853     3149.241     3277.123        2.470        0.535      179.690       39.657        0.049      334.810        5.024      859.483
11/13/2014  09:20:00       45.826      106.050      107.480       45.021       49.467       35.973     2026.928     2446.953     1294.049        1.533        0.288      115.528       33.179        0.082      334.904        5.183      859.519
11/13/2014  09:21:00       29.818        3.221       45.203       43.829       84.135       46.286     1921.024     7078.690     2142.372        0.704        0.557       29.991       55.874        3.471      335.052        5.432      859.554
11/13/2014  09:22:00       14.861      -42.966       20.502       46.828       70.637       40.539     2192.830     4989.541     1643.436        0.565        0.441       45.463       40.188        0.781      335.159        5.607      859.550
11/13/2014  09:23:00       18.375       15.195       58.150       37.035       78.099       49.698     1371.562     6099.453     2469.927        0.694        0.497       23.844       53.141        4.967      335.171        5.629      859.516
11/13/2014  09:24:00       55.509       77.351       89.468       54.041       58.789       30.365     2920.417     3456.127      922.052        1.218        0.365       95.207       24.480        0.066      335.240        5.741      859.474
11/13/2014  09:25:00      171.835      102.129       45.218       75.569       51.762       60.661     5710.742     2679.343     3679.731        2.703        0.603      199.894       42.881        0.046      334.936        5.234      859.458
11/13/2014  09:26:00      130.713       76.103       14.069       53.143       41.739       28.113     2824.178     1742.108      790.348        1.421        0.268      151.253       14.003        0.009      334.957        5.272      859.466
11/13/2014  09:27:00       40.118       -9.139       20.744       43.007       41.326       24.782     1849.569     1707.839      614.152        0.315        0.209       41.146       17.930        0.190      335.250        5.759      859.503
11/13/2014  09:28:00       13.378      -94.510      -15.112       37.450       45.986       25.205     1402.518     2114.686      635.274        0.675        0.208       95.452       14.974        0.025      335.200        5.676      859.554
11/13/2014  09:29:00       19.095      -32.496        7.831       21.595       28.291       24.652      466.352      800.382      607.722        0.168        0.094       37.691       20.589        0.298      335.077        5.472      859.572
11/13/2014  09:30:00       91.695       57.703        9.669       49.792       28.716       34.472     2479.240      824.586     1188.304        0.816        0.225      108.341       31.046        0.082      335.111        5.529      859.577
11/13/2014  09:31:00      114.692       78.644       50.692       68.979       60.598       59.631     4758.064     3672.177     3555.825        1.695        0.599      139.065       38.075        0.075      335.077        5.472      859.566
11/13/2014  09:32:00       57.585       62.304       57.728       41.143       40.184       37.774     1692.772     1614.784     1426.888        0.763        0.237       84.840       18.537        0.048      335.044        5.417      859.568
11/13/2014  09:33:00       86.806       17.013       22.679       78.730       58.538       48.309     6198.441     3426.657     2333.744        1.015        0.598       88.457       43.185        0.238      334.968        5.289      859.614
11/13/2014  09:34:00       27.153       23.833       53.327       44.546       48.675       43.806     1984.365     2369.256     1918.996        0.521        0.314       36.129       31.398        0.755      335.059        5.441      859.692
11/13/2014  09:35:00       49.814       53.213       57.204       43.621       54.089       35.944     1902.807     2925.650     1291.995        0.735        0.306       72.890       25.004        0.118      335.043        5.416      859.748
11/13/2014  09:36:00       68.509       58.226       65.631       85.035       55.321       27.926     7230.893     3060.464      779.869        1.173        0.554       89.910       28.402        0.100      335.070        5.460      859.770
11/13/2014  09:37:00       80.046       66.819       41.012       63.214       43.814       36.134     3996.026     1919.671     1305.657        0.989        0.361      104.269       30.831        0.087      334.998        5.341      859.776
11/13/2014  09:38:00      166.881       66.620       44.799       67.548       54.095       51.175     4562.731     2926.289     2618.883        2.220        0.505      179.687       41.656        0.054      334.884        5.148      859.762
11/13/2014  09:39:00      100.561       85.346       82.792       65.393       61.237       47.750     4276.258     3749.972     2280.058        1.728        0.515      131.896       34.017        0.067      334.851        5.095      859.764
11/13/2014  09:40:00       55.249       30.022       70.257       51.746       45.069       37.173     2677.606     2031.237     1381.869        0.749        0.305       62.879       39.980        0.404      334.978        5.308      859.802
11/13/2014  09:41:00       33.494      -24.352       34.063       35.363       67.153       34.988     1250.518     4509.463     1224.157        0.493        0.349       41.410       38.058        0.845      335.065        5.453      859.854
11/13/2014  09:42:00       83.700      -99.301      -11.255       38.810       46.439       23.493     1506.180     2156.617      551.937        1.060        0.211      129.871       20.344        0.025      335.003        5.351      859.878
11/13/2014  09:43:00       67.563       -0.075       29.416       56.896       72.636       55.461     3237.184     5275.928     3075.943        0.851        0.579       67.563       60.020        0.789      335.055        5.436      859.871
11/13/2014  09:44:00       28.437      -10.860       29.140       37.214       64.495       40.168     1384.871     4159.622     1613.436        0.447        0.358       30.440       39.491        1.683      335.129        5.560      859.833
11/13/2014  09:45:00        7.157       45.405       77.836       37.942       47.325       27.099     1439.558     2239.690      734.368        0.629        0.221       45.966       25.707        0.313      335.156        5.602      859.783
11/13/2014  09:46:00      138.695      101.495       47.513       91.345       72.926       48.938     8343.840     5318.135     2394.892        2.392        0.803      171.865       46.199        0.072      335.013        5.364      859.705
11/13/2014  09:47:00      174.603       88.401       32.265       78.102       60.132       51.078     6099.874     3615.826     2608.961        2.583        0.616      195.706       43.210        0.049      334.972        5.296      859.625
11/13/2014  09:48:00       64.353       -8.451       18.644       70.408       59.625       43.076     4957.323     3555.198     1855.530        0.746        0.518       64.905       42.017        0.419      335.127        5.554      859.689
11/13/2014  09:49:00        5.139      -46.387       13.342       54.067       39.549       26.538     2923.207     1564.116      704.252        0.377        0.260       46.671       21.546        0.213      335.336        5.903      859.805
11/13/2014  09:50:00        0.669      -21.577       30.980       71.629       92.880       50.515     5130.690     8626.647     2551.759        0.886        0.815       21.587       52.394        5.891      335.578        6.305      859.823
11/13/2014  09:51:00      230.226      148.607       60.718       82.748       54.636       59.321     6847.283     2985.042     3518.964        4.606        0.668      274.022       38.892        0.020      335.412        6.024      859.670
11/13/2014  09:52:00      157.310      154.499        0.886      138.366      106.110       80.255    19145.283    11259.395     6440.859        4.272        1.842      220.491       59.452        0.073      335.368        5.952      859.514
11/13/2014  09:53:00      142.980      208.123       -5.978      131.297      120.526       85.256    17238.945    14526.445     7268.669        5.141        1.952      252.504       79.365        0.099      335.395        5.996      859.461
11/13/2014  09:54:00      263.288      186.879       34.904      105.785       75.400       82.552    11190.484     5685.186     6814.756        6.457        1.185      322.869       31.414        0.009      335.296        5.830      859.471
11/13/2014  09:55:00      -24.479      -46.759        9.736       95.194       87.405       61.176     9061.807     7639.711     3742.442        1.166        1.022       52.779       37.424        0.503      335.568        6.288      859.619
11/13/2014  09:56:00      -83.354     -143.985       -1.907       87.413       73.098       44.811     7641.100     5343.326     2008.014        2.133        0.750      166.372       43.783        0.069      335.734        6.564      859.715
11/13/2014  09:57:00      -40.713      -45.727       16.655       70.687       66.433       35.083     4996.599     4413.380     1230.802        0.733        0.532       61.225       23.444        0.147      335.735        6.567      859.696
11/13/2014  09:58:00      135.364       70.239       64.941       81.359       63.531       49.440     6619.214     4036.147     2444.338        2.028        0.655      152.502       39.150        0.066      335.425        6.050      859.650
11/13/2014  09:59:00      115.541       67.535       10.166      118.428       60.205       43.738    14025.212     3624.650     1913.031        1.878        0.978      133.831       41.330        0.095      335.384        5.980      859.643
11/13/2014  10:00:00       67.589       60.044        1.579       90.985       54.786       37.238     8278.248     3001.550     1386.635        1.042        0.633       90.408       30.587        0.114      335.660        6.441      859.688
11/13/2014  10:01:00       50.363       72.572       14.974       55.303       44.026       32.672     3058.431     1938.274     1067.449        0.704        0.303       88.335       19.168        0.047      335.651        6.427      859.740
11/13/2014  10:02:00        6.083       80.310        1.723       37.067       47.683       34.740     1373.991     2273.705     1206.888        0.567        0.243       80.541       29.528        0.134      335.756        6.603      859.788
11/13/2014  10:03:00      -49.673       89.717       -6.764       29.525       33.669       30.727      871.737     1133.626      944.125        0.676        0.147      102.551       24.200        0.056      335.808        6.689      859.822
11/13/2014  10:04:00       29.546      141.351      -16.756       63.657       33.809       29.764     4052.185     1143.078      885.913        1.361        0.304      144.406       19.361        0.018      335.757        6.603      859.760
11/13/2014  10:05:00      177.946      151.240       -6.222       99.968       57.759       56.183     9993.585     3336.071     3156.565        3.553        0.824      233.534       35.553        0.023      335.735        6.563      859.635
11/13/2014  10:06:00      191.320      113.364       -1.399       75.823       52.767       44.283     5749.056     2784.346     1960.989        2.997        0.525      222.385       13.099        0.003      335.646        6.416      859.586
11/13/2014  10:07:00      164.381       70.944       36.789       80.615       51.109       53.226     6498.702     2612.084     2833.031        2.267        0.597      179.037       45.567        0.065      335.895        6.831      859.565
11/13/2014  10:08:00      147.638       97.879       41.593       87.796       59.716       55.015     7708.222     3566.031     3026.598        2.370        0.715      177.136       52.100        0.087      335.848        6.752      859.580
11/13/2014  10:09:00       96.266       37.982       73.322       94.706       83.083       60.279     8969.291     6902.814     3633.533        1.779        0.975      103.488       55.681        0.289      335.964        6.947      859.616
11/13/2014  10:10:00       90.910     -117.510       10.699       59.862       69.665       49.282     3583.404     4853.147     2428.673        1.652        0.543      148.571       43.992        0.088      336.168        7.287      859.623
11/13/2014  10:11:00       82.006       -7.387       45.152       68.232      104.148       63.677     4655.629    10846.785     4054.788        1.418        0.978       82.338       71.712        0.759      336.046        7.086      859.643
11/13/2014  10:12:00       68.752       87.018      116.228       61.854       66.273       51.345     3825.873     4392.149     2636.265        1.833        0.543      110.901       47.586        0.184      335.835        6.731      859.646
11/13/2014  10:13:00      131.205       93.529       61.796       46.907       44.995       47.692     2200.223     2024.516     2274.510        1.814        0.325      161.128       41.108        0.065      335.621        6.376      859.630
11/13/2014  10:14:00       36.082       72.408       84.661       45.924       40.790       24.734     2109.056     1663.785      611.766        0.905        0.219       80.900       20.637        0.065      336.107        7.187      859.603
11/13/2014  10:15:00      -10.314       55.589       95.461       28.007       43.118       28.237      784.388     1859.126      797.322        0.787        0.172       56.538       25.562        0.204      336.298        7.505      859.625
11/13/2014  10:16:00       27.694       58.279       47.741       55.160       56.351       52.723     3042.616     3175.475     2779.759        0.772        0.450       64.524       43.737        0.459      336.193        7.332      859.656
11/13/2014  10:17:00       53.432        0.696       31.715       38.085       48.855       28.749     1450.432     2386.807      826.495        0.426        0.233       53.437       21.099        0.156      336.057        7.103      859.661
11/13/2014  10:18:00       21.130       21.202       48.922       42.053       40.371       45.945     1768.479     1629.834     2110.962        0.440        0.275       29.933       28.185        0.887      336.536        7.904      859.655
11/13/2014  10:19:00       74.724       78.793       38.252       30.631       25.258       26.542      938.239      637.960      704.453        0.777        0.114      108.591       19.884        0.034      335.754        6.598      859.654
11/13/2014  10:20:00        9.362        5.277       22.233       21.157       29.448       15.551      447.620      867.213      241.825        0.108        0.078       10.747        9.529        0.786      336.407        7.687      859.668
11/13/2014  10:21:00       38.374       64.525       60.034       50.054       33.959       38.072     2505.433     1153.194     1449.445        0.717        0.255       75.074       30.606        0.166      336.363        7.616      859.677
11/13/2014  10:22:00       34.378       80.619       98.305       49.005       46.315       31.168     2401.443     2145.069      971.426        1.143        0.276       87.643       27.252        0.097      336.293        7.498      859.686
11/13/2014  10:23:00       75.228       43.046       44.484       47.407       39.205       31.451     2247.459     1537.057      989.146        0.713        0.239       86.673       24.952        0.083      336.060        7.107      859.693
11/13/2014  10:24:00       24.733       25.814       30.242       41.287       43.431       26.431     1704.620     1886.256      698.611        0.324        0.214       35.750       25.936        0.526      336.261        7.445      859.664
11/13/2014  10:25:00       65.596      -52.899        5.417       28.307      102.966       29.577      801.292    10602.035      874.817        0.970        0.614       84.268       43.048        0.261      336.052        7.094      859.646
11/13/2014  10:26:00       51.060      -42.673       11.843       36.856       81.038       34.137     1358.382     6567.182     1165.323        0.683        0.455       66.544       33.382        0.252      336.153        7.263      859.612
11/13/2014  10:27:00       44.529       33.356        0.812       42.173       38.726       33.440     1778.545     1499.696     1118.259        0.375        0.220       55.637       30.646        0.303      336.118        7.205      859.619
11/13/2014  10:28:00       18.326        0.113       -0.656       38.419       35.872       22.091     1476.023     1286.790      488.003        0.179        0.163       18.327        9.155        0.250      336.221        7.378      859.636
11/13/2014  10:29:00       17.602        3.076       29.986       30.570       31.044       22.530      934.512      963.711      507.591        0.181        0.120       17.868       15.165        0.720      336.307        7.520      859.660
11/13/2014  10:30:00        9.773       23.637       32.867       25.129       23.764       21.078      631.477      564.708      444.287        0.169        0.082       25.577       15.278        0.357      336.174        7.298      859.682
11/13/2014  10:31:00        3.582       14.571      -14.065        7.402       13.610       10.054       54.794      185.242      101.083        0.038        0.017       15.005        3.754        0.063      336.215        7.364      859.702
11/13/2014  10:32:00       22.184       29.915       11.717       18.015       15.016       21.128      324.525      225.478      446.413        0.126        0.050       37.243       13.635        0.134      336.313        7.532      859.708
11/13/2014  10:33:00       30.226       57.178        3.739       21.076       15.148       18.976      444.196      229.449      360.087        0.262        0.052       64.675        9.039        0.020      336.310        7.524      859.673
11/13/2014  10:34:00       58.819       90.694       50.660       56.949       42.009       55.036     3243.218     1764.747     3029.012        1.114        0.402      108.097       27.884        0.067      336.370        7.627      859.605
11/13/2014  10:35:00       11.027       81.264       92.573       31.783       33.287       19.791     1010.134     1108.019      391.700        0.890        0.125       82.009       18.734        0.052      336.565        7.952      859.556
11/13/2014  10:36:00       27.413       26.865       31.399       36.309       65.957       35.890     1318.315     4350.361     1288.089        0.471        0.348       38.382       41.134        1.149      336.498        7.842      859.545
11/13/2014  10:37:00       18.649     -115.028      -17.417       64.818       50.618       34.814     4201.309     2562.212     1212.008        1.093        0.399      116.530       30.637        0.069      336.762        8.282      859.567
11/13/2014  10:38:00      -71.500      -48.795       13.600       65.851       38.878       29.686     4336.370     1511.523      881.250        0.720        0.336       86.563       17.629        0.041      336.793        8.334      859.607
11/13/2014  10:39:00      -77.445       33.851       13.642       56.286       36.821       39.347     3168.087     1355.811     1548.220        0.670        0.304       84.520       38.718        0.210      336.813        8.367      859.589
11/13/2014  10:40:00       -5.752       32.333       70.620       69.635       50.944       46.357     4849.070     2595.263     2148.977        0.783        0.480       32.841       33.770        1.057      336.910        8.530      859.518
11/13/2014  10:41:00       91.434      115.713       82.363       47.924       35.559       39.487     2296.666     1264.462     1559.211        1.683        0.256      147.477       36.171        0.060      336.424        7.718      859.470
11/13/2014  10:42:00       31.133       22.398       13.038       50.336       19.240       24.308     2533.734      370.165      590.869        0.257        0.175       38.353       20.346        0.281      336.790        8.328      859.478
11/13/2014  10:43:00      -30.004       49.992      -16.961       30.433       30.841       16.491      926.137      951.184      271.945        0.292        0.107       58.305        6.268        0.012      336.681        8.146      859.512
11/13/2014  10:44:00      -29.060        0.490      -13.362       40.549       35.208       22.862     1644.225     1239.637      522.664        0.221        0.170       29.064       10.730        0.136      336.904        8.518      859.550
11/13/2014  10:45:00       -0.062       34.446       16.193       53.909       20.463       27.118     2906.227      418.754      735.359        0.275        0.203       34.446       32.837        0.909      337.007        8.692      859.533
11/13/2014  10:46:00       14.544       25.083       38.327       30.529       28.688       13.588      932.050      822.974      184.629        0.212        0.097       28.994        6.629        0.052      337.513        9.538      859.488
11/13/2014  10:47:00       33.083       62.996       60.084       52.258       47.824       33.895     2730.911     2287.165     1148.851        0.742        0.308       71.155       29.362        0.170      337.158        8.945      859.456
11/13/2014  10:48:00       63.037       78.307       87.473       51.122       38.764       26.118     2613.497     1502.610      682.147        1.128        0.240      100.527       19.034        0.036      336.986        8.655      859.435
11/13/2014  10:49:00       93.454       40.994       20.277       29.275       36.923       24.691      857.007     1363.291      609.638        0.683        0.141      102.050        7.578        0.006      336.741        8.246      859.444
11/13/2014  10:50:00       30.608      -23.957        3.435       32.622       33.913       24.538     1064.219     1150.083      602.120        0.217        0.141       38.869       16.172        0.173      337.036        8.741      859.462
11/13/2014  10:51:00       39.972       53.522       37.357       25.556       26.536       25.216      653.102      704.155      635.825        0.393        0.100       66.800       14.701        0.048      337.142        8.916      859.456
11/13/2014  10:52:00       22.358       43.542       65.134       40.750       34.999       33.586     1660.564     1224.925     1127.991        0.533        0.201       48.947       24.689        0.254      337.588        9.664      859.458
11/13/2014  10:53:00        0.876       15.591       55.590       65.816       73.213       45.995     4331.764     5360.131     2115.515        0.757        0.590       15.616       48.345        9.584      337.466        9.459      859.440
11/13/2014  10:54:00      -10.806       54.827       51.426       59.199       62.598       52.667     3504.493     3918.469     2773.795        0.798        0.510       55.882       48.847        0.764      337.596        9.675      859.417
11/13/2014  10:55:00       43.798       74.554       89.001       60.536       58.896       24.309     3664.651     3468.753      590.925        1.156        0.386       86.467       17.657        0.042      337.413        9.370      859.385
11/13/2014  10:56:00       74.599       35.781       10.429       22.894       36.542       40.978      524.158     1335.309     1679.196        0.525        0.177       82.736       24.409        0.087      337.074        8.801      859.370
11/13/2014  10:57:00       84.474       34.341        7.590       47.514       43.064       32.384     2257.553     1854.541     1048.716        0.677        0.258       91.187       19.139        0.044      337.141        8.915      859.349
11/13/2014  10:58:00       31.113       35.765       52.994       41.638       45.537       35.169     1733.755     2073.660     1236.882        0.505        0.252       47.404       31.771        0.449      337.584        9.658      859.341
11/13/2014  10:59:00       51.553      -15.761       24.262       49.016       39.351       30.836     2402.596     1548.504      950.854        0.420        0.245       53.909       27.685        0.264      337.554        9.607      859.352
11/13/2014  11:00:00       40.779      -61.070        1.112       28.300       33.153       21.443      800.869     1099.108      459.786        0.388        0.118       73.433       21.187        0.083      337.427        9.394      859.340
11/13/2014  11:01:00       38.129       73.212       72.400       72.770       64.703       53.051     5295.498     4186.475     2814.385        1.217        0.615       82.546       46.221        0.314      337.959       10.284      859.274
11/13/2014  11:02:00      183.931       91.728        0.506       97.227       56.672       50.115     9453.116     3211.750     2511.541        2.871        0.759      205.535       31.560        0.024      337.576        9.640      859.162
11/13/2014  11:03:00       64.513       53.370       11.052       46.139       73.086       36.867     2128.822     5341.522     1359.158        0.798        0.441       83.727       19.518        0.054      337.601        9.685      859.113
11/13/2014  11:04:00      -32.238      -17.770       27.684       45.047       43.283       33.824     2029.230     1873.442     1144.058        0.358        0.252       36.811       28.195        0.587      337.857       10.114      859.222
11/13/2014  11:05:00      -10.761      -56.658        2.014       68.290       48.694       31.007     4663.582     2371.079      961.411        0.566        0.400       57.671       20.902        0.131      337.775        9.976      859.278
11/13/2014  11:06:00      -60.706      -19.729        7.831       64.020       64.433       30.710     4098.561     4151.631      943.088        0.666        0.460       63.831       39.942        0.392      337.494        9.505      859.280
11/13/2014  11:07:00      146.719       71.224       54.543       71.390       59.312       64.609     5096.533     3517.862     4174.302        2.118        0.639      163.093       32.339        0.039      337.602        9.684      859.234
11/13/2014  11:08:00       56.198       62.895       16.859       52.953       58.477       35.034     2804.061     3419.574     1227.399        0.742        0.373       84.344       27.161        0.104      337.583        9.656      859.216
11/13/2014  11:09:00       43.337       53.312       40.150       53.841       62.297       62.856     2898.830     3880.965     3950.817        0.853        0.537       68.704       48.891        0.506      338.053       10.443      859.189
11/13/2014  11:10:00       71.492      166.917      179.745       88.736       84.011       66.919     7874.126     7057.825     4478.100        4.234        0.971      181.583       59.537        0.108      337.640        9.747      859.111
11/13/2014  11:11:00       79.382       52.508       96.828       98.709       94.870       56.995     9743.541     9000.344     3248.392        2.021        1.100       95.177       68.098        0.512      337.641        9.752      859.125
11/13/2014  11:12:00       64.059      -61.393       32.553       44.634      116.145       53.689     1992.164    13489.722     2882.502        1.364        0.918       88.728       69.846        0.620      337.730        9.902      859.177
11/13/2014  11:13:00       50.674      -70.777        5.587       23.788       70.922       36.812      565.872     5029.863     1355.090        0.728        0.348       87.047       46.904        0.290      337.787        9.997      859.230
11/13/2014  11:14:00       34.300       36.930       60.065       38.063       60.209       28.025     1448.827     3625.149      785.387        0.600        0.293       50.401       33.463        0.441      338.172       10.642      859.217
11/13/2014  11:15:00       90.155      120.347       85.529       59.694       60.934       61.780     3563.320     3713.001     3816.768        2.051        0.555      150.371       37.540        0.062      338.054       10.444      859.134
11/13/2014  11:16:00       53.765      123.909      152.140       67.685       82.602       58.056     4581.252     6823.042     3370.504        2.808        0.739      135.071       59.000        0.191      337.853       10.106      859.032
11/13/2014  11:17:00      118.345      -38.119       51.593       89.864       98.968       67.322     8075.518     9794.763     4532.188        2.026        1.120      124.333       72.175        0.337      337.800       10.017      859.043
11/13/2014  11:18:00       17.356      -46.917       16.921       76.423       58.647       36.821     5840.490     3439.513     1355.802        0.671        0.532       50.024       40.080        0.642      337.731        9.904      859.085
11/13/2014  11:19:00      132.125      100.661       45.742       33.664       20.810       30.979     1133.259      433.059      959.725        1.610        0.126      166.102       23.955        0.021      337.514        9.540      859.095
11/13/2014  11:20:00      -34.235       68.077      -10.850       69.346       34.232       30.194     4808.812     1171.825      911.701        0.641        0.345       76.200       29.037        0.145      337.768        9.966      859.161
11/13/2014  11:21:00     -107.976       -3.957      -20.478       51.302       38.878       24.658     2631.943     1511.485      608.031        0.842        0.238      108.048       14.896        0.019      337.883       10.158      859.256
11/13/2014  11:22:00      200.080      152.947        0.326      128.174       76.270       45.394    16428.474     5817.053     2060.629        4.386        1.215      251.843       39.327        0.024      337.889       10.165      859.108
11/13/2014  11:23:00      330.146      227.300       23.204       86.661       84.767       73.466     7510.118     7185.504     5397.297        9.064        1.005      400.826       26.705        0.004      337.923       10.222      858.936
11/13/2014  11:24:00      232.068      107.909       21.720      133.733       72.455       66.194    17884.425     5249.711     4381.701        4.674        1.376      255.930       53.089        0.043      337.963       10.290      858.958
11/13/2014  11:25:00       16.143      127.835      -10.181       76.844      113.335       52.981     5904.968    12844.775     2806.958        1.913        1.078      128.850       46.302        0.129      338.548       11.274      858.962
11/13/2014  11:26:00      -48.190      -48.061       -7.743       80.114       76.703       37.896     6418.179     5883.296     1436.102        0.921        0.687       68.060       17.636        0.067      338.627       11.405      859.012
11/13/2014  11:27:00      -38.132      -31.412       33.644      164.245       94.260       55.869    26976.584     8884.877     3121.312        2.127        1.949       49.404       75.661        2.345      338.590       11.345      859.066
11/13/2014  11:28:00      177.947      111.235       40.157      115.973       67.366       73.776    13449.779     4538.226     5442.963        3.454        1.172      209.853       52.125        0.062      338.454       11.115      858.942
11/13/2014  11:29:00       -2.141       56.808       27.674       58.411       40.145       49.181     3411.827     1611.645     2418.756        0.572        0.372       56.848       33.937        0.356      338.719       11.561      858.936
11/13/2014  11:30:00      -18.768      100.389      -36.500       38.007       64.126       21.650     1444.564     4112.100      468.719        0.889        0.301      102.128       26.141        0.066      338.393       11.014      859.035
11/13/2014  11:31:00      -46.267      101.701       12.459       74.615       82.713       60.314     5567.365     6841.429     3637.769        1.434        0.802      111.730       59.075        0.280      339.021       12.070      859.011
11/13/2014  11:32:00      -58.333      -12.486        3.747      111.276       96.157       53.070    12382.362     9246.083     2816.384        1.400        1.222       59.655       34.976        0.344      339.393       12.695      858.887
11/13/2014  11:33:00     -144.683       -8.111       -2.572      111.025       87.831       54.424    12326.599     7714.292     2961.967        2.200        1.150      144.910       54.724        0.143      339.104       12.207      858.888
11/13/2014  11:34:00      -61.264     -124.813        8.326      138.531       83.320       71.174    19190.708     6942.210     5065.795        2.529        1.560      139.038       58.686        0.178      338.857       11.793      858.884
11/13/2014  11:35:00     -290.579        2.686      -22.737      183.239      155.504       69.234    33576.424    24181.369     4793.326        7.374        3.128      290.592       59.975        0.043      339.198       12.363      858.880
11/13/2014  11:36:00     -225.630      -11.160        1.135      171.839      125.429       81.674    29528.636    15732.471     6670.676        5.147        2.597      225.905       75.914        0.113      339.791       13.365      858.770
11/13/2014  11:37:00      -41.561      -30.043        8.738      100.990       67.857       46.070    10198.904     4604.543     2122.451        0.981        0.846       51.283       43.838        0.731      339.852       13.469      858.820
11/13/2014  11:38:00      -87.747     -156.179       25.898      166.711      104.289       65.148    27792.402    10876.186     4244.239        3.783        2.146      179.141       60.588        0.114      339.756       13.304      858.826
11/13/2014  11:39:00     -246.979     -211.744        0.970      206.240      143.777       84.544    42534.790    20671.691     7147.652        8.808        3.518      325.321      100.329        0.095      339.927       13.594      858.805
11/13/2014  11:40:00     -241.134     -190.765       -4.438      169.918      152.286       75.234    28872.195    23191.077     5660.226        7.613        2.886      307.468       89.525        0.085      339.915       13.573      858.745
11/13/2014  11:41:00      -86.934     -157.208       -1.870      156.167       85.599       63.483    24388.138     7327.210     4030.053        3.400        1.787      179.643       53.961        0.090      339.422       12.743      858.770
11/13/2014  11:42:00      -90.032      -22.635       25.911       93.325       75.463       46.358     8709.648     5694.723     2149.056        1.292        0.828       92.833       53.096        0.327      339.434       12.764      858.800
11/13/2014  11:43:00       42.713     -139.237       -8.361      112.398       88.584       63.849    12633.390     7847.173     4076.757        2.291        1.228      145.641       54.283        0.139      339.397       12.702      858.816
11/13/2014  11:44:00     -262.323     -231.270      -21.628      234.658      137.775       82.869    55064.352    18982.044     6867.327       10.182        4.046      349.713       71.089        0.041      339.659       13.141      858.777
11/13/2014  11:45:00     -275.722     -132.378      -20.961      188.615      104.740       76.103    35575.590    10970.409     5791.718        7.315        2.617      305.853       72.904        0.057      340.054       13.805      858.724
11/13/2014  11:46:00     -234.896     -182.125       -0.005      171.830      158.726       66.828    29525.488    25193.826     4466.004        7.375        2.959      297.230       72.890        0.060      340.267       14.167      858.739
11/13/2014  11:47:00     -268.702     -295.984       16.823      276.559      179.648       97.547    76484.986    32273.373     9515.445       13.916        5.914      399.759      115.127        0.083      340.320       14.255      858.700
11/13/2014  11:48:00     -585.849     -427.348       -8.799      232.303      217.756      135.871    53964.786    47417.528    18460.894       32.286        5.992      725.152      139.280        0.037      340.052       13.803      858.657
11/13/2014  11:49:00     -202.617     -252.623       16.240      214.164      180.621       93.042    45866.233    32624.095     8656.875        9.612        4.357      323.839       97.198        0.090      340.179       14.017      858.649
11/13/2014  11:50:00     -342.547     -262.405       -3.607      231.590      157.578       83.851    53633.841    24830.699     7030.952       13.583        4.275      431.503      111.566        0.067      340.268       14.168      858.656
11/13/2014  11:51:00     -399.441     -165.363      -15.683      203.206      224.255       98.564    41292.514    50290.254     9714.833       14.420        5.065      432.317      116.743        0.073      340.263       14.159      858.628
11/13/2014  11:52:00     -443.822     -175.687      -14.205      233.923      143.110       85.483    54719.941    20480.574     7307.414       15.526        4.125      477.330       99.490        0.043      340.323       14.260      858.604
11/13/2014  11:53:00     -368.880      -87.997        5.873      262.522      170.208      122.388    68917.900    28970.806    14978.902       12.834        5.643      379.231      131.940        0.121      340.559       14.660      858.624
11/13/2014  11:54:00     -320.935      -89.130      -19.397      180.845      167.529       83.494    32705.082    28065.978     6971.192        8.952        3.387      333.082       80.051        0.058      340.539       14.625      858.649
11/13/2014  11:55:00     -448.807     -193.592       -7.519      253.107      201.184      104.339    64063.115    40475.163    10886.598       17.717        5.771      488.779      126.120        0.067      340.357       14.318      858.637
11/13/2014  11:56:00     -402.869     -283.420        1.173      273.788      203.026      120.546    74959.988    41219.604    14531.415       18.665        6.536      492.575      139.527        0.080      340.246       14.130      858.622
11/13/2014  11:57:00     -413.555     -196.520       -3.619      220.339      194.252      106.331    48549.327    37733.901    11306.230       15.361        4.879      457.873      108.908        0.057      340.266       14.163      858.625
11/13/2014  11:58:00     -362.601     -223.798       -1.808      251.651      177.930      113.847    63328.229    31659.112    12961.075       14.474        5.397      426.105      133.586        0.098      340.226       14.097      858.647
11/13/2014  11:59:00     -194.537     -107.327       16.370      216.410      177.180       82.565    46833.240    31392.748     6817.056        6.732        4.252      222.180      111.532        0.252      340.412       14.412      858.592
11/13/2014  12:00:00     -220.510     -106.600        6.456      188.488       88.530       63.433    35527.699     7837.486     4023.801        5.370        2.369      244.925       73.407        0.090      340.506       14.571      858.636
11/13/2014  12:01:00     -489.137     -196.138      -35.100      242.656      224.072      100.351    58881.973    50208.477    10070.361       19.904        5.958      526.996      109.641        0.043      340.309       14.237      858.608
11/13/2014  12:02:00     -363.597     -180.461        8.292      237.124      156.769       92.812    56227.665    24576.559     8614.084       12.711        4.471      405.918      115.962        0.082      340.454       14.482      858.649
11/13/2014  12:03:00     -404.588     -154.448      -21.484      229.565      166.334       88.424    52700.116    27666.947     7818.766       13.808        4.409      433.065       85.237        0.039      340.361       14.324      858.642
11/13/2014  12:04:00     -421.017     -240.123      -12.334      241.808      164.087       93.644    58471.045    26924.523     8769.248       16.460        4.708      484.679      103.467        0.046      340.307       14.236      858.642
11/13/2014  12:05:00     -208.612     -139.151       -0.891      193.180      163.546       86.185    37318.664    26747.412     7427.894        6.717        3.575      250.762       99.830        0.158      340.462       14.497      858.591
11/13/2014  12:06:00     -420.965     -320.388      -24.567      202.458      162.896       99.082    40989.335    26535.024     9817.278       17.889        3.867      529.018      110.306        0.043      340.385       14.365      858.593
11/13/2014  12:07:00     -278.503     -165.274       -4.087      177.032      162.309       90.116    31340.491    26344.219     8120.928        8.534        3.290      323.852       98.944        0.093      340.560       14.661      858.593
11/13/2014  12:08:00     -502.148     -212.749      -28.147      224.359      217.049       97.817    50337.099    47110.105     9568.184       20.259        5.351      545.357       87.642        0.026      340.298       14.219      858.633
11/13/2014  12:09:00     -336.491      -92.605       -7.642      177.914      167.100       61.018    31653.454    27922.544     3723.153        9.257        3.165      349.001       52.632        0.023      340.311       14.242      858.651
11/13/2014  12:10:00     -365.521     -238.097       -9.624      207.341      160.056       79.203    42990.092    25617.911     6273.146       13.262        3.744      436.229       88.993        0.042      340.417       14.420      858.678
11/13/2014  12:11:00     -306.723     -294.449      -14.251      182.573      177.926       96.928    33332.768    31657.686     9395.060       12.767        3.719      425.181      100.998        0.056      340.121       13.920      858.658
11/13/2014  12:12:00     -370.109     -317.702      -26.598      196.698      143.192      110.534    38690.219    20504.089    12217.755       15.500        3.571      487.766      117.446        0.058      340.256       14.147      858.607
11/13/2014  12:13:00     -445.285     -155.425      -38.628      154.263      163.210       62.713    23797.027    26637.663     3932.900       13.914        2.718      471.631       69.626        0.022      340.387       14.369      858.643
11/13/2014  12:14:00     -244.441     -213.843       20.876      236.000      191.015      102.867    55696.017    36486.908    10581.615       10.432        5.138      324.777      116.103        0.128      340.453       14.480      858.588
11/13/2014  12:15:00     -296.506      -65.004       -1.138      194.528      141.391       76.151    37841.246    19991.460     5798.995        7.787        3.182      303.548       95.090        0.098      340.644       14.803      858.620
11/13/2014  12:16:00     -384.898      -82.485      -15.090      219.722      199.316       79.926    48277.685    39726.802     6388.187       12.477        4.720      393.637       89.748        0.052      340.573       14.683      858.649
11/13/2014  12:17:00     -319.860     -121.710        0.104      167.069      160.464       90.596    27912.036    25748.849     8207.650        8.948        3.093      342.233       82.236        0.058      340.629       14.777      858.631
11/13/2014  12:18:00     -351.577     -143.448       -5.689      220.133      123.746       91.408    48458.703    15313.161     8355.427       10.816        3.606      379.716      100.575        0.070      340.554       14.652      858.615
11/13/2014  12:19:00     -330.821     -139.887      -10.337      249.336      193.129      105.127    62168.678    37298.623    11051.707       11.980        5.526      359.180      125.089        0.121      340.634       14.787      858.612
11/13/2014  12:20:00     -540.300     -246.865      -29.761      230.525      210.611      111.042    53141.690    44356.938    12330.261       23.177        5.491      594.026      103.336        0.030      340.310       14.240      858.598
11/13/2014  12:21:00     -376.244     -152.957        8.100      219.074      175.065      113.823    47993.477    30647.918    12955.700       12.829        4.580      406.147      111.841        0.076      340.432       14.445      858.564
11/13/2014  12:22:00     -444.047     -132.439       28.245      308.651      200.742      125.008    95265.215    40297.413    15627.033       18.332        7.559      463.377      150.392        0.105      340.411       14.409      858.512
11/13/2014  12:23:00     -348.137     -148.619       -4.068      258.945      209.042      109.692    67052.310    43698.463    12032.403       13.302        6.139      378.533      116.176        0.094      340.516       14.588      858.528
11/13/2014  12:24:00     -209.987     -165.790        1.924      263.198      222.272      101.998    69273.392    49404.632    10403.581       10.031        6.454      267.546      126.360        0.223      340.563       14.667      858.555
11/13/2014  12:25:00     -444.009     -204.307       -9.822      262.457      237.651      109.167    68883.617    56478.186    11917.383       18.810        6.864      488.759      128.816        0.069      340.357       14.318      858.551
11/13/2014  12:26:00     -300.382     -150.545       18.159      240.061      212.053      105.107    57629.282    44966.411    11047.399       11.341        5.682      335.996      119.216        0.126      340.508       14.575      858.539
11/13/2014  12:27:00     -379.415     -116.046        8.025      363.997      239.044      122.172   132494.141    57142.239    14925.932       18.098       10.228      396.765      169.825        0.183      340.436       14.452      858.534
11/13/2014  12:28:00     -479.005     -252.242      -26.019      326.230      243.087      147.926   106425.722    59091.299    21881.991       24.054        9.370      541.361      170.032        0.099      340.181       14.020      858.491
11/13/2014  12:29:00     -326.529     -196.293        0.603      265.853      230.184       98.344    70677.952    52984.897     9671.594       13.922        6.667      380.989       97.653        0.066      340.310       14.239      858.471
11/13/2014  12:30:00     -550.377     -190.271       -1.398      328.457      247.759      121.195   107884.126    61384.405    14688.219       26.150        9.198      582.338      130.443        0.050      340.244       14.128      858.506
11/13/2014  12:31:00     -389.313     -178.774       11.988      303.491      209.518      118.488    92106.980    43897.929    14039.304       16.683        7.502      428.398      135.568        0.100      340.245       14.129      858.513
11/13/2014  12:32:00     -386.130      -55.272       11.152      258.993      179.404      121.177    67077.601    32185.902    14683.907       13.309        5.697      390.066      140.880        0.130      340.242       14.124      858.524
11/13/2014  12:33:00     -300.619     -180.276       -2.475      188.755      168.320       91.510    35628.343    28331.759     8374.052        9.759        3.617      350.530      103.460        0.087      340.285       14.197      858.535
11/13/2014  12:34:00     -616.676     -344.368      -39.451      259.326      200.027      125.527    67250.176    40010.972    15757.116       31.170        6.151      706.313      103.272        0.021      340.099       13.882      858.497
11/13/2014  12:35:00     -195.864     -154.152       21.761      238.371      146.166      107.403    56820.719    21364.607    11535.488        7.614        4.486      249.250      116.222        0.217      340.270       14.172      858.526
11/13/2014  12:36:00     -234.179     -168.748       23.237      212.587      175.910      105.341    45193.236    30944.342    11096.659        8.553        4.362      288.644      117.205        0.165      340.290       14.206      858.532
11/13/2014  12:37:00     -411.656     -264.825       -3.413      284.305      201.708      104.227    80829.526    40686.302    10863.349       18.597        6.619      489.483      126.576        0.067      340.170       14.002      858.491
11/13/2014  12:38:00     -485.721     -294.372      -18.949      213.440      257.641      108.832    45556.791    66378.629    11844.376       22.334        6.189      567.961      114.264        0.040      340.122       13.921      858.482
11/13/2014  12:39:00     -450.287     -277.367      -10.491      241.455      194.829      101.062    58300.561    37958.222    10213.498       19.312        5.324      528.858       97.845        0.034      340.155       13.976      858.479
11/13/2014  12:40:00     -398.882     -239.309      -11.348      236.349      190.119      104.059    55860.651    36145.128    10828.360       15.965        5.142      465.162      109.551        0.055      340.168       14.000      858.509
11/13/2014  12:41:00     -535.938     -260.637      -23.018      310.120      257.462      150.272    96174.341    66286.866    22581.704       27.033        9.252      595.954      160.252        0.072      340.168       13.999      858.450
11/13/2014  12:42:00     -430.249     -232.669      -13.090      315.703      230.868      126.028    99668.481    53299.935    15883.114       20.410        8.443      489.131      141.100        0.083      340.115       13.910      858.451
11/13/2014  12:43:00     -541.193     -334.006       -3.979      312.756      238.534      147.914    97816.075    56898.386    21878.467       29.049        8.830      635.964      168.434        0.070      339.944       13.620      858.470
11/13/2014  12:44:00     -661.458     -374.678      -23.571      343.074      261.305      125.070   117699.498    68280.236    15642.452       39.000       10.081      760.204      156.290        0.042      339.882       13.517      858.467
11/13/2014  12:45:00     -435.313     -305.301       -8.749      255.443      224.377      109.685    65250.937    50345.030    12030.786       20.518        6.381      531.701      126.433        0.057      340.003       13.720      858.481
11/13/2014  12:46:00     -398.767     -293.754       11.490      203.490      206.121      103.554    41408.254    42485.694    10723.489       17.001        4.731      495.285       95.112        0.037      340.098       13.882      858.468
11/13/2014  12:47:00     -417.166     -174.126        0.887      284.949      205.456      110.381    81195.888    42212.287    12183.986       16.994        6.780      452.048      125.496        0.077      340.167       13.997      858.464
11/13/2014  12:48:00     -548.047     -175.380      -38.062      270.924      243.991      118.975    73399.848    59531.603    14155.020       23.979        7.354      575.424      145.830        0.064      340.010       13.732      858.455
11/13/2014  12:49:00     -459.226     -150.107      -11.460      247.767      224.938      113.939    61388.425    50597.193    12982.188       17.923        6.248      483.136      121.520        0.063      340.045       13.792      858.439
11/13/2014  12:50:00     -228.409     -160.092       12.287      253.621      133.090       89.492    64323.809    17713.079     8008.827        8.398        4.502      278.927      117.016        0.176      340.261       14.158      858.450
11/13/2014  12:51:00     -490.441        8.496      -16.472      244.019      196.578       93.354    59545.039    38643.105     8714.890       17.387        5.345      490.515      104.392        0.045      340.228       14.100      858.453
11/13/2014  12:52:00     -355.433     -300.993       10.547      322.202      268.811      106.779   103814.442    72259.579    11401.836       20.222        9.374      465.757      153.455        0.109      340.169       14.002      858.429
11/13/2014  12:53:00     -517.537     -296.222      -26.085      267.332      228.481      114.922    71466.312    52203.475    13207.113       24.655        6.844      596.315      129.078        0.047      339.934       13.604      858.390
11/13/2014  12:54:00     -308.934     -180.234       11.128      245.612      173.854      106.369    60325.177    30225.134    11314.366       11.494        5.093      357.666      135.875        0.144      340.142       13.955      858.404
11/13/2014  12:55:00     -428.315     -175.225      -23.338      245.034      203.318       94.940    60041.688    41338.293     9013.584       16.253        5.520      462.771      115.534        0.062      340.083       13.856      858.443
11/13/2014  12:56:00     -489.853     -302.741        0.078      267.033      294.523      131.978    71306.414    86744.018    17418.106       25.350        8.773      575.854      142.269        0.061      340.004       13.723      858.386
11/13/2014  12:57:00     -419.117     -222.722      -14.069      255.230      228.657      114.109    65142.206    52283.971    13020.778       17.793        6.522      474.620      101.258        0.046      340.081       13.852      858.355
11/13/2014  12:58:00     -449.998     -268.027      -15.387      288.728      200.479      133.528    83364.119    40191.679    17829.702       20.795        7.069      523.772      143.147        0.075      340.031       13.767      858.354
11/13/2014  12:59:00     -248.965     -214.861        7.420      224.658      165.771      105.551    50471.277    27480.103    11141.086        9.863        4.455      328.860      120.252        0.134      340.128       13.932      858.367
11/13/2014  13:00:00     -344.867     -168.062      -19.794      185.082      146.134       85.144    34255.406    21355.247     7249.457       10.520        3.143      383.638       87.355        0.052      340.177       14.013      858.349
11/13/2014  13:01:00     -343.110     -239.322       -2.914      220.057      184.391      104.558    48425.200    33999.948    10932.368       13.416        4.668      418.330      108.629        0.067      340.171       14.004      858.393
11/13/2014  13:02:00     -398.201     -105.072      -11.691      205.310      214.857       87.963    42152.117    46163.450     7737.501       13.288        4.803      411.830       95.620        0.054      340.136       13.945      858.377
11/13/2014  13:03:00     -280.680       -5.571       -0.055      206.792      162.843       76.324    42762.850    26517.791     5825.408        7.694        3.755      280.735       82.691        0.087      340.371       14.342      858.394
11/13/2014  13:04:00     -388.043      -35.057      -13.307      256.417      137.952       92.004    65749.878    19030.820     8464.728       12.260        4.662      389.623      111.822        0.082      340.213       14.076      858.394
11/13/2014  13:05:00     -190.246      -44.626       -2.291      138.355      143.540       72.809    19142.140    20603.831     5301.134        4.161        2.252      195.410       65.700        0.113      340.288       14.201      858.398
11/13/2014  13:06:00     -334.157     -108.940       -8.312      197.175      168.716       87.764    38877.914    28465.014     7702.598        9.931        3.752      351.467       95.905        0.074      340.254       14.144      858.391
11/13/2014  13:07:00     -287.887      -19.471        5.666      277.416      161.823       98.510    76959.694    26186.637     9704.318        9.805        5.643      288.545      118.931        0.170      340.297       14.219      858.355
11/13/2014  13:08:00     -396.574     -121.759      -21.949      275.454      194.125       88.763    75874.985    37684.478     7878.907       14.698        6.072      414.845       98.130        0.056      340.253       14.144      858.355
11/13/2014  13:09:00     -343.830     -152.916        7.273      286.758      168.816      108.431    82230.347    28498.736    11757.251       13.205        6.124      376.301      120.678        0.103      340.224       14.093      858.358
11/13/2014  13:10:00     -483.917      -42.998      -22.558      279.341      216.686      111.443    78031.318    46952.742    12419.579       18.694        6.870      485.823      122.249        0.063      340.118       13.916      858.373
11/13/2014  13:11:00     -320.727     -241.300       16.238      273.034      247.600      125.350    74547.434    61305.946    15712.624       15.643        7.578      401.362      163.602        0.166      340.169       14.003      858.377
11/13/2014  13:12:00     -371.964     -102.112      -12.826      253.882      237.848       91.824    64456.209    56571.803     8431.688       13.918        6.473      385.725      106.134        0.076      340.128       13.931      858.392
11/13/2014  13:13:00     -609.920     -143.392      -34.294      302.987      192.301      106.228    91800.875    36979.616    11284.473       26.687        7.003      626.549      123.738        0.039      340.031       13.768      858.390
11/13/2014  13:14:00     -451.729     -216.329      -12.036      198.521      167.056       87.877    39410.449    27907.603     7722.409       16.301        3.752      500.856       87.594        0.031      340.120       13.918      858.379
11/13/2014  13:15:00     -307.651      -80.778        0.392      191.654      134.865       83.984    36731.342    18188.513     7053.285        8.156        3.099      318.079      100.805        0.100      340.322       14.260      858.407
11/13/2014  13:16:00     -222.955     -131.125      -15.002      149.501      106.860       53.893    22350.569    11418.977     2904.466        5.189        1.834      258.656       39.045        0.023      340.310       14.239      858.400
11/13/2014  13:17:00     -183.853     -151.354       -3.415      145.545      107.601       79.583    21183.375    11578.022     6333.432        4.790        1.955      238.139       67.352        0.080      340.381       14.358      858.415
11/13/2014  13:18:00     -333.229      -98.484       -1.198      199.054      125.247       69.157    39622.684    15686.735     4782.632        9.041        3.005      347.478       82.548        0.056      340.361       14.326      858.417
11/13/2014  13:19:00     -106.086      -96.905       -2.036      165.654      103.253       71.989    27441.277    10661.183     5182.411        3.196        2.164      143.683       81.892        0.325      340.540       14.629      858.441
11/13/2014  13:20:00     -308.230     -108.098      -22.715      167.816      204.196       87.407    28162.251    41695.979     7639.925        9.234        3.875      326.636       63.684        0.038      340.394       14.381      858.436
11/13/2014  13:21:00     -293.071     -217.633        1.388      233.588      169.384       98.458    54563.164    28690.974     9693.913       11.308        4.647      365.041      120.018        0.108      340.356       14.316      858.442
11/13/2014  13:22:00     -284.089      -79.136        0.683      241.279      159.186      108.379    58215.342    25340.221    11746.009        9.112        4.765      294.905      123.366        0.175      340.319       14.254      858.456
11/13/2014  13:23:00     -505.803      -90.545      -12.834      217.430      147.626       93.597    47275.748    21793.443     8760.321       17.100        3.891      513.844      106.421        0.043      340.252       14.140      858.468
11/13/2014  13:24:00     -351.910      -58.280       10.417      231.761      166.619      105.107    53713.174    27761.759    11047.577       10.992        4.626      356.703      123.467        0.120      340.342       14.294      858.466
11/13/2014  13:25:00     -223.644        5.781        4.699      191.154      138.963       88.533    36539.849    19310.595     7838.006        5.687        3.184      223.718       94.371        0.178      340.578       14.693      858.474
11/13/2014  13:26:00     -338.703      -25.325        1.111      235.666      116.018       80.151    55538.363    13460.066     6424.160        9.538        3.771      339.648      104.767        0.095      340.360       14.323      858.458
11/13/2014  13:27:00     -406.949     -229.957      -20.757      221.629      182.213       94.163    49119.301    33201.574     8866.754       15.503        4.559      467.427      102.144        0.048      340.210       14.069      858.461
11/13/2014  13:28:00     -260.588      -57.920        2.504      207.774      161.955       71.058    43169.952    26229.558     5049.187        7.284        3.722      266.947       82.656        0.096      340.399       14.389      858.475
11/13/2014  13:29:00     -152.005      -78.229       13.374      123.946      111.162       60.471    15362.542    12356.920     3656.797        3.038        1.569      170.954       61.599        0.130      340.549       14.645      858.494
11/13/2014  13:30:00      -52.908      -51.571        6.600       98.909       90.792       62.381     9782.970     8243.176     3891.356        1.371        1.096       73.884       58.045        0.617      340.731       14.954      858.506
11/13/2014  13:31:00     -176.216      -23.996      -30.399      168.870      115.685       53.961    28516.984    13382.911     2911.780        3.867        2.241      177.842       54.359        0.093      340.514       14.585      858.531
11/13/2014  13:32:00     -314.563        2.636      -10.024      217.536      139.725       83.975    47322.122    19523.032     7051.827        8.646        3.695      314.574       98.930        0.099      340.481       14.528      858.516
11/13/2014  13:33:00     -462.369      -83.376      -26.911      167.725      133.890       80.204    28131.665    17926.418     6432.700       13.697        2.625      469.826       68.301        0.021      340.250       14.138      858.519
11/13/2014  13:34:00     -210.472      -16.042       -1.867      221.311      153.663       92.019    48978.467    23612.359     8467.587        6.279        4.053      211.083       93.473        0.196      340.496       14.554      858.512
11/13/2014  13:35:00     -295.130      -16.904       -4.860      185.679      120.265       90.251    34476.871    14463.765     8145.185        7.224        2.854      295.613       97.366        0.108      340.704       14.903      858.543
11/13/2014  13:36:00     -585.393      -71.918      -19.150      211.713      206.188       96.518    44822.398    42513.380     9315.805       22.242        4.833      589.795      104.173        0.031      340.346       14.300      858.541
11/13/2014  13:37:00     -387.791     -165.038       -7.802      273.194      233.075      110.394    74634.829    54323.773    12186.859       15.938        7.057      421.449      125.153        0.088      340.332       14.277      858.514
11/13/2014  13:38:00     -371.266     -297.033      -12.317      250.676      210.724      106.776    62838.335    44404.434    11401.162       17.241        5.932      475.465      126.845        0.071      340.104       13.890      858.531
11/13/2014  13:39:00     -419.418       -3.916      -13.585      192.199      161.826       95.222    36940.439    26187.554     9067.213       12.414        3.610      419.436       99.950        0.057      340.267       14.165      858.550
11/13/2014  13:40:00     -213.318      -47.259       -6.605      166.220       95.468       62.442    27628.945     9114.153     3898.946        4.420        2.032      218.491       71.457        0.107      340.436       14.451      858.598
11/13/2014  13:41:00     -202.677     -119.246       -4.896      143.354      114.977       67.570    20550.439    13219.759     4565.682        4.682        1.917      235.154       72.545        0.095      340.490       14.545      858.637
11/13/2014  13:42:00     -357.100     -122.451      -13.041      226.534      198.695      105.015    51317.585    39479.900    11028.138       12.223        5.091      377.511      118.518        0.099      340.353       14.312      858.581
11/13/2014  13:43:00     -554.795       10.242      -47.672      212.580      165.736       82.373    45190.425    27468.303     6785.319       19.479        3.972      554.889       79.671        0.021      340.290       14.204      858.621
11/13/2014  13:44:00     -640.791     -115.911      -44.000      254.009      186.915       97.037    64520.581    34937.090     9416.110       26.741        5.444      651.190       97.093        0.022      340.120       13.916      858.600
11/13/2014  13:45:00     -431.909     -124.893       -7.645      178.751      153.925       79.353    31951.967    23692.953     6296.935       13.206        3.097      449.604       86.796        0.037      340.125       13.927      858.605
11/13/2014  13:46:00     -393.447     -162.391      -15.567      169.655      163.218       83.679    28782.897    26639.953     7002.241       12.191        3.121      425.642       91.069        0.046      340.147       13.963      858.579
11/13/2014  13:47:00     -189.732      -62.956       -1.620      154.690      127.392       77.498    23929.132    16228.706     6005.892        4.305        2.308      199.904       88.261        0.195      340.320       14.257      858.609
11/13/2014  13:48:00     -266.364       55.969      -26.966      136.920       92.751       52.621    18747.000     8602.821     2768.926        5.246        1.506      272.181       60.704        0.050      340.356       14.318      858.609
11/13/2014  13:49:00     -367.016      -74.747       -4.799      241.207      178.347       91.838    58180.620    31807.587     8434.304       11.935        4.921      374.550      101.146        0.073      340.385       14.367      858.586
11/13/2014  13:50:00     -251.884      -26.508       -1.580      180.635      131.769       94.480    32629.183    17363.093     8926.555        6.152        2.946      253.275       97.265        0.147      340.536       14.621      858.604
11/13/2014  13:51:00     -184.933       -3.886        0.012       91.727      145.244       63.135     8413.824    21095.920     3986.003        3.385        1.675      184.973       61.252        0.110      340.674       14.856      858.625
11/13/2014  13:52:00     -201.171      -94.626        4.858      173.175      157.496       79.974    29989.580    24805.076     6395.843        5.531        3.060      222.315       97.725        0.193      340.567       14.674      858.659
11/13/2014  13:53:00     -409.764     -276.627       -2.317      270.417      216.744      113.688    73125.189    46977.834    12925.067       18.870        6.651      494.398      116.400        0.055      340.276       14.181      858.704
11/13/2014  13:54:00     -433.158     -209.434       -2.839      221.121      204.108      109.482    48894.316    41659.975    11986.305       16.700        5.127      481.133      115.602        0.058      340.101       13.886      858.700
11/13/2014  13:55:00     -349.847     -207.634       17.830      261.693      239.764      109.176    68483.162    57486.590    11919.409       15.183        6.894      406.822      138.393        0.116      340.218       14.085      858.700
11/13/2014  13:56:00     -238.816     -170.319       -2.023      132.838      125.766       69.100    17645.883    15817.126     4774.798        6.213        1.912      293.329       69.715        0.056      340.198       14.050      858.734
11/13/2014  13:57:00     -283.241     -141.968        3.686      205.495      217.852       93.081    42228.258    47459.667     8664.132        9.935        4.918      316.829      107.974        0.116      340.256       14.148      858.756
11/13/2014  13:58:00     -388.877     -206.220      -23.605      184.651      156.727       86.911    34096.155    24563.342     7553.566       13.025        3.311      440.173       88.564        0.040      340.060       13.816      858.764
11/13/2014  13:59:00     -296.474     -196.262      -12.991      164.054      150.309       85.079    26913.746    22592.678     7238.479        9.165        2.837      355.550       90.277        0.064      340.104       13.891      858.802
11/13/2014  14:00:00     -221.866     -168.321       -4.827      142.270      107.622       62.356    20240.895    11582.469     3888.273        5.664        1.786      278.490       50.757        0.033      340.124       13.925      858.833
11/13/2014  14:01:00     -240.462     -219.353      -10.511      114.181      159.692       61.049    13037.308    25501.405     3727.032        7.415        2.113      325.481       59.911        0.034      340.234       14.111      858.823
11/13/2014  14:02:00     -286.518     -203.983        8.185      159.642      127.613       74.771    25485.671    16285.139     5590.763        8.556        2.368      351.713       66.835        0.036      340.184       14.026      858.823
11/13/2014  14:03:00     -271.384     -145.165      -15.143      140.514       97.758       55.779    19744.107     9556.664     3111.287        6.368        1.621      307.769       50.471        0.027      340.157       13.979      858.854
11/13/2014  14:04:00     -257.030     -351.648      -26.461      125.227      135.592       69.210    15681.746    18385.119     4790.076       11.463        1.943      435.570       64.648        0.022      340.041       13.784      858.868
11/13/2014  14:05:00     -139.206     -333.037       -5.165      123.620      152.615       72.171    15281.867    23291.248     5208.649        8.704        2.189      360.960       44.268        0.015      340.137       13.946      858.881
11/13/2014  14:06:00     -228.182     -333.580      -20.013      141.404      158.358       76.046    19995.213    25077.266     5783.040       10.729        2.543      404.156       62.866        0.024      340.076       13.843      858.861
11/13/2014  14:07:00     -219.327     -250.158       -2.991      181.037      155.563       72.920    32774.453    24199.974     5317.280        8.648        3.115      332.691       67.274        0.041      340.212       14.071      858.870
11/13/2014  14:08:00     -190.815     -291.146      -12.876      113.559      112.373       65.613    12895.556    12627.673     4305.096        7.558        1.491      348.104       58.218        0.028      340.266       14.165      858.885
11/13/2014  14:09:00     -154.190     -198.058      -10.686      100.476      111.340       53.614    10095.468    12396.487     2874.458        4.424        1.268      251.001       30.643        0.015      340.247       14.131      858.926
11/13/2014  14:10:00      -19.566     -101.034       -8.022      159.169      107.783       49.792    25334.634    11617.113     2479.240        2.504        1.972      102.911       37.020        0.129      340.467       14.505      858.903
11/13/2014  14:11:00     -196.056      -63.211        2.069      135.970       77.816       60.569    18487.920     6055.279     3668.554        3.532        1.411      205.994       73.348        0.127      340.814       15.092      858.961
11/13/2014  14:12:00     -305.026     -372.243      -15.988      245.768      246.708       81.558    60402.019    60864.918     6651.729       17.986        6.396      481.254      105.498        0.048      340.031       13.769      858.995
11/13/2014  14:13:00     -308.275     -148.065       12.262      229.775      153.338       95.530    52796.643    23512.517     9126.010       10.125        4.272      341.989      102.043        0.089      340.193       14.040      858.923
11/13/2014  14:14:00     -211.664     -114.140       20.258      144.262      134.147       74.731    20811.658    17995.300     5584.783        5.131        2.220      240.478       72.884        0.092      340.312       14.242      858.956
11/13/2014  14:15:00     -367.543     -202.124        4.991      238.931      172.665       94.099    57087.849    29813.349     8854.707       13.584        4.788      419.454      111.941        0.071      340.168       13.999      858.985
11/13/2014  14:16:00     -229.838     -274.604       11.619      147.978      191.507       75.964    21897.621    36675.013     5770.567        9.634        3.217      358.096       73.057        0.042      340.071       13.835      859.017
11/13/2014  14:17:00     -264.917     -109.212      -12.289      157.471       93.164       62.004    24797.194     8679.616     3844.491        5.978        1.866      286.546       53.727        0.035      340.202       14.057      859.005
11/13/2014  14:18:00     -308.351      -37.614       -2.967      174.958      135.042       74.951    30610.312    18236.307     5617.659        7.547        2.723      310.636       77.891        0.063      340.197       14.047      859.019
11/13/2014  14:19:00     -230.330     -126.292       -9.205      125.132      117.382       52.354    15658.066    13778.520     2740.904        5.063        1.609      262.682       52.725        0.040      340.176       14.013      859.046
11/13/2014  14:20:00     -292.597     -171.464       14.316      195.105      182.094       82.271    38066.115    33158.072     6768.462        9.659        3.900      339.135       82.645        0.059      340.104       13.891      859.052
11/13/2014  14:21:00     -378.331     -239.892       12.135      278.832      155.579      106.400    77747.445    24204.834    11320.999       15.703        5.664      447.976      121.097        0.073      340.187       14.031      859.009
11/13/2014  14:22:00     -155.051      -84.762       -7.748      162.059      118.613       75.499    26263.245    14068.957     5700.164        3.865        2.302      176.707       74.242        0.177      340.265       14.164      859.045
11/13/2014  14:23:00     -477.196     -127.602      -12.323      224.601      206.423       94.646    50445.800    42610.453     8957.881       17.306        5.101      493.962       97.200        0.039      340.239       14.118      859.067
11/13/2014  14:24:00     -297.274     -257.154       -0.960      210.027      178.959       87.356    44111.225    32026.496     7631.067       11.912        4.188      393.065       92.899        0.056      340.043       13.788      859.060
11/13/2014  14:25:00     -203.584     -244.442       -3.493      221.392      159.464       70.435    49014.406    25428.771     4961.130        9.029        3.970      318.117       76.277        0.057      340.252       14.141      859.090
11/13/2014  14:26:00      -61.443      -96.803        8.098       92.245       65.519       51.500     8509.229     4292.743     2652.217        1.433        0.773      114.657       35.113        0.094      340.437       14.456      859.105
11/13/2014  14:27:00      -17.758     -160.271       21.044      106.432      146.667       56.714    11327.701    21511.337     3216.483        3.124        1.803      161.252       55.234        0.117      340.386       14.367      859.132
11/13/2014  14:28:00     -188.811      -79.872       -7.142       86.057       64.184       42.404     7405.802     4119.588     1798.122        2.770        0.666      205.011       38.418        0.035      340.572       14.682      859.128
11/13/2014  14:29:00      -72.796     -196.226       -4.622      112.917      130.880       59.031    12750.356    17129.576     3484.692        3.859        1.668      209.294       20.429        0.010      340.369       14.340      859.147
11/13/2014  14:30:00     -278.444     -172.875      -22.690      130.846      114.769       63.887    17120.613    13171.981     4081.591        7.115        1.719      327.745       69.153        0.045      340.400       14.389      859.175
11/13/2014  14:31:00     -177.170      -84.237        7.111      116.923      108.062       50.652    13670.989    11677.358     2565.674        3.322        1.396      196.176       53.985        0.076      340.463       14.497      859.166
11/13/2014  14:32:00     -248.769     -342.273       -6.889      142.407      154.357       61.057    20279.780    23826.071     3728.005       11.345        2.392      423.127       53.900        0.016      340.278       14.186      859.191
11/13/2014  14:33:00     -194.197     -176.031      -18.893      102.970      118.829       43.664    10602.798    14120.341     1906.537        4.784        1.331      262.105       34.132        0.017      340.205       14.061      859.183
11/13/2014  14:34:00     -135.115     -165.926        3.014       76.610       72.876       39.679     5869.048     5310.943     1574.429        2.927        0.638      213.980       35.179        0.027      340.260       14.155      859.221
11/13/2014  14:35:00     -114.658     -107.558        0.493       53.464       72.552       44.685     2858.442     5263.788     1996.733        1.742        0.506      157.211       32.592        0.043      340.432       14.446      859.213
11/13/2014  14:36:00     -180.206     -221.472      -17.102      105.528      136.140       69.176    11136.103    18534.078     4785.365        5.813        1.723      285.524       59.991        0.044      340.251       14.140      859.246
11/13/2014  14:37:00     -249.648     -231.336       -2.830      120.486      140.163       59.485    14516.800    19645.569     3538.511        7.677        1.885      340.353       61.825        0.033      340.143       13.954      859.237
11/13/2014  14:38:00     -218.979     -211.134       -6.662      135.699      150.902       64.285    18414.179    22771.264     4132.500        6.894        2.266      304.186       74.147        0.059      340.144       13.956      859.222
11/13/2014  14:39:00     -182.346     -169.237       -4.686      132.165      130.724       66.395    17467.601    17088.808     4408.284        5.043        1.948      248.779       72.401        0.085      340.233       14.108      859.252
11/13/2014  14:40:00     -177.142     -125.706        0.341      115.535       98.344       58.720    13348.362     9671.490     3448.023        3.682        1.323      217.213       66.432        0.094      340.318       14.251      859.271
11/13/2014  14:41:00     -163.951     -187.680       -2.055      159.342       99.381       75.621    25389.852     9876.552     5718.499        5.154        2.049      249.206       81.605        0.107      340.143       13.958      859.300
11/13/2014  14:42:00     -130.787      -79.883        4.775       82.674       89.524       40.602     6834.952     8014.471     1648.525        2.000        0.825      153.253       32.683        0.045      340.247       14.134      859.295
11/13/2014  14:43:00      -61.617      -19.032        3.777       84.259       67.417       42.621     7099.603     4545.032     1816.547        0.881        0.673       64.490       41.984        0.424      340.502       14.566      859.294
11/13/2014  14:44:00      -60.674      -42.020        8.539       68.472       64.768       31.284     4688.380     4194.897      978.700        0.769        0.493       73.804       33.392        0.205      340.412       14.414      859.278
11/13/2014  14:45:00      -59.865     -194.285      -12.626       86.957      164.599       41.263     7561.512    27092.923     1702.661        3.892        1.818      203.299       31.428        0.024      340.142       13.955      859.279
11/13/2014  14:46:00     -151.855      -98.374      -11.216      148.950       74.964       53.161    22186.138     5619.631     2826.143        3.174        1.532      180.935       56.563        0.098      340.300       14.224      859.236
11/13/2014  14:47:00     -157.833     -190.513       -2.739      181.903      156.033       67.188    33088.656    24346.388     4514.223        6.157        3.097      247.400       74.688        0.091      340.331       14.274      859.304
11/13/2014  14:48:00     -376.957     -193.968       -3.927      150.385      119.862       69.190    22615.643    14366.872     4787.276       11.074        2.088      423.935       80.470        0.036      339.947       13.626      859.325
11/13/2014  14:49:00     -381.913      -10.769      -28.102      158.519      146.237       64.334    25128.250    21385.130     4138.914        9.870        2.533      382.065       75.933        0.039      340.100       13.885      859.290
11/13/2014  14:50:00     -181.881      -96.464       10.401      174.630       95.212       60.627    30495.734     9065.283     3675.580        4.286        2.162      205.879       79.766        0.150      340.247       14.133      859.272
11/13/2014  14:51:00     -202.791      -58.939      -11.046      146.381       98.025       56.992    21427.425     9608.911     3248.034        3.950        1.714      211.182       74.478        0.124      340.332       14.278      859.279
11/13/2014  14:52:00     -226.861      -65.747      -12.665       80.252       76.515       41.187     6440.348     5854.566     1696.338        3.497        0.700      236.196       35.435        0.023      340.225       14.094      859.269
11/13/2014  14:53:00     -154.227      -19.596       12.725       98.886       91.478       52.562     9778.469     8368.202     2762.721        2.262        1.045      155.467       49.838        0.103      340.417       14.420      859.293
11/13/2014  14:54:00     -229.010     -108.507      -14.915      113.573      138.074       61.133    12898.805    19064.477     3737.257        5.006        1.785      253.415       67.813        0.072      340.312       14.242      859.315
11/13/2014  14:55:00     -199.196      -54.057      -26.601      121.004      137.212       56.320    14641.877    18827.178     3171.976        3.997        1.832      206.401       37.943        0.034      340.084       13.858      859.308
11/13/2014  14:56:00     -566.206     -157.254      -16.496      258.007      164.749       76.513    66567.470    27142.258     5854.202       22.256        4.978      587.638       74.217        0.016      340.027       13.761      859.240
11/13/2014  14:57:00     -469.961     -193.769      -19.017      168.978      121.050       65.783    28553.494    14653.061     4327.426       15.314        2.377      508.340       64.518        0.016      339.905       13.556      859.289
11/13/2014  14:58:00     -257.125     -157.833      -24.705      122.016      116.099       56.911    14888.018    13478.927     3238.885        6.161        1.580      301.703       58.826        0.038      340.061       13.817      859.336
11/13/2014  14:59:00     -220.863     -165.833       -3.066      116.917      102.273       60.446    13669.679    10459.787     3653.744        5.203        1.389      276.190       48.663        0.031      340.117       13.912      859.365
11/13/2014  15:00:00     -251.748     -208.071        1.742      133.277      104.017       72.043    17762.660    10819.520     5190.251        7.022        1.689      326.604       78.223        0.057      340.154       13.975      859.379
11/13/2014  15:01:00     -348.451     -181.189        2.108      154.068      124.079       64.174    23737.058    15395.492     4118.344        9.874        2.163      392.744       70.373        0.032      340.155       13.976      859.395
11/13/2014  15:02:00     -179.444     -227.280       -3.328      142.207      100.012       54.073    20222.799    10002.347     2923.938        5.850        1.657      289.580       38.491        0.018      339.880       13.513      859.401
11/13/2014  15:03:00     -244.038     -132.008       -1.989       92.327       82.206       50.268     8524.215     6757.771     2526.898        4.739        0.890      277.454       42.380        0.023      340.040       13.781      859.398
11/13/2014  15:04:00     -410.714     -107.170      -30.865      232.915      161.082       60.149    54249.206    25947.383     3617.846       13.245        4.191      424.466       83.896        0.039      339.913       13.568      859.400
11/13/2014  15:05:00     -306.006      -98.872        3.205      152.740      115.479       61.502    23329.456    13335.409     3782.475        7.193        2.022      321.583       64.183        0.040      339.916       13.575      859.390
11/13/2014  15:06:00     -428.747     -219.228      -11.696      171.978      167.073       87.068    29576.469    27913.298     7580.789       14.853        3.254      481.544       93.499        0.038      340.009       13.730      859.401
11/13/2014  15:07:00     -290.601     -137.178        6.408      177.263      152.279       75.288    31422.331    23188.891     5668.243        8.178        3.014      321.351       91.593        0.081      339.984       13.688      859.432
11/13/2014  15:08:00     -516.471     -214.351      -39.613      168.830      117.381       91.712    28503.552    13778.244     8411.011       18.247        2.535      559.186       96.822        0.030      339.817       13.406      859.402
11/13/2014  15:09:00     -376.177      -85.542      -23.792      167.372      141.125       72.896    28013.352    19916.300     5313.818       10.131        2.662      385.780       74.255        0.037      339.945       13.621      859.390
11/13/2014  15:10:00     -306.540       10.370      -21.641      111.702      118.337       54.255    12477.398    14003.641     2943.619        6.198        1.471      306.715       55.017        0.032      340.109       13.900      859.362
11/13/2014  15:11:00     -266.434      -49.870      -17.935      133.193       83.911       57.042    17740.368     7041.112     3253.809        5.091        1.402      271.061       70.570        0.068      340.019       13.748      859.379
11/13/2014  15:12:00     -161.099      -54.948       -0.618      139.687       88.359       54.760    19512.505     7807.250     2998.621        2.964        1.516      170.212       58.185        0.117      340.179       14.018      859.380
11/13/2014  15:13:00      -86.192      -10.882       18.570       89.484       92.227       56.017     8007.426     8505.865     3137.950        1.377        0.983       86.876       58.523        0.454      340.380       14.360      859.404
11/13/2014  15:14:00     -187.958     -176.411       -9.747       91.194      114.291       43.479     8316.360    13062.480     1890.386        4.490        1.163      257.778       46.134        0.032      340.103       13.889      859.434
11/13/2014  15:15:00      -90.812      -78.430        4.821      118.128      106.174       65.343    13954.223    11272.823     4269.717        2.195        1.475      119.992       62.249        0.269      340.119       13.918      859.421
11/13/2014  15:16:00     -188.777     -114.512      -13.254      113.332       92.906       38.605    12844.145     8631.543     1490.367        3.594        1.148      220.793       31.654        0.021      340.069       13.833      859.433
11/13/2014  15:17:00     -313.275      -65.207      -18.617       97.407       74.434       47.264     9488.063     5540.448     2233.843        6.000        0.863      319.990       49.546        0.024      339.935       13.605      859.435
11/13/2014  15:18:00     -347.677      -37.618        5.726      193.104      139.341       78.273    37289.283    19415.866     6126.737        9.257        3.142      349.706       90.229        0.067      340.085       13.860      859.450
11/13/2014  15:19:00     -392.490      -83.241      -34.042      166.027      146.449       86.240    27564.858    21447.387     7437.361       10.928        2.822      401.220       89.653        0.050      339.897       13.542      859.424
11/13/2014  15:20:00     -351.155     -288.624       -4.281      229.818      192.078      111.392    52816.101    36893.921    12408.258       15.435        5.106      454.547      122.385        0.072      339.807       13.390      859.456
11/13/2014  15:21:00     -313.732      -81.155       -1.334      190.429      160.987       79.925    36263.333    25916.751     6387.955        8.678        3.428      324.058       86.661        0.072      339.819       13.410      859.432
11/13/2014  15:22:00     -222.141     -146.102       26.584      226.904      155.491       89.700    51485.251    24177.359     8046.161        7.754        4.185      265.881      106.582        0.161      339.840       13.445      859.424
11/13/2014  15:23:00     -327.563     -153.778        2.570      239.069      264.393      111.622    57153.925    69903.488    12459.416       13.521        6.976      361.864      140.059        0.150      339.866       13.489      859.404
11/13/2014  15:24:00     -300.835      -60.624      -11.294      141.671      177.940       70.875    20070.696    31662.793     5023.206        7.552        2.838      306.883       66.159        0.046      339.878       13.511      859.413
11/13/2014  15:25:00     -380.365      -71.747       -9.594      142.084      121.294       69.005    20187.838    14712.337     4761.691        9.478        1.983      387.073       72.638        0.035      339.768       13.324      859.409
11/13/2014  15:26:00     -406.837      -80.664      -21.715      182.034      165.722       78.546    33136.239    27463.900     6169.451       11.962        3.338      414.757       83.432        0.040      339.867       13.491      859.409
11/13/2014  15:27:00     -344.811      -97.642       -8.314      226.034      151.543       82.294    51091.173    22965.261     6772.322       10.465        4.041      358.369       97.700        0.074      339.863       13.485      859.406
11/13/2014  15:28:00     -356.569     -167.457      -13.105      182.648      105.701       71.367    33360.161    11172.686     5093.235       10.248        2.481      393.934       76.198        0.037      339.747       13.290      859.392
11/13/2014  15:29:00     -340.084     -156.812      -14.629      160.826      136.591       80.786    25865.037    18657.181     6526.399        9.574        2.552      374.495       90.556        0.058      339.772       13.333      859.417
11/13/2014  15:30:00     -256.999      -61.883      -11.953      134.542      114.170       62.528    18101.571    13034.827     3909.769        5.253        1.752      264.345       55.634        0.044      339.950       13.631      859.399
11/13/2014  15:31:00     -343.989     -123.642      -18.443      150.550      121.943       60.795    22665.395    14870.038     3696.080        8.759        2.062      365.535       61.797        0.029      339.821       13.413      859.398
11/13/2014  15:32:00     -452.412      -29.609      -35.185      309.584      175.197       92.481    95842.133    30693.950     8552.796       17.091        6.754      453.380      125.188        0.076      339.857       13.475      859.323
11/13/2014  15:33:00     -427.799     -315.087      -13.088      257.855      213.495       98.633    66488.968    45580.126     9728.408       20.211        6.090      531.311      125.742        0.056      339.819       13.411      859.335
11/13/2014  15:34:00     -432.122     -137.519      -11.776      266.036      171.707      101.006    70775.039    29483.142    10202.158       15.810        5.523      453.477      121.250        0.071      339.803       13.383      859.358
11/13/2014  15:35:00     -376.968     -104.786      -12.072      205.083      152.462       75.595    42059.114    23244.717     5714.579       11.211        3.551      391.261       78.005        0.040      339.803       13.383      859.352
11/13/2014  15:36:00     -281.678      -63.977       -1.209      153.268      101.334       68.788    23490.970    10268.642     4731.816        6.096        1.925      288.852       73.738        0.065      339.989       13.697      859.381
11/13/2014  15:37:00     -306.190     -121.696       -0.106      147.086      117.532       66.468    21634.209    13813.872     4417.975        7.421        1.993      329.488       63.609        0.037      339.874       13.503      859.370
11/13/2014  15:38:00     -414.188      -67.384      -10.979      150.532      160.187       72.224    22659.831    25659.898     5216.244       11.486        2.677      419.634       63.758        0.023      339.885       13.521      859.378
11/13/2014  15:39:00     -448.293     -146.993      -47.264      170.613      135.555       68.677    29108.657    18375.031     4716.530       13.849        2.610      471.777       66.783        0.020      339.761       13.312      859.369
11/13/2014  15:40:00     -326.812      -68.836        4.813      198.989      137.352       72.944    39596.789    18865.442     5320.841        8.766        3.189      333.983       82.085        0.060      339.919       13.579      859.388
11/13/2014  15:41:00     -425.265     -138.949      -21.601      172.714      158.297       82.215    29830.085    25057.815     6759.347       13.112        3.082      447.389       87.367        0.038      339.749       13.292      859.377
11/13/2014  15:42:00     -237.139     -129.641       -6.309      212.396      140.132       81.315    45111.932    19636.979     6612.179        7.221        3.568      270.263       76.281        0.080      339.737       13.274      859.385
11/13/2014  15:43:00     -379.526      -63.232      -19.543      164.177      145.602       71.134    26954.093    21199.802     5060.051       10.081        2.661      384.758       80.537        0.044      339.723       13.247      859.376
11/13/2014  15:44:00     -335.569      -17.582       -3.964      137.592      121.223       80.032    18931.449    14695.088     6405.182        7.647        2.002      336.030       82.003        0.060      339.809       13.394      859.385
11/13/2014  15:45:00     -240.110     -101.987        5.323      184.352      152.232       78.298    33985.666    23174.626     6130.568        6.567        3.165      260.872       86.527        0.110      339.694       13.201      859.387
11/13/2014  15:46:00     -265.817     -160.288       -7.404      133.279      125.361       66.668    17763.387    15715.502     4444.655        6.716        1.896      310.405       70.429        0.051      339.668       13.156      859.426
11/13/2014  15:47:00     -405.285     -110.354      -11.866      180.422      148.531       79.412    32552.278    22061.522     6306.310       11.874        3.046      420.040       90.007        0.046      339.663       13.147      859.448
11/13/2014  15:48:00     -443.920      -25.454      -16.507      156.733      139.670       82.681    24565.306    19507.725     6836.140       12.444        2.545      444.650       88.502        0.040      339.671       13.161      859.460
11/13/2014  15:49:00     -409.238      -58.737       -5.959      151.493      122.198       68.097    22950.040    14932.431     4637.243       10.673        2.126      413.432       70.069        0.029      339.662       13.147      859.460
11/13/2014  15:50:00     -362.254      -56.989      -20.272      146.106      121.383       75.640    21347.101    14733.738     5721.460        8.834        2.090      366.710       74.237        0.041      339.683       13.182      859.454
11/13/2014  15:51:00     -273.692     -109.745      -14.107      178.792      115.879       68.342    31966.498    13427.903     4670.692        6.860        2.503      294.875       81.490        0.076      339.651       13.127      859.425
11/13/2014  15:52:00     -201.222     -108.005       14.954      165.332      101.750       70.131    27334.748    10353.066     4918.399        4.748        2.130      228.375       84.098        0.136      339.622       13.077      859.423
11/13/2014  15:53:00     -339.132     -191.905        1.338      172.866      156.302       66.532    29882.512    24430.270     4426.517       10.528        2.937      389.664       78.855        0.041      339.577       13.002      859.409
11/13/2014  15:54:00     -350.097     -250.403      -24.230      194.846      152.319       81.915    37965.080    23201.130     6710.048       12.685        3.394      430.430       92.087        0.046      339.542       12.944      859.320
11/13/2014  15:55:00     -309.884      -81.087       -7.348      157.248      111.290       75.426    24726.902    12385.557     5689.153        7.272        2.140      320.318       86.121        0.072      339.594       13.032      859.358
11/13/2014  15:56:00     -359.916      -92.169       -4.074      161.906      134.342       67.364    26213.538    18047.849     4537.909        9.342        2.440      371.530       69.623        0.035      339.557       12.968      859.348
11/13/2014  15:57:00     -398.570     -141.713      -18.977      224.970      146.703       88.263    50611.580    21521.743     7790.312       12.960        3.996      423.014       92.561        0.048      339.540       12.939      859.364
11/13/2014  15:58:00     -435.984      -89.605      -30.478      214.105      127.381       70.733    45840.935    16225.920     5003.223       13.304        3.354      445.097       86.198        0.038      339.534       12.928      859.353
11/13/2014  15:59:00     -465.390      -88.394       -0.051      355.622      168.800      111.754   126466.815    28493.463    12488.884       19.589        8.372      473.710      146.909        0.096      339.511       12.891      859.349
11/13/2014  16:00:00     -672.467     -226.245      -30.045      257.425      228.524      122.382    66267.749    52223.034    14977.438       31.886        6.673      709.506      131.395        0.034      339.434       12.760      859.336
11/13/2014  16:01:00     -462.956     -231.923       -1.785      268.627      235.850      120.973    72160.438    55625.117    14634.378       20.524        7.121      517.800      139.960        0.073      339.478       12.836      859.371
11/13/2014  16:02:00     -484.423     -351.681      -16.585      194.559      184.813       94.891    37853.236    34155.777     9004.265       21.980        4.051      598.619      100.547        0.028      339.443       12.776      859.384
11/13/2014  16:03:00     -433.737     -272.098      -32.280      252.488      143.468       88.938    63750.163    20583.109     7909.995       17.771        4.612      512.021      113.300        0.049      339.442       12.775      859.391
11/13/2014  16:04:00     -217.079     -187.075       -6.315      183.681      127.908       85.496    33738.883    16360.494     7309.531        6.977        2.870      286.567       86.160        0.090      339.438       12.768      859.359
11/13/2014  16:05:00     -468.092     -210.204      -29.102      234.216      174.449       99.092    54857.196    30432.417     9819.246       17.961        4.755      513.124      113.542        0.049      339.398       12.702      859.323
11/13/2014  16:06:00     -278.397     -175.781       15.019      223.087      196.140       96.084    49767.922    38470.859     9232.169       10.303        4.874      329.248      106.583        0.105      339.399       12.703      859.279
11/13/2014  16:07:00     -344.947      -89.119      -40.668      215.805      109.609       76.246    46571.964    12014.068     5813.451        9.648        3.220      356.273       86.344        0.059      339.403       12.710      859.239
11/13/2014  16:08:00     -223.505     -120.256      -10.165      134.716       97.928       64.641    18148.320     9589.903     4178.432        4.821        1.596      253.803       54.542        0.046      339.458       12.803      859.205
11/13/2014  16:09:00     -332.622     -220.402       -7.451      171.887      119.576       87.111    29545.298    14298.371     7588.289       10.534        2.572      399.017       88.707        0.049      339.371       12.656      859.165
11/13/2014  16:10:00     -512.115      -93.319      -22.807      234.164      174.463       92.427    54832.633    30437.408     8542.819       18.263        4.691      520.548      104.025        0.040      339.375       12.661      859.138
11/13/2014  16:11:00     -445.447     -226.732      -20.313      272.920      164.602      101.505    74485.486    27093.687    10303.228       18.104        5.594      499.830      119.992        0.058      339.336       12.596      859.121
11/13/2014  16:12:00     -290.877     -169.293      -14.294      171.551      134.968       90.091    29429.743    18216.257     8116.356        8.461        2.788      336.556       90.291        0.072      339.369       12.651      859.127
11/13/2014  16:13:00     -333.265     -150.661      -16.799      225.115      149.646       89.238    50676.552    22394.058     7963.417       10.752        4.052      365.738       90.722        0.062      339.337       12.598      859.131
11/13/2014  16:14:00     -286.301     -187.859        0.951      225.224      145.007       91.473    50725.820    21027.013     8367.249        9.867        4.006      342.431      109.140        0.102      339.325       12.577      859.144
11/13/2014  16:15:00     -302.926     -180.771       -3.928      174.137      141.227       83.660    30323.522    19945.092     6999.008        9.085        2.863      352.764       96.297        0.075      339.313       12.556      859.147
11/13/2014  16:16:00     -337.395      -59.728       -1.184      163.592      128.607       69.898    26762.225    16539.719     4885.722        8.279        2.409      342.641       69.955        0.042      339.338       12.599      859.127
11/13/2014  16:17:00     -227.738        0.326       -2.371      137.320      118.742       61.913    18856.689    14099.743     3833.204        4.432        1.839      227.739       63.359        0.077      339.395       12.696      859.100
11/13/2014  16:18:00     -199.883     -100.662        1.046      154.412      126.734       71.202    23842.928    16061.548     5069.695        4.752        2.249      223.799       68.986        0.095      339.377       12.666      859.084
11/13/2014  16:19:00     -197.917      -71.591        9.805      108.950      106.765       59.898    11870.052    11398.763     3587.819        3.562        1.343      210.467       62.641        0.089      339.363       12.641      859.092
11/13/2014  16:20:00     -243.655      -68.903      -21.559      135.403       96.477       52.995    18333.959     9307.769     2808.421        4.751        1.523      253.210       53.086        0.044      339.337       12.599      859.107
11/13/2014  16:21:00     -301.957     -151.570      -36.306      179.884      101.853       67.780    32358.081    10373.934     4594.157        8.139        2.366      337.863       67.626        0.040      339.287       12.514      859.120
11/13/2014  16:22:00     -280.269      -49.986        0.727      198.342      135.021       75.025    39339.354    18230.618     5628.784        7.211        3.160      284.692       73.720        0.067      339.340       12.604      859.124
11/13/2014  16:23:00     -303.579      -46.457      -13.064      143.211      107.226       63.078    20509.330    11497.448     3978.849        6.523        1.799      307.113       63.471        0.043      339.286       12.513      859.138
11/13/2014  16:24:00     -273.557     -135.029        2.932      151.314       94.583       72.123    22895.850     8945.982     5201.788        6.505        1.852      305.068       68.399        0.050      339.262       12.472      859.151
11/13/2014  16:25:00     -262.942     -132.733       -2.241      127.031      130.160       62.957    16136.939    16941.640     3963.632        6.189        1.852      294.545       65.918        0.050      339.231       12.420      859.144
11/13/2014  16:26:00     -277.693      -31.480       -7.499      162.429      151.483       69.445    26383.100    22947.005     4822.557        6.615        2.708      279.471       56.796        0.041      339.364       12.644      859.141
11/13/2014  16:27:00     -366.041     -104.080      -13.381      156.991      123.675       72.292    24646.235    15295.427     5226.156        9.507        2.258      380.551       74.469        0.038      339.225       12.410      859.144
11/13/2014  16:28:00     -226.636     -141.350      -10.170      133.016       96.658       68.444    17693.384     9342.777     4684.587        5.158        1.586      267.102       52.414        0.039      339.211       12.386      859.158
11/13/2014  16:29:00     -320.908     -167.725      -29.440      180.386      122.901       73.771    32538.954    15104.624     5442.219        9.252        2.654      362.096       83.107        0.053      339.209       12.383      859.153
11/13/2014  16:30:00     -154.198      -61.617        5.841      114.346       83.977       52.111    13074.971     7052.220     2715.553        2.522        1.142      166.053       56.480        0.116      339.246       12.445      859.162
11/13/2014  16:31:00     -183.825     -145.086      -10.747      145.928       99.245       63.131    21295.101     9849.572     3985.536        4.504        1.757      234.183       73.963        0.100      339.202       12.370      859.174
11/13/2014  16:32:00     -205.196      -99.914       -3.402      107.336       98.304       48.599    11520.972     9663.708     2361.864        3.782        1.177      228.228       50.639        0.049      339.195       12.359      859.193
11/13/2014  16:33:00     -175.481     -139.188       -6.552       74.976       66.259       43.146     5621.379     4390.290     1861.586        3.104        0.594      223.979       38.789        0.030      339.180       12.334      859.220
11/13/2014  16:34:00     -193.087      -34.718      -10.927       85.966      107.539       41.675     7390.231    11564.567     1736.823        2.965        1.035      196.184       40.383        0.042      339.253       12.457      859.232
11/13/2014  16:35:00     -177.378      -96.004       -6.303      115.862      126.856       50.488    13423.945    16092.367     2549.025        3.639        1.603      201.692       61.421        0.093      339.244       12.443      859.248
11/13/2014  16:36:00      -47.981      -81.728       33.896      105.929      113.797       59.468    11221.030    12949.841     3536.421        1.891        1.385       94.772       68.454        0.522      339.129       12.249      859.247
11/13/2014  16:37:00     -146.569      -71.164       24.144      139.096      110.609       73.290    19347.704    12234.332     5371.476        3.203        1.848      162.932       79.115        0.236      339.183       12.340      859.252
11/13/2014  16:38:00     -323.902     -136.026       -7.217      173.346      122.090       61.173    30048.893    14906.063     3742.159        8.607        2.435      351.306       71.594        0.042      339.166       12.310      859.259
11/13/2014  16:39:00     -301.198      -85.671      -12.577      138.086      120.333       67.133    19067.732    14480.083     4506.901        6.813        1.903      313.145       70.569        0.051      339.166       12.310      859.253
11/13/2014  16:40:00     -209.283      -89.318       -7.032      143.298      122.985       58.848    20534.212    15125.383     3463.125        4.547        1.956      227.545       75.606        0.110      339.176       12.326      859.250
11/13/2014  16:41:00     -238.192     -127.060       -6.108      108.165      118.217       60.029    11699.701    13975.376     3603.436        5.109        1.464      269.962       58.803        0.047      339.117       12.228      859.259
11/13/2014  16:42:00     -214.270     -190.472       -8.622      119.239       87.213       67.118    14217.991     7606.177     4504.852        5.429        1.316      286.690       67.518        0.055      339.124       12.239      859.267
11/13/2014  16:43:00      -79.640      -66.885       19.447      133.038       85.125       51.141    17699.151     7246.303     2615.369        1.937        1.378      104.001       69.744        0.450      339.101       12.203      859.287
11/13/2014  16:44:00     -121.136      -64.185        5.121       97.645       66.776       45.096     9534.621     4459.097     2033.651        1.742        0.801      137.090       47.090        0.118      339.132       12.256      859.299
11/13/2014  16:45:00     -229.695      -99.002      -11.793      120.664       94.761       48.452    14559.803     8979.631     2347.566        4.429        1.294      250.122       62.328        0.062      339.088       12.178      859.323
11/13/2014  16:46:00      -62.167      -22.758       14.557       61.363       43.483       30.717     3765.425     1890.735      943.536        0.560        0.330       66.202       22.666        0.117      339.092       12.187      859.349
11/13/2014  16:47:00     -173.331       -8.524      -18.118      131.173      108.755       50.230    17206.460    11827.749     2523.072        3.099        1.578      173.540       60.103        0.120      339.171       12.319      859.371
11/13/2014  16:48:00     -248.962     -129.412       -7.479      123.711       68.328       47.505    15304.288     4668.760     2256.767        5.050        1.111      280.588       47.236        0.028      339.053       12.120      859.379
11/13/2014  16:49:00     -173.482      -74.056        3.388      115.379       74.138       52.802    13312.379     5496.483     2788.051        2.859        1.080      188.628       39.631        0.044      339.024       12.072      859.406
11/13/2014  16:50:00     -236.291      -81.253      -13.604      105.079       82.669       51.676    11041.540     6834.189     2670.427        4.158        1.027      249.871       51.584        0.043      339.046       12.109      859.419
11/13/2014  16:51:00      -58.110      -58.063        9.886      100.837       73.241       55.598    10168.151     5364.289     3091.148        1.273        0.931       82.147       58.622        0.509      339.026       12.077      859.421
11/13/2014  16:52:00     -101.765      -94.673       -4.586       92.845       90.087       38.247     8620.217     8115.734     1462.851        1.877        0.910      138.993       50.608        0.133      339.043       12.107      859.423
11/13/2014  16:53:00     -176.612     -124.292       -5.513      109.659      109.314       59.890    12024.995    11949.641     3586.857        3.711        1.378      215.964       58.535        0.073      339.038       12.095      859.392
11/13/2014  16:54:00     -113.301     -117.139       -2.415       92.931       57.719       39.516     8636.120     3331.431     1561.475        2.004        0.676      162.968       47.922        0.086      339.061       12.134      859.377
11/13/2014  16:55:00     -104.483     -170.705       -4.118       75.098       77.962       46.862     5639.757     6078.005     2196.038        2.699        0.696      200.142       36.874        0.034      339.081       12.167      859.388
11/13/2014  16:56:00      -76.417      -94.213        2.622       64.748       52.322       29.709     4192.290     2737.591      882.621        1.127        0.391      121.308       26.991        0.050      339.038       12.098      859.372
11/13/2014  16:57:00      -21.510      -35.919       15.794       72.957       45.642       35.529     5322.782     2083.210     1262.307        0.533        0.433       41.867       35.873        0.734      339.029       12.082      859.386
11/13/2014  16:58:00      -16.283     -109.383       -6.735       47.936       57.045       34.134     2297.890     3254.137     1165.143        0.949        0.336      110.588       25.354        0.053      339.070       12.150      859.381
11/13/2014  16:59:00     -180.786     -207.218       -6.070      124.735       98.005       64.993    15558.916     9605.003     4224.075        5.252        1.469      274.996       53.557        0.038      339.015       12.057      859.379
11/13/2014  17:00:00     -292.977     -211.443      -12.340      141.176      101.153       69.378    19930.795    10231.892     4813.359        8.283        1.749      361.308       74.495        0.043      339.002       12.034      859.384
11/13/2014  17:01:00     -203.916     -174.774       -7.052      148.069       98.535       65.433    21924.431     9709.192     4281.419        5.404        1.796      268.566       68.989        0.066      338.980       11.998      859.404
11/13/2014  17:02:00     -189.903     -165.875      -13.861      123.906       89.506       53.977    15352.581     8011.357     2913.485        4.502        1.314      252.146       55.282        0.048      338.974       11.989      859.409
11/13/2014  17:03:00     -175.102     -107.902       -4.488       89.781       83.613       49.020     8060.591     6991.215     2402.963        2.989        0.873      205.678       45.046        0.048      338.978       11.994      859.417
11/13/2014  17:04:00     -203.367      -15.058      -21.393       83.481       44.410       39.890     6969.017     1972.283     1591.251        2.629        0.527      203.923       27.823        0.019      339.068       12.147      859.421
11/13/2014  17:05:00     -104.100      -64.678        9.468      145.198      101.385       56.486    21082.522    10278.947     3190.643        2.482        1.728      122.556       76.626        0.391      338.953       11.953      859.423
11/13/2014  17:06:00      -56.836      -64.436       17.785       74.931       56.954       33.532     5614.581     3243.761     1124.398        0.884        0.499       85.920       34.124        0.158      339.006       12.045      859.434
11/13/2014  17:07:00     -210.097     -144.622       -4.028      104.793       70.097       39.246    10981.627     4913.522     1540.256        4.125        0.872      255.061       42.852        0.028      338.954       11.952      859.440
11/13/2014  17:08:00     -297.625     -162.354      -15.116      130.290      103.041       52.454    16975.449    10617.474     2751.419        7.275        1.517      339.027       50.021        0.022      338.902       11.867      859.418
11/13/2014  17:09:00     -227.768     -103.667       -5.894       95.572       96.443       57.295     9134.021     9301.307     3282.752        4.218        1.086      250.250       50.901        0.041      338.910       11.880      859.422
11/13/2014  17:10:00      -99.683      -40.691       13.881       88.042       74.571       44.729     7751.394     5560.847     2000.689        1.355        0.766      107.668       50.437        0.219      338.929       11.914      859.436
11/13/2014  17:11:00     -163.133     -135.149       -7.235      109.553       99.253       44.333    12001.908     9851.091     1965.454        3.437        1.191      211.843       40.390        0.036      338.885       11.837      859.433
11/13/2014  17:12:00     -217.518     -160.517       -9.657      111.174       76.789       42.053    12359.768     5896.613     1768.465        4.659        1.001      270.333       46.873        0.030      338.860       11.795      859.444
11/13/2014  17:13:00     -228.134     -112.125      -10.283       92.611       72.784       45.034     8576.801     5297.525     2028.084        4.031        0.795      254.199       43.048        0.029      338.854       11.785      859.434
11/13/2014  17:14:00     -302.672     -168.145      -15.680      150.102      118.729       64.590    22530.462    14096.646     4171.907        8.046        2.040      346.242       72.034        0.043      338.846       11.772      859.413
11/13/2014  17:15:00     -321.177     -246.472        0.270      194.941      134.919       94.629    38001.863    18203.004     8954.554       11.452        3.258      404.850       90.183        0.050      338.853       11.783      859.379
11/13/2014  17:16:00     -366.830     -165.691      -31.598      139.512      104.343       63.796    19463.526    10887.475     4069.941        9.871        1.721      402.514       59.575        0.022      338.848       11.777      859.412
11/13/2014  17:17:00     -324.173     -184.421      -28.110      147.245      101.565       68.048    21680.959    10315.351     4630.568        8.825        1.831      372.960       60.220        0.026      338.856       11.787      859.427
11/13/2014  17:18:00     -323.852     -197.713      -13.463      161.762      106.641       54.464    26167.066    11372.263     2966.321        9.232        2.025      379.435       61.038        0.026      338.848       11.776      859.444
11/13/2014  17:19:00     -276.709     -202.034       -7.954      122.911       97.035       61.314    15107.074     9415.804     3759.458        7.286        1.414      342.616       57.088        0.028      338.836       11.755      859.476
11/13/2014  17:20:00     -300.257     -118.164      -15.704      140.710      116.245       71.121    19799.342    13512.968     5058.180        7.136        1.919      322.672       67.062        0.043      338.879       11.828      859.490
11/13/2014  17:21:00     -275.426     -212.769        4.205      187.713      153.370       80.043    35236.005    23522.303     6406.829        9.314        3.258      348.037       94.645        0.074      338.826       11.738      859.523
11/13/2014  17:22:00     -243.068     -114.282        0.169      167.694      151.701       77.095    28121.305    23013.085     5943.610        6.460        2.854      268.594       91.385        0.116      338.846       11.772      859.538
11/13/2014  17:23:00     -254.148     -150.756      -22.412      155.335      157.062       66.989    24129.111    24668.457     4487.539        7.054        2.664      295.497       69.287        0.055      338.893       11.851      859.523
11/13/2014  17:24:00     -289.544     -214.391        1.944      182.437      132.588       76.182    33283.174    17579.528     5803.744        9.322        2.833      360.277       58.357        0.026      338.819       11.726      859.546
11/13/2014  17:25:00     -333.079     -148.942      -22.656      132.037      125.655       80.592    17433.864    15789.102     6495.011        8.667        1.986      364.863       72.309        0.039      338.795       11.687      859.557
11/13/2014  17:26:00     -228.855     -149.845       10.778      181.233      138.329       86.029    32845.350    19134.892     7401.075        6.715        2.969      273.547       98.628        0.130      338.771       11.646      859.564
11/13/2014  17:27:00     -236.594     -196.165       -7.493      132.052      182.977       68.843    17437.712    33480.408     4739.400        7.507        2.783      307.339       74.386        0.059      338.785       11.671      859.582
11/13/2014  17:28:00     -399.464     -208.140      -13.309      173.111      138.449       77.612    29967.295    19168.131     6023.550       12.910        2.758      450.437       85.341        0.036      338.759       11.626      859.575
11/13/2014  17:29:00     -364.034     -121.297        4.752      216.582      180.801       91.666    46907.886    32688.995     8402.706       11.761        4.400      383.711      114.689        0.089      338.829       11.742      859.582
11/13/2014  17:30:00     -348.470     -161.955       -6.636      161.792      121.188       85.612    26176.653    14686.597     7329.433        9.794        2.410      384.267       87.343        0.052      338.741       11.596      859.584
11/13/2014  17:31:00     -318.840     -164.572       -9.912      180.256      150.833       93.611    32492.375    22750.578     8762.963        9.641        3.200      358.808      105.473        0.086      338.760       11.628      859.582
11/13/2014  17:32:00     -308.014     -189.731       -1.018      158.515      114.666       71.853    25127.027    13148.310     5162.814        8.715        2.172      361.760       85.738        0.056      338.720       11.560      859.606
11/13/2014  17:33:00     -303.993     -139.048        2.734      146.464      143.615       78.006    21451.659    20625.295     6084.902        7.995        2.408      334.284       76.285        0.052      338.705       11.535      859.615
11/13/2014  17:34:00     -356.205      -89.169      -13.705      148.211      124.769       68.851    21966.611    15567.413     4740.393        8.864        2.114      367.196       73.413        0.040      338.708       11.539      859.624
11/13/2014  17:35:00     -309.592     -175.530       -2.488      140.003      113.694       67.524    19600.960    12926.394     4559.546        8.187        1.854      355.890       66.641        0.035      338.710       11.543      859.666
11/13/2014  17:36:00     -242.888     -142.772       -0.056      150.377      144.825       78.674    22613.244    20974.308     6189.637        6.457        2.489      281.742       88.207        0.098      338.699       11.524      859.665
11/13/2014  17:37:00     -230.575     -165.642        3.168      163.617      148.870       72.172    26770.684    22162.344     5208.765        6.737        2.707      283.905       74.446        0.069      338.686       11.502      859.664
11/13/2014  17:38:00     -268.101      -57.179      -19.623      116.813       96.330       52.265    13645.210     9279.374     2731.590        5.059        1.283      274.131       52.971        0.037      338.838       11.758      859.667
11/13/2014  17:39:00     -227.790      -82.443      -17.016      141.242       92.376       66.876    19949.441     8533.272     4472.341        4.596        1.648      242.250       70.852        0.086      338.754       11.617      859.653
11/13/2014  17:40:00     -179.604      -88.548       -3.579      120.466       85.707       60.135    14512.099     7345.732     3616.202        3.279        1.274      200.246       61.860        0.095      338.703       11.530      859.649
11/13/2014  17:41:00     -195.782      -22.037       -7.959      125.473       79.637       51.799    15743.413     6341.979     2683.175        3.182        1.238      197.018       58.341        0.088      338.842       11.765      859.643
11/13/2014  17:42:00     -105.873      -93.544        5.552      107.841      115.240       71.701    11629.686    13280.319     5141.021        2.501        1.503      141.278       68.991        0.238      338.663       11.463      859.618
11/13/2014  17:43:00     -334.722      -47.773      -17.998      184.981      164.643       85.949    34217.930    27107.414     7387.148        9.167        3.436      338.114       89.421        0.070      338.776       11.654      859.634
11/13/2014  17:44:00     -326.658     -113.250      -13.224      190.000      143.386       74.095    36100.061    20559.525     5490.006        9.092        3.107      345.732       95.599        0.076      338.698       11.524      859.619
11/13/2014  17:45:00     -350.302     -152.939        4.600      183.247      136.832       78.219    33579.628    18722.927     6118.265       10.226        2.921      382.233       89.853        0.055      338.652       11.445      859.615
11/13/2014  17:46:00     -189.963      -29.905        4.179      148.682       93.590       63.025    22106.211     8759.043     3972.175        3.591        1.742      192.302       73.521        0.146      338.700       11.528      859.630
11/13/2014  17:47:00     -307.472     -106.450      -14.930      108.024       89.156       55.436    11669.167     7948.720     3073.161        6.439        1.135      325.378       45.305        0.019      338.659       11.457      859.618
11/13/2014  17:48:00     -294.978     -105.784       -8.634      116.985       92.477       67.918    13685.594     8552.060     4612.888        6.256        1.343      313.373       76.410        0.059      338.640       11.427      859.633
11/13/2014  17:49:00     -285.668     -116.144      -16.981      153.314      101.216       60.140    23505.227    10244.701     3616.782        6.637        1.868      308.376       61.176        0.039      338.624       11.399      859.646
11/13/2014  17:50:00     -274.408      -93.695      -24.764      100.395       90.575       43.009    10079.102     8203.800     1849.782        5.241        1.007      289.963       28.441        0.010      338.626       11.402      859.670
11/13/2014  17:51:00     -286.459      -46.328       -9.358      117.546      124.718       63.164    13817.131    15554.635     3989.712        5.882        1.668      290.181       62.673        0.047      338.693       11.515      859.686
11/13/2014  17:52:00     -381.124      -64.351      -16.004      131.821      138.400       60.176    17376.791    19154.422     3621.209        9.489        2.008      386.518       54.301        0.020      338.744       11.600      859.711
11/13/2014  17:53:00     -368.246     -112.517      -27.796      116.484      101.051       54.752    13568.450    10211.399     2997.761        8.790        1.339      385.052       46.936        0.015      338.636       11.420      859.736
11/13/2014  17:54:00     -168.905      -60.715       -2.859      114.952       79.684       49.837    13213.883     6349.521     2483.678        2.713        1.102      179.486       46.183        0.066      338.678       11.490      859.735
11/13/2014  17:55:00     -223.825      -60.644      -12.291       94.558       80.337       44.596     8941.122     6453.986     1988.779        3.565        0.869      231.896       41.598        0.032      338.773       11.649      859.749
11/13/2014  17:56:00     -218.233      -96.096      -13.430       73.693       77.541       44.952     5430.675     6012.604     2020.726        3.525        0.673      238.454       37.362        0.025      338.606       11.368      859.778
11/13/2014  17:57:00     -260.298      -49.857      -23.656      102.925       95.022       53.648    10593.486     9029.088     2878.145        4.665        1.125      265.029       46.824        0.031      338.645       11.435      859.774
11/13/2014  17:58:00     -187.996      -37.512        4.210      114.913       84.781       51.090    13204.967     7187.754     2610.181        2.988        1.150      191.702       53.354        0.077      338.688       11.508      859.765
11/13/2014  17:59:00     -365.154     -142.196      -16.729      231.021      127.572       76.533    53370.543    16274.611     5857.271       11.465        3.775      391.864      104.261        0.071      338.696       11.521      859.745
11/13/2014  18:00:00     -333.157      -96.837      -17.439      155.135      114.587       53.250    24066.957    13130.230     2835.605        8.035        2.002      346.945       63.094        0.033      338.694       11.516      859.766
11/13/2014  18:01:00     -257.794      -96.960      -10.400      179.997      129.742       71.782    32399.078    16832.971     5152.632        6.517        2.719      275.425       74.808        0.074      338.631       11.411      859.755
11/13/2014  18:02:00     -429.885      -50.928      -15.215      141.513      158.009       72.720    20025.948    24966.695     5288.152       11.894        2.514      432.892       70.333        0.026      338.604       11.364      859.753
11/13/2014  18:03:00     -240.150      -66.320        0.023      139.442      138.812       68.761    19444.127    19268.822     4728.135        5.275        2.172      249.139       77.343        0.096      338.686       11.504      859.765
11/13/2014  18:04:00     -259.372      -80.767       42.989      286.917      202.718      137.288    82321.283    41094.507    18847.947       10.893        7.113      271.656      169.600        0.390      338.654       11.450      859.718
11/13/2014  18:05:00     -271.694     -100.167        9.522      204.455      145.248       81.711    41801.768    21097.041     6676.718        7.674        3.479      289.571       82.642        0.081      338.624       11.399      859.735
11/13/2014  18:06:00     -405.910     -237.250      -13.752      179.464      180.984       89.793    32207.340    32755.144     8062.727       14.712        3.651      470.160       96.078        0.042      338.558       11.289      859.760
11/13/2014  18:07:00     -393.781     -129.946      -21.172      243.062      136.684       96.652    59079.051    18682.484     9341.620       12.973        4.355      414.668      113.815        0.075      338.591       11.343      859.752
11/13/2014  18:08:00     -324.996     -138.870       -8.367      182.712      135.563       75.628    33383.540    18377.461     5719.542        9.122        2.874      353.423       81.216        0.053      338.589       11.340      859.768
11/13/2014  18:09:00     -402.912     -247.098       -7.213      214.517      160.923       90.356    46017.582    25896.334     8164.153       15.175        4.004      472.647       96.619        0.042      338.561       11.294      859.754
11/13/2014  18:10:00     -308.038     -116.302       -8.514      188.335      125.955       77.546    35470.051    15864.671     6013.416        8.291        2.867      329.262       89.645        0.074      338.570       11.308      859.743
11/13/2014  18:11:00     -319.404     -119.059       -0.981      227.178      170.168       91.122    51609.661    28957.095     8303.306       10.251        4.444      340.872      111.533        0.107      338.537       11.254      859.696
11/13/2014  18:12:00     -427.664     -104.362      -10.840      197.916      146.390       87.851    39170.839    21429.909     7717.743       13.110        3.416      440.214       94.640        0.046      338.597       11.355      859.688
11/13/2014  18:13:00     -363.825     -123.146      -13.542      157.917      143.781       76.839    24937.801    20672.931     5904.199        9.961        2.576      384.101       81.301        0.045      338.561       11.293      859.660
11/13/2014  18:14:00     -591.645      -54.809      -31.327      213.759      182.835       98.488    45692.999    33428.626     9699.944       22.141        4.441      594.178      107.858        0.033      338.588       11.338      859.645
11/13/2014  18:15:00     -430.650      -59.849       -7.989      215.820      158.204       93.269    46578.264    25028.629     8699.194       13.469        4.015      434.789      105.483        0.059      338.546       11.268      859.596
11/13/2014  18:16:00     -222.591     -122.335       17.151      207.821      205.008      106.480    43189.454    42028.299    11338.000        8.066        4.828      253.993      116.634        0.211      338.575       11.316      859.601
11/13/2014  18:17:00     -375.536     -112.945       -4.954      207.968      202.975       95.466    43250.694    41198.678     9113.709       12.367        4.678      392.153      105.171        0.072      338.551       11.277      859.556
11/13/2014  18:18:00     -463.236      -49.179      -11.703      228.974      184.123      112.142    52429.236    33901.148    12575.763       15.800        4.945      465.839      121.115        0.068      338.584       11.332      859.562
11/13/2014  18:19:00     -293.313     -118.353       18.305      272.925      258.954      131.020    74488.132    67056.942    17166.161       12.951        7.936      316.291      160.875        0.259      338.522       11.227      859.547
11/13/2014  18:20:00     -315.781     -202.723      -16.838      168.140      166.084       80.447    28271.164    27583.794     6471.800       10.170        3.116      375.252       60.210        0.026      338.551       11.278      859.605
11/13/2014  18:21:00     -428.250     -176.503       -9.882      218.090      165.446       87.772    47563.095    27372.253     7703.967       14.863        4.132      463.197      104.066        0.050      338.514       11.215      859.629
11/13/2014  18:22:00     -356.260     -153.171       -0.531      192.564      169.956      102.022    37081.002    28884.975    10408.423       11.336        3.819      387.792       94.685        0.060      338.560       11.291      859.629
11/13/2014  18:23:00     -343.938     -180.865       -2.860      193.006      182.733       85.404    37251.318    33391.167     7293.909       11.446        3.897      388.594       95.093        0.060      338.506       11.200      859.624
11/13/2014  18:24:00     -394.315     -198.208      -22.470      178.544      160.171       88.810    31877.794    25654.684     7887.145       13.033        3.271      441.329       96.955        0.048      338.496       11.184      859.594
11/13/2014  18:25:00     -370.489     -265.325      -15.344      190.267      137.057       83.954    36201.488    18784.569     7048.350       13.495        3.102      455.696       79.501        0.030      338.479       11.156      859.580
11/13/2014  18:26:00     -372.255     -141.428      -15.887      195.772      154.631       87.980    38326.604    23910.900     7740.442       11.439        3.499      398.216       98.881        0.062      338.465       11.130      859.593
11/13/2014  18:27:00     -410.502     -185.307      -14.342      185.311      179.897       95.314    34340.307    32362.828     9084.681       13.941        3.789      450.389      101.790        0.051      338.527       11.237      859.613
11/13/2014  18:28:00     -295.541     -164.629      -13.220      238.898      188.747      102.715    57072.048    35625.246    10550.435       10.891        5.162      338.300      116.028        0.118      338.502       11.193      859.597
11/13/2014  18:29:00     -215.825     -154.863       25.985      217.648      156.495      113.073    47370.550    24490.764    12785.523        7.793        4.232      265.636      126.253        0.226      338.486       11.167      859.617
11/13/2014  18:30:00     -315.064     -206.675        7.217      245.824      194.166       99.587    60429.385    37700.616     9917.510       12.502        5.402      376.802      116.752        0.096      338.519       11.223      859.580
11/13/2014  18:31:00     -483.321     -147.166      -23.935      204.010      199.827       97.404    41620.156    39931.004     9487.603       17.342        4.552      505.230      101.454        0.040      338.594       11.347      859.560
11/13/2014  18:32:00     -423.802     -241.726      -18.306      250.365      186.003      110.864    62682.748    34597.295    12290.922       17.395        5.479      487.893      122.798        0.063      338.538       11.255      859.560
11/13/2014  18:33:00     -409.745     -122.296       -1.807      257.680      195.506      101.970    66398.967    38222.709    10397.952       14.891        5.751      427.606      124.330        0.085      338.617       11.387      859.519
11/13/2014  18:34:00     -438.642     -187.692       -2.470      239.922      155.218       90.075    57562.448    24092.572     8113.428       15.869        4.488      477.111      115.432        0.059      338.545       11.266      859.530
11/13/2014  18:35:00     -453.996     -142.130      -14.204      213.642      160.746       84.992    45643.038    25839.388     7223.665       15.259        3.935      475.723       88.373        0.035      338.533       11.247      859.522
11/13/2014  18:36:00     -358.417     -167.075        8.413      198.641      166.851       97.371    39458.279    27839.121     9481.179       11.660        3.839      395.445       90.748        0.053      338.536       11.251      859.516
11/13/2014  18:37:00     -447.102     -128.470      -22.928      269.671      201.938      104.536    72722.506    40779.069    10927.824       17.066        6.221      465.194      127.503        0.075      338.579       11.324      859.529
11/13/2014  18:38:00     -318.946     -175.069       -4.199      168.960      128.789       89.507    28547.514    16586.551     8011.589        9.276        2.657      363.835       89.184        0.060      338.511       11.209      859.535
11/13/2014  18:39:00     -398.826     -143.565        4.098      264.065      198.241      116.150    69730.182    39299.367    13490.936       15.108        6.126      423.878      139.051        0.108      338.502       11.194      859.553
11/13/2014  18:40:00     -301.509     -179.117      -25.951      230.095      154.816       78.022    52943.719    23967.847     6087.393       10.331        4.150      350.700       76.035        0.047      338.493       11.180      859.568
11/13/2014  18:41:00     -398.339     -162.827      -19.078      250.823      154.724      100.652    62912.410    23939.616    10130.906       14.125        4.849      430.333      111.740        0.067      338.481       11.159      859.547
11/13/2014  18:42:00     -399.289     -189.256       -4.090      246.890      150.431       88.351    60954.905    22629.477     7805.899       14.331        4.570      441.870      108.356        0.060      338.474       11.146      859.544
11/13/2014  18:43:00     -460.530     -218.879       -3.410      272.868      192.977      108.921    74457.145    37239.958    11863.846       19.176        6.178      509.898      135.801        0.071      338.495       11.182      859.507
11/13/2014  18:44:00     -380.195     -111.033       21.049      247.611      168.868      103.357    61311.081    28516.377    10682.607       12.889        5.026      396.077      125.192        0.100      338.522       11.228      859.517
11/13/2014  18:45:00     -340.297     -203.048       -8.909      201.433      128.820       83.780    40575.057    16594.676     7019.078       11.064        3.209      396.271       94.681        0.057      338.498       11.187      859.528
11/13/2014  18:46:00     -379.024     -199.099      -13.661      234.942      168.185      103.043    55197.826    28286.130    10617.905       13.877        4.705      428.135      118.949        0.077      338.493       11.177      859.517
11/13/2014  18:47:00     -504.771     -162.760      -18.058      220.050      187.726       92.356    48422.086    35240.884     8529.678       18.688        4.610      530.362      116.605        0.048      338.485       11.165      859.492
11/13/2014  18:48:00     -421.772     -173.674      -31.697      250.235      176.455       94.281    62617.745    31136.301     8888.849       15.583        5.132      456.130      122.347        0.072      338.490       11.173      859.439
11/13/2014  18:49:00     -363.936      -32.544      -13.870      218.125      161.808       74.141    47578.551    26181.830     5496.912       10.646        3.963      365.388       80.303        0.048      338.554       11.281      859.415
11/13/2014  18:50:00     -262.378     -138.904       15.627      246.151      155.834       95.821    60590.299    24284.230     9181.606        9.120        4.703      296.878      112.814        0.144      338.435       11.081      859.418
11/13/2014  18:51:00     -469.755     -113.618      -19.995      232.054      131.886       79.914    53849.018    17393.873     6386.277       15.579        3.881      483.300       97.922        0.041      338.423       11.062      859.431
11/13/2014  18:52:00     -249.268     -143.206        9.218      196.604      185.146       93.246    38653.185    34279.144     8694.901        8.216        4.081      287.476      107.260        0.139      338.422       11.059      859.443
11/13/2014  18:53:00     -258.495      -82.996        7.510      220.025      129.909       82.574    48410.811    16876.238     6818.395        7.292        3.605      271.492      100.125        0.136      338.425       11.065      859.407
11/13/2014  18:54:00     -347.618       -8.338        6.845      223.246      138.081       93.600    49838.901    19066.234     8760.957        9.929        3.883      347.718      107.404        0.095      338.441       11.091      859.385
11/13/2014  18:55:00     -458.477      -83.638      -20.634      226.007      231.247       94.920    51079.009    53475.118     9009.846       16.557        5.678      466.043      103.402        0.049      338.429       11.072      859.388
11/13/2014  18:56:00     -392.013      -69.879      -23.481      204.854      165.037       77.576    41965.053    27237.115     6018.092       11.715        3.761      398.193       89.596        0.051      338.440       11.089      859.414
11/13/2014  18:57:00     -459.732      -16.487      -18.483      245.372      126.938       98.682    60207.500    16113.154     9738.129       14.900        4.303      460.028      108.047        0.055      338.468       11.137      859.427
11/13/2014  18:58:00     -441.791     -117.259      -21.499      161.367      157.159       76.949    26039.259    24698.923     5921.167       13.301        2.833      457.087       82.994        0.033      338.376       10.983      859.428
11/13/2014  18:59:00     -297.465      -15.841      -12.245      184.960      108.693       77.121    34210.381    11814.107     5947.685        7.042        2.599      297.886       86.186        0.084      338.425       11.065      859.415
11/13/2014  19:00:00     -265.923      -78.699       -4.252      131.136      132.946       56.152    17196.563    17674.767     3153.074        5.747        1.901      277.324       54.234        0.038      338.411       11.041      859.374
11/13/2014  19:01:00     -426.750     -143.163        4.863      212.185      165.946       94.762    45022.500    27538.014     8979.825       14.207        4.077      450.124      118.150        0.069      338.372       10.976      859.325
11/13/2014  19:02:00     -515.498     -155.277      -25.877      191.686      153.705       93.841    36743.655    23625.281     8806.202       17.983        3.459      538.377       99.169        0.034      338.284       10.829      859.318
11/13/2014  19:03:00     -442.440      -31.342      -14.723      191.899      143.748       87.823    36825.098    20663.576     7712.905       13.106        3.260      443.549       92.708        0.044      338.329       10.905      859.325
11/13/2014  19:04:00     -396.448      -81.578      -31.284      208.976      162.908       86.804    43671.011    26539.030     7534.857       12.126        3.887      404.755       98.675        0.059      338.364       10.963      859.310
11/13/2014  19:05:00     -417.485       10.467      -21.600      294.811      141.622       79.594    86913.390    20056.905     6335.190       14.406        5.665      417.616       80.981        0.038      338.450       11.107      859.283
11/13/2014  19:06:00     -469.464     -154.763       -9.390      289.393      210.248      121.165    83748.363    44204.108    14681.061       19.351        7.132      494.316      140.217        0.080      338.359       10.954      859.236
11/13/2014  19:07:00     -181.307     -167.842       21.949      234.928      218.119      110.451    55191.302    47575.882    12199.402        8.822        5.748      247.069      124.538        0.254      338.395       11.014      859.226
11/13/2014  19:08:00     -348.285     -145.646       -9.040      234.963      180.734      100.833    55207.555    32664.862    10167.375       12.030        4.902      377.511      108.756        0.083      338.407       11.033      859.199
11/13/2014  19:09:00     -473.333      -95.004      -31.539      230.343      173.947       77.426    53058.079    30257.519     5994.848       16.167        4.466      482.773       97.620        0.041      338.475       11.149      859.210
11/13/2014  19:10:00     -387.608     -179.193      -22.653      222.052      188.889       92.672    49307.190    35679.115     8588.135       13.820        4.679      427.024      103.167        0.058      338.514       11.214      859.212
11/13/2014  19:11:00     -419.681     -289.269      -18.518      246.280      150.342      100.220    60653.701    22602.613    10044.120       17.671        4.665      509.715      108.412        0.045      338.509       11.205      859.250
11/13/2014  19:12:00     -252.319     -100.229       14.560      203.662      146.793       91.949    41478.136    21548.249     8454.647        7.269        3.574      271.497       85.680        0.100      338.525       11.234      859.307
11/13/2014  19:13:00     -387.158     -187.519      -27.316      233.832      181.686       87.633    54677.441    33009.915     7679.545       14.056        4.768      430.180      101.087        0.055      338.524       11.232      859.322
11/13/2014  19:14:00     -355.504     -203.737       -5.672      227.909      169.715       99.849    51942.696    28803.254     9969.867       12.930        4.536      409.746      110.984        0.073      338.483       11.162      859.314
11/13/2014  19:15:00     -211.965     -215.743        8.782      206.000      128.236       86.099    42436.111    16444.451     7413.007        7.891        3.315      302.447      100.138        0.110      338.467       11.136      859.309
11/13/2014  19:16:00     -333.824     -217.701      -20.379      257.380      183.102       95.264    66244.252    33526.308     9075.180       13.403        5.442      398.538      112.481        0.080      338.500       11.190      859.307
11/13/2014  19:17:00     -398.977     -244.415      -13.091      206.085      159.080       89.330    42471.157    25306.458     7979.938       14.741        3.788      467.890      103.961        0.049      338.566       11.301      859.341
11/13/2014  19:18:00     -524.974     -275.344      -20.061      228.351      185.844      105.368    52143.982    34538.157    11102.428       22.478        4.889      592.800      111.638        0.035      338.552       11.277      859.365
11/13/2014  19:19:00     -310.287     -137.069        5.110      201.234      189.360      100.989    40495.237    35857.345    10198.875       10.080        4.328      339.214      103.417        0.093      338.510       11.208      859.433
11/13/2014  19:20:00     -366.984     -100.830      -10.592      192.744      148.515       82.860    37150.276    22056.577     6865.769       10.550        3.304      380.583       86.883        0.052      338.521       11.227      859.494
11/13/2014  19:21:00     -477.649     -274.996      -24.005      164.845      210.981       90.258    27173.907    44512.854     8146.477       19.207        3.992      551.154       84.757        0.024      338.463       11.127      859.505
11/13/2014  19:22:00     -360.566     -232.549      -23.396      212.019      156.587       91.148    44952.034    24519.612     8308.025       13.119        3.889      429.053      104.387        0.059      338.456       11.116      859.531
11/13/2014  19:23:00     -302.282     -156.759        6.336      188.535      160.133       91.593    35545.400    25642.612     8389.190        9.277        3.479      340.511       99.063        0.085      338.446       11.099      859.540
11/13/2014  19:24:00     -384.210     -310.489      -13.335      182.718      159.021       97.728    33386.021    25287.754     9550.791       15.620        3.411      493.985      106.444        0.046      338.418       11.054      859.535
11/13/2014  19:25:00     -282.831     -121.170      -20.670      137.200      129.593       74.937    18823.873    16794.460     5615.537        6.816        2.062      307.693       70.863        0.053      338.417       11.050      859.538
11/13/2014  19:26:00     -298.452     -170.562      -21.640      142.642      188.760       74.164    20346.739    35630.257     5500.326        9.004        3.074      343.751       71.878        0.044      338.438       11.087      859.534
11/13/2014  19:27:00      -68.086      -56.016       20.088       89.520       95.446       47.859     8013.897     9109.977     2290.486        1.379        0.971       88.167       48.990        0.309      338.425       11.066      859.547
11/13/2014  19:28:00     -203.532      -59.600       14.665      154.567      133.553       82.631    23890.935    17836.292     6827.855        4.686        2.428      212.079       84.025        0.157      338.449       11.103      859.506
11/13/2014  19:29:00     -303.973     -118.873      -10.435      184.193      137.592       69.902    33926.898    18931.436     4886.330        8.218        2.887      326.390       79.151        0.059      338.386       11.000      859.527
11/13/2014  19:30:00     -231.725       -7.494        2.943      168.776      118.899       78.606    28485.387    14137.049     6178.963        5.127        2.440      231.846       86.384        0.139      338.465       11.133      859.550
11/13/2014  19:31:00     -335.683     -136.093       -3.722      149.831      139.138       78.081    22449.289    19359.286     6096.650        8.955        2.395      362.221       74.632        0.042      338.400       11.023      859.590
11/13/2014  19:32:00     -310.172     -142.529      -29.093      192.051      128.507       62.512    36883.542    16514.154     3907.713        8.733        2.865      341.352       70.045        0.042      338.455       11.114      859.582
11/13/2014  19:33:00     -343.808     -145.055      -18.613      197.024      120.365       73.908    38818.363    14487.771     5462.375        9.917        2.938      373.156       83.839        0.050      338.399       11.021      859.595
11/13/2014  19:34:00     -355.122      -29.840       -3.257      192.785      141.817       89.487    37165.941    20112.025     8007.872        9.614        3.264      356.373       96.802        0.074      338.549       11.273      859.596
11/13/2014  19:35:00     -400.894     -124.458      -28.628      195.073      125.901       68.021    38053.308    15850.950     4626.860       11.777        2.927      419.769       73.632        0.031      338.378       10.987      859.615
11/13/2014  19:36:00     -436.453      -56.801      -24.127      195.307      126.400       81.954    38144.651    15976.939     6716.484       12.756        3.042      440.134       88.724        0.041      338.420       11.057      859.629
11/13/2014  19:37:00     -426.723      -65.956      -17.154      135.674      125.272       87.711    18407.402    15692.971     7693.189       11.426        2.090      431.790       77.299        0.032      338.365       10.963      859.682
11/13/2014  19:38:00     -196.667      -22.798       17.678      191.893      137.338       88.939    36822.885    18861.620     7910.217        5.154        3.180      197.984       99.592        0.253      338.454       11.114      859.684
11/13/2014  19:39:00     -335.874      -89.072       -2.922      240.778      154.829      106.955    57974.154    23972.134    11439.412       10.705        4.669      347.484      129.919        0.140      338.387       11.002      859.679
11/13/2014  19:40:00     -458.651     -189.990      -32.702      166.284      140.365       77.254    27650.501    19702.312     5968.209       15.041        2.666      496.444       79.608        0.026      338.334       10.912      859.709
11/13/2014  19:41:00     -403.820      -21.090      -24.029      182.628      134.958       76.025    33352.949    18213.740     5779.848       11.071        2.867      404.370       86.411        0.046      338.382       10.991      859.725
11/13/2014  19:42:00     -343.898      -41.982      -14.505      117.489      101.292       67.410    13803.745    10260.162     4544.133        7.442        1.430      346.451       61.026        0.031      338.377       10.985      859.750
11/13/2014  19:43:00     -450.107      -51.083      -31.748      176.396      111.557       83.059    31115.412    12445.036     6898.844       12.833        2.523      452.996       96.793        0.046      338.321       10.890      859.745
11/13/2014  19:44:00     -453.335     -115.671      -20.295      181.365      117.113       73.956    32893.383    13715.376     5469.463       13.568        2.604      467.860       91.419        0.038      338.370       10.972      859.771
11/13/2014  19:45:00     -511.307      -75.500      -23.724      242.830      138.747       91.783    58966.349    19250.595     8424.209       17.715        4.332      516.851      111.837        0.047      338.332       10.908      859.817
11/13/2014  19:46:00     -494.709      -34.702      -17.881      197.589      182.745       94.711    39041.369    33395.595     8970.120       16.382        4.070      495.924      106.293        0.046      338.410       11.038      859.868
11/13/2014  19:47:00     -322.698      -69.982      -26.327      186.508      123.191       77.460    34785.237    15176.073     6000.002        8.283        2.798      330.199       68.851        0.043      338.421       11.058      859.916
11/13/2014  19:48:00     -473.125      -66.772      -23.589      237.628      159.091       95.157    56467.198    25309.952     9054.921       15.983        4.542      477.813      111.134        0.054      338.389       11.005      859.955
11/13/2014  19:49:00     -328.654     -137.456       -4.059      232.146      189.070       95.234    53891.874    35747.397     9069.521       11.280        4.935      356.241      114.908        0.104      338.356       10.948      859.960
11/13/2014  19:50:00     -349.660     -191.743      -38.628      225.245      179.452      100.689    50735.150    32203.101    10138.206       12.678        4.654      398.783      108.260        0.074      338.375       10.980      859.962
11/13/2014  19:51:00     -199.855      -23.930        6.720      159.482      100.755       73.883    25434.491    10151.475     5458.694        4.079        2.052      201.282       77.036        0.146      338.393       11.012      859.960
11/13/2014  19:52:00     -317.647      -85.819       -9.657      185.054      143.345       74.416    34245.129    20547.894     5537.715        8.433        3.017      329.036       76.209        0.054      338.409       11.039      859.951
11/13/2014  19:53:00     -324.257      -43.854      -11.257      136.665      110.326       81.155    18677.403    12171.879     6586.176        7.231        1.872      327.210       80.604        0.061      338.510       11.207      859.946
11/13/2014  19:54:00     -304.796       -7.977        0.199      190.000      108.728       80.219    36100.041    11821.881     6435.074        7.365        2.718      304.900       98.899        0.105      338.475       11.150      859.931
11/13/2014  19:55:00     -432.441      -60.980       -7.028      213.551      182.276      103.261    45603.987    33224.481    10662.760       14.011        4.475      436.719      108.440        0.062      338.453       11.111      859.911
11/13/2014  19:56:00     -444.021      -89.932      -20.386      177.362      136.007       93.111    31457.336    18497.883     8669.662       13.213        2.931      453.037      100.416        0.049      338.425       11.063      859.924
11/13/2014  19:57:00     -200.805     -103.801        1.116      189.350      140.654       73.782    35853.463    19783.436     5443.710        5.608        3.054      226.047       98.771        0.191      338.408       11.036      859.937
11/13/2014  19:58:00     -365.186     -139.061      -18.615      171.662      136.847       89.381    29467.941    18726.971     7988.910       10.460        2.809      390.767       94.439        0.058      338.380       10.990      859.928
11/13/2014  19:59:00     -367.820      -25.493      -13.231      217.136      126.341       86.777    47148.196    15962.166     7530.320       10.336        3.532      368.702       87.521        0.056      338.510       11.206      859.942
11/13/2014  20:00:00     -528.107     -131.046      -21.641      244.919      192.465       98.133    59985.128    37042.783     9630.021       20.158        5.333      544.123      112.270        0.043      338.418       11.051      859.940
11/13/2014  20:01:00     -346.663      -49.504        1.351      225.357      152.359       91.472    50785.943    23213.331     8367.080       10.248        4.118      350.180      108.990        0.097      338.498       11.187      859.938
11/13/2014  20:02:00     -611.164      -33.846      -37.375      214.795      170.623       96.592    46137.029    29112.054     9329.939       23.030        4.229      612.100      103.844        0.029      338.510       11.207      859.936
11/13/2014  20:03:00     -485.800       -9.035      -17.441      183.807      126.728       82.793    33784.898    16060.109     6854.707       14.653        2.835      485.884       90.375        0.035      338.548       11.271      859.943
11/13/2014  20:04:00     -523.980     -122.753      -29.614      275.033      214.098      107.249    75643.217    45837.869    11502.349       21.171        6.649      538.166      122.530        0.052      338.479       11.155      859.920
11/13/2014  20:05:00     -551.846     -233.220      -36.986      325.281      190.088      112.551   105807.868    36133.598    12667.719       25.742        7.730      599.104      144.490        0.058      338.422       11.059      859.913
11/13/2014  20:06:00     -476.855      -89.937      -37.748      217.123      197.223       82.763    47142.289    38896.822     6849.685       16.488        4.644      485.263      100.952        0.043      338.467       11.134      859.931
11/13/2014  20:07:00     -542.378     -108.334      -21.929      241.774      164.922       96.539    58454.898    27199.312     9319.868       20.066        4.749      553.092      114.734        0.043      338.477       11.151      859.919
11/13/2014  20:08:00     -437.213     -150.033      -18.823      180.133      135.837       85.670    32448.021    18451.555     7339.363       13.612        2.912      462.239       80.596        0.030      338.396       11.015      859.948
11/13/2014  20:09:00     -388.827      -67.262      -14.657      176.951      128.210       79.273    31311.588    16437.680     6284.202       10.497        2.702      394.602       91.684        0.054      338.465       11.131      859.982
11/13/2014  20:10:00     -152.878      -30.620        0.192      115.673       92.631       68.214    13380.284     8580.500     4653.127        2.546        1.331      155.914       62.422        0.160      338.529       11.241      859.979
11/13/2014  20:11:00     -254.930        0.483      -18.221      175.791       81.396       62.754    30902.327     6625.267     3938.077        5.339        2.073      254.930       79.475        0.097      338.570       11.308      859.984
11/13/2014  20:12:00     -324.140     -180.174       -9.555      153.675      188.374       82.598    23616.063    35484.854     6822.456       10.176        3.296      370.850       81.109        0.048      338.447       11.101      860.001
11/13/2014  20:13:00     -393.990      -63.018      -35.816      234.085       99.854       70.998    54795.973     9970.862     5040.650       11.513        3.490      398.998       95.548        0.057      338.379       10.989      860.013
11/13/2014  20:14:00     -188.330      -55.577       10.385      156.788      103.840       64.832    24582.368    10782.692     4203.180        3.911        1.978      196.359       69.648        0.126      338.445       11.099      860.044
11/13/2014  20:15:00     -445.677     -107.624       -7.280      188.780      125.219       70.424    35637.776    15679.880     4959.556       13.326        2.814      458.488       67.997        0.022      338.370       10.972      860.072
11/13/2014  20:16:00     -438.289      -49.888      -19.405      179.614      179.991       79.280    32261.269    32396.832     6285.365       13.294        3.547      441.119       81.995        0.035      338.412       11.042      860.097
11/13/2014  20:17:00     -378.081       -7.497      -16.852      193.016      126.154       75.762    37255.117    15914.853     5739.877       10.109        2.945      378.155       94.526        0.062      338.433       11.078      860.102
11/13/2014  20:18:00     -278.075      -53.299      -12.461      182.912      124.770       88.109    33456.817    15567.574     7763.268        6.854        2.839      283.137       87.465        0.095      338.463       11.129      860.117
11/13/2014  20:19:00     -246.786      -47.976       -6.337      187.052       89.405       66.362    34988.333     7993.252     4403.974        5.531        2.369      251.406       78.248        0.097      338.402       11.026      860.146
11/13/2014  20:20:00     -346.820      -19.636      -19.863      140.752      125.287       75.666    19811.157    15696.762     5725.324        8.114        2.062      347.376       84.445        0.059      338.422       11.059      860.169
11/13/2014  20:21:00     -194.827     -102.000        9.964      141.682      111.280       65.539    20073.711    12383.146     4295.303        4.260        1.838      219.913       75.020        0.116      338.306       10.865      860.188
11/13/2014  20:22:00     -185.649      -81.995        5.096      100.162      105.675       56.896    10032.339    11167.161     3237.156        3.282        1.222      202.950       50.069        0.061      338.337       10.919      860.208
11/13/2014  20:23:00     -179.579      -34.246        0.635      103.978       77.154       50.708    10811.373     5952.765     2571.318        2.637        0.967      182.816       54.498        0.089      338.458       11.122      860.232
11/13/2014  20:24:00     -313.581      -20.937      -20.050      196.188      117.866       74.296    38489.805    13892.431     5519.882        7.853        2.895      314.279       77.116        0.060      338.440       11.092      860.250
11/13/2014  20:25:00     -225.109     -113.460        5.191      149.751      173.019       81.628    22425.275    29935.485     6663.130        6.129        2.951      252.086       66.510        0.070      338.405       11.032      860.239
11/13/2014  20:26:00     -334.501      -12.132      -28.561      125.819      106.237       64.839    15830.396    11286.364     4204.047        7.208        1.566      334.721       71.201        0.045      338.413       11.044      860.238
11/13/2014  20:27:00     -211.972      -33.320      -15.669       99.253       98.095       50.619     9851.252     9622.560     2562.325        3.416        1.102      214.575       53.692        0.063      338.403       11.028      860.245
11/13/2014  20:28:00      -85.323      -69.729       20.416      103.983       75.946       64.774    10812.564     5767.751     4195.699        1.666        1.039      110.192       68.342        0.385      338.351       10.943      860.244
11/13/2014  20:29:00     -160.227      -27.594        9.419      119.230       85.513       46.449    14215.692     7312.518     2157.499        2.510        1.184      162.586       49.460        0.093      338.423       11.062      860.248
11/13/2014  20:30:00     -139.725      -28.120        5.950      136.116       65.391       54.539    18527.608     4276.017     2974.504        2.306        1.289      142.526       53.086        0.139      338.344       10.931      860.233
11/13/2014  20:31:00     -215.207      -37.229       -3.476      108.030       93.423       54.653    11670.534     8727.934     2986.970        3.554        1.169      218.403       55.263        0.064      338.303       10.860      860.223
11/13/2014  20:32:00     -243.826      -74.662       -5.471      158.044       98.122       60.753    24977.848     9627.889     3690.928        5.167        1.915      255.001       73.197        0.082      338.298       10.853      860.219
11/13/2014  20:33:00     -352.384      -70.821      -19.017      148.159      147.263       80.860    21951.041    21686.528     6538.260        8.985        2.509      359.430       87.998        0.060      338.262       10.793      860.216
11/13/2014  20:34:00     -401.569     -107.130       -7.198      164.867      138.484       80.811    27181.244    19177.682     6530.370       11.283        2.644      415.614       82.636        0.040      338.296       10.847      860.207
11/13/2014  20:35:00     -399.638      -31.104      -29.091      164.116      128.427       70.797    26933.925    16493.522     5012.241       10.497        2.422      400.847       80.546        0.040      338.366       10.967      860.204
11/13/2014  20:36:00     -356.551      -11.286      -30.792      154.037      100.289       68.017    23727.337    10057.893     4626.334        8.330        1.921      356.729       73.894        0.043      338.456       11.116      860.195
11/13/2014  20:37:00     -301.352      -68.993       -5.394      110.253      114.852       63.126    12155.644    13191.078     3984.927        6.246        1.467      309.149       56.210        0.033      338.349       10.938      860.191
11/13/2014  20:38:00     -336.835      -29.053      -16.249      146.798      119.888       61.624    21549.716    14373.134     3797.528        7.714        1.986      338.086       45.304        0.018      338.449       11.106      860.202
11/13/2014  20:39:00     -245.852      -39.693       -2.731      153.624      112.165       68.003    23600.455    12581.050     4624.421        5.141        2.040      249.036       75.395        0.092      338.406       11.033      860.221
11/13/2014  20:40:00     -284.725     -100.717       -3.939      177.482      125.769       70.469    31499.703    15817.813     4965.943        7.175        2.614      302.013       60.507        0.040      338.340       10.922      860.217
11/13/2014  20:41:00     -303.068      -50.265      -12.070      141.725      155.207       64.215    20085.967    24089.078     4123.588        7.140        2.415      307.208       67.695        0.049      338.398       11.020      860.215
11/13/2014  20:42:00     -350.008     -152.080      -28.615      105.572      117.608       59.787    11145.442    13831.697     3574.512        8.750        1.428      381.620       38.636        0.010      338.254       10.778      860.211
11/13/2014  20:43:00     -288.867     -155.210       -5.463      154.926      136.910       78.177    24002.057    18744.268     6111.612        7.820        2.443      327.924       72.509        0.049      338.258       10.785      860.225
11/13/2014  20:44:00     -231.590      -19.916        8.170      135.209      116.546       73.030    18281.383    13582.984     5333.387        4.564        1.860      232.445       70.204        0.091      338.317       10.885      860.260
11/13/2014  20:45:00     -204.573     -117.346        8.913      130.693       86.578       63.563    17080.726     7495.821     4040.287        4.215        1.431      235.839       72.541        0.095      338.259       10.787      860.302
11/13/2014  20:46:00     -182.156     -119.417      -11.004      109.078       97.276       54.561    11897.942     9462.547     2976.948        3.595        1.217      217.810       49.083        0.051      338.262       10.790      860.294
11/13/2014  20:47:00     -295.501      -98.869      -12.857      141.890       93.840       50.775    20132.785     8805.973     2578.091        6.438        1.576      311.602       51.595        0.027      338.395       11.014      860.272
11/13/2014  20:48:00     -138.887      -80.272       11.316      148.778      104.965       65.321    22134.980    11017.578     4266.873        3.163        1.871      160.416       81.408        0.258      338.244       10.763      860.235
11/13/2014  20:49:00     -205.394       30.093       -8.971      113.059      105.109       59.571    12782.377    11047.879     3548.673        3.527        1.369      207.587       43.028        0.043      338.475       11.150      860.230
11/13/2014  20:50:00     -200.742     -148.328      -11.717      126.749      128.696       62.877    16065.185    16562.729     3953.496        4.950        1.829      249.597       66.605        0.071      338.301       10.858      860.260
11/13/2014  20:51:00     -327.356     -126.590      -23.930      130.041      131.502       64.358    16910.599    17292.872     4141.909        8.104        1.917      350.980       63.524        0.033      338.216       10.715      860.263
11/13/2014  20:52:00     -237.325      -87.883        3.042      116.455       94.611       54.313    13561.696     8951.157     2949.901        4.475        1.273      253.074       51.761        0.042      338.226       10.731      860.288
11/13/2014  20:53:00     -336.741      -49.460      -15.997      119.545      112.436       55.444    14291.032    12641.834     3073.992        7.305        1.500      340.354       52.561        0.024      338.238       10.749      860.308
11/13/2014  20:54:00     -184.132      -69.128        0.449      123.619      108.089       47.713    15281.750    11683.223     2276.516        3.396        1.462      196.681       54.558        0.077      338.326       10.899      860.318
11/13/2014  20:55:00     -263.290      -73.018      -10.790      123.982       82.671       46.329    15371.641     6834.419     2146.366        4.956        1.218      273.227       55.224        0.041      338.295       10.846      860.348
11/13/2014  20:56:00     -192.008      -86.579       -7.284      113.782       78.786       52.661    12946.425     6207.211     2773.143        3.317        1.096      210.625       57.440        0.074      338.258       10.783      860.367
11/13/2014  20:57:00     -173.009      -99.367      -12.474       78.283       61.223       37.623     6128.282     3748.252     1415.480        2.562        0.565      199.514       39.253        0.039      338.225       10.728      860.376
11/13/2014  20:58:00     -121.362      -19.374      -12.765       50.861       58.212       38.240     2586.813     3388.607     1462.291        1.135        0.372      122.899       34.946        0.081      338.391       11.012      860.376
11/13/2014  20:59:00      -67.329      -56.777      -14.735       47.474       38.054       20.696     2253.750     1448.099      428.345        0.605        0.207       88.073       14.926        0.029      338.288       10.838      860.363
11/13/2014  21:00:00     -129.518      -62.673       -3.819       80.978       56.222       32.590     6557.415     3160.910     1062.121        1.575        0.539      143.884       31.050        0.047      338.219       10.721      860.360
11/13/2014  21:01:00     -174.061      -16.930       -0.257       77.386       70.889       31.620     5988.549     5025.198      999.802        2.130        0.601      174.882       22.985        0.017      338.208       10.700      860.358
11/13/2014  21:02:00     -149.362      -23.614       -4.072       40.068       63.275       34.411     1605.468     4003.775     1184.111        1.484        0.340      151.218       29.994        0.039      338.215       10.714      860.339
11/13/2014  21:03:00     -135.135        9.876        6.521       50.049       55.313       44.864     2504.925     3059.529     2012.789        1.299        0.379      135.495       42.817        0.100      338.197       10.685      860.332
11/13/2014  21:04:00     -163.147      -60.644       -4.558       70.112       81.260       44.700     4915.661     6603.126     1998.095        2.191        0.676      174.053       38.736        0.050      338.206       10.697      860.328
11/13/2014  21:05:00     -257.378     -137.887       -3.097      137.928       90.344       60.570    19024.189     8162.073     3668.684        5.805        1.543      291.987       64.814        0.049      338.170       10.635      860.345
11/13/2014  21:06:00     -165.826     -106.221       -4.883      119.953       81.017       57.325    14388.802     6563.814     3286.206        3.152        1.212      196.929       61.923        0.099      338.175       10.644      860.335
11/13/2014  21:07:00     -190.326        0.122      -10.888       96.758       68.701       41.427     9362.039     4719.837     1716.204        2.607        0.790      190.326       40.175        0.045      338.180       10.652      860.342
11/13/2014  21:08:00     -145.668      -48.494       -7.160       86.781       83.134       45.575     7531.003     6911.292     2077.071        2.007        0.826      153.528       50.146        0.107      338.180       10.654      860.339
11/13/2014  21:09:00     -216.509      -32.926      -11.235       74.681       71.167       44.900     5577.178     5064.707     2015.986        3.037        0.633      218.999       42.538        0.038      338.184       10.658      860.352
11/13/2014  21:10:00     -189.126      -34.013       -9.944       84.539       55.256       39.496     7146.778     3053.184     1559.932        2.439        0.588      192.160       48.427        0.064      338.209       10.702      860.367
11/13/2014  21:11:00     -194.656      -98.805      -11.770      103.170       71.478       50.931    10644.026     5109.115     2593.931        3.307        0.917      218.297       55.755        0.065      338.194       10.675      860.375
11/13/2014  21:12:00     -139.504      -44.540        2.936       95.735       89.604       50.751     9165.183     8028.939     2575.619        2.061        0.988      146.442       53.277        0.132      338.202       10.692      860.361
11/13/2014  21:13:00     -144.402      -83.838       -1.318       75.985       67.826       35.005     5773.795     4600.307     1225.370        1.974        0.580      166.975       36.783        0.049      338.193       10.675      860.344
11/13/2014  21:14:00     -212.867       29.228      -12.243      109.056       68.540       51.128    11893.148     4697.709     2614.120        3.276        0.960      214.864       48.597        0.051      338.169       10.633      860.317
11/13/2014  21:15:00     -242.792        4.718      -12.217      102.536       87.399       57.348    10513.732     7638.550     3288.792        4.028        1.072      242.838       61.011        0.063      338.162       10.621      860.270
11/13/2014  21:16:00     -237.751      -52.152      -18.821       92.763       98.585       48.702     8604.990     9718.986     2371.854        4.014        1.035      243.404       47.895        0.039      338.166       10.629      860.241
11/13/2014  21:17:00     -203.963       -9.556       -6.880       68.292       69.228       41.674     4663.755     4792.507     1736.721        2.646        0.560      204.187       35.300        0.030      338.164       10.626      860.229
11/13/2014  21:18:00      -63.203      -49.547       10.630       77.571       49.131       39.750     6017.288     2413.825     1580.094        0.828        0.501       80.309       45.773        0.325      338.189       10.671      860.227
11/13/2014  21:19:00      -92.315      -84.353        6.637       66.467       52.497       32.932     4417.865     2755.977     1084.485        1.197        0.413      125.050       27.180        0.047      338.185       10.663      860.223
11/13/2014  21:20:00     -114.322      -70.132        8.814       74.499       55.471       37.569     5550.079     3077.007     1411.448        1.405        0.502      134.119       38.522        0.082      338.201       10.691      860.210
11/13/2014  21:21:00     -159.623      -80.745        1.627      107.969       90.554       58.565    11657.329     8200.029     3429.876        2.764        1.164      178.883       58.215        0.106      338.179       10.651      860.201
11/13/2014  21:22:00     -234.951     -155.323      -12.665      112.058       68.755       46.300    12557.090     4727.212     2143.680        4.945        0.971      281.651       38.014        0.018      338.179       10.649      860.187
11/13/2014  21:23:00     -142.038     -102.811        1.768       98.861       73.465       45.733     9773.532     5397.151     2091.472        2.400        0.863      175.342       49.640        0.080      338.187       10.664      860.189
11/13/2014  21:24:00     -177.126      -94.018        4.623       61.822       71.024       31.395     3821.965     5044.437      985.632        2.504        0.493      200.531       33.035        0.027      338.172       10.639      860.205
11/13/2014  21:25:00      -94.847      -62.047        3.990       61.978       62.998       38.132     3841.272     3968.740     1454.039        1.106        0.463      113.340       37.548        0.110      338.187       10.668      860.214
11/13/2014  21:26:00      -69.037      -31.654       10.631       76.577       71.045       41.630     5864.037     5047.439     1733.088        0.926        0.632       75.948       35.243        0.215      338.174       10.645      860.197
11/13/2014  21:27:00     -177.799      -19.750       -1.585      101.722       78.586       48.500    10347.319     6175.754     2352.258        2.544        0.944      178.892       52.430        0.086      338.167       10.631      860.189
11/13/2014  21:28:00      -91.325      -32.052       -6.840      126.359       73.874       37.903    15966.486     5457.320     1436.641        1.613        1.143       96.786       50.022        0.267      338.188       10.667      860.188
11/13/2014  21:29:00      -16.638      -47.586       16.083       76.629       58.331       41.055     5871.936     3402.453     1685.506        0.688        0.548       50.411       30.607        0.369      338.223       10.729      860.185
11/13/2014  21:30:00     -107.974      -54.238        0.678       78.699       60.271       34.798     6193.542     3632.588     1210.892        1.282        0.552      120.831       34.987        0.084      338.175       10.648      860.194
11/13/2014  21:31:00     -159.401     -105.070       11.760       97.471       77.355       42.791     9500.609     5983.775     1831.090        2.695        0.866      190.915       49.160        0.066      338.174       10.644      860.218
11/13/2014  21:32:00     -192.471     -125.052       -6.461       58.903       60.218       46.580     3469.603     3626.184     2169.658        3.099        0.463      229.528       36.555        0.025      338.178       10.647      860.250
11/13/2014  21:33:00      -94.979      -72.576       10.525      114.482       69.819       40.111    13106.233     4874.650     1608.892        1.699        0.979      119.533       53.509        0.200      338.175       10.646      860.261
11/13/2014  21:34:00     -169.207      -47.775       -9.220       97.426       78.337       31.261     9491.835     6136.665      977.230        2.380        0.830      175.822       39.452        0.050      338.146       10.597      860.245
11/13/2014  21:35:00     -187.062      -81.862      -10.270       70.803       75.858       38.359     5013.079     5754.373     1471.432        2.702        0.612      204.190       29.232        0.020      338.136       10.578      860.226
11/13/2014  21:36:00     -222.717      -34.639       -9.701       78.030       65.316       50.421     6088.732     4266.212     2542.319        3.189        0.645      225.395       50.004        0.049      338.130       10.569      860.223
11/13/2014  21:37:00     -136.885      -44.642       -0.471       69.931       69.247       43.613     4890.351     4795.197     1902.068        1.616        0.579      143.981       38.291        0.071      338.132       10.575      860.229
11/13/2014  21:38:00     -158.597      -35.437        1.026       95.526       78.207       48.556     9125.151     6116.367     2357.638        2.200        0.880      162.508       49.357        0.092      338.136       10.580      860.241
11/13/2014  21:39:00     -196.657       31.763       -8.723      101.582      100.204       45.365    10318.854    10040.870     2058.012        3.108        1.121      199.206       41.356        0.043      338.113       10.541      860.269
11/13/2014  21:40:00     -163.748      -81.208      -11.185      102.052       95.906       46.253    10414.671     9197.978     2139.365        2.764        1.088      182.779       35.556        0.038      338.104       10.527      860.281
11/13/2014  21:41:00     -200.276      -57.252      -18.961      120.789       85.818       48.427    14589.964     7364.758     2345.181        3.402        1.215      208.299       44.240        0.045      338.091       10.503      860.289
11/13/2014  21:42:00     -170.833       12.918      -11.872       67.558       66.225       42.801     4564.146     4385.704     1831.883        2.013        0.539      171.321       35.431        0.043      338.080       10.488      860.278
11/13/2014  21:43:00     -182.600      -25.091       -2.892       91.293       57.684       39.194     8334.499     3327.417     1536.149        2.359        0.660      184.316       40.334        0.048      338.075       10.479      860.265
11/13/2014  21:44:00     -193.589      -24.874      -14.523      123.524       70.323       44.151    15258.055     4945.318     1949.340        3.023        1.108      195.180       46.831        0.058      338.059       10.451      860.246
11/13/2014  21:45:00     -365.118      -78.178      -30.080      129.895       88.421       53.209    16872.612     7818.227     2831.221        8.392        1.376      373.393       53.654        0.021      338.057       10.447      860.230
11/13/2014  21:46:00     -223.585     -128.614      -13.588      128.558       71.794       62.319    16527.089     5154.395     3883.624        4.614        1.278      257.938       65.147        0.064      338.080       10.486      860.204
11/13/2014  21:47:00     -152.248      -56.806       -1.192       88.162       68.425       37.163     7772.596     4681.924     1381.052        2.012        0.692      162.501       32.070        0.039      338.085       10.497      860.209
11/13/2014  21:48:00     -233.199      -77.800       -7.030      134.371      118.330       56.511    18055.651    14001.960     3193.499        4.786        1.763      245.834       68.077        0.077      338.086       10.495      860.175
11/13/2014  21:49:00     -187.910      -39.723       -7.323       75.980       81.196       46.148     5772.916     6592.752     2129.601        2.572        0.725      192.062       46.317        0.058      338.112       10.542      860.172
11/13/2014  21:50:00     -349.444      -27.735      -27.787      134.755       93.434       60.165    18159.039     8729.988     3619.856        7.707        1.525      350.542       74.096        0.045      338.101       10.520      860.160
11/13/2014  21:51:00     -139.087       10.204       -2.940       97.348       78.771       47.446     9476.615     6204.840     2251.125        1.869        0.897      139.461       38.565        0.076      338.103       10.525      860.149
11/13/2014  21:52:00     -117.114      -11.483        1.749       82.924       70.290       46.420     6876.399     4940.649     2154.819        1.391        0.699      117.675       43.920        0.139      338.114       10.543      860.145
11/13/2014  21:53:00     -128.192      -35.282       -5.114       94.208       48.165       34.607     8875.117     2319.830     1197.639        1.505        0.620      132.959       32.506        0.060      338.119       10.551      860.146
11/13/2014  21:54:00     -283.282      -88.327      -14.447      103.763       86.324       52.339    10766.774     7451.774     2739.402        5.460        1.048      296.733       47.524        0.026      338.114       10.541      860.144
11/13/2014  21:55:00     -201.011      -46.119        4.158      100.048       65.608       42.216    10009.517     4304.434     1782.222        2.932        0.805      206.234       43.336        0.044      338.111       10.537      860.160
11/13/2014  21:56:00     -243.686      -59.977       -6.922      107.798       62.413       44.386    11620.475     3895.424     1970.120        4.025        0.874      250.959       46.069        0.034      338.111       10.537      860.168
11/13/2014  21:57:00     -241.995      -28.889        1.222      144.392       84.015       52.081    20848.972     7058.545     2712.477        4.500        1.531      243.713       63.877        0.069      338.109       10.536      860.164
11/13/2014  21:58:00     -184.493      -24.473       -3.192      107.556       63.773       45.916    11568.293     4066.959     2108.274        2.619        0.887      186.109       46.361        0.062      338.113       10.542      860.172
11/13/2014  21:59:00     -229.143      -75.301      -14.211       72.076       61.152       45.842     5194.941     3739.529     2101.502        3.471        0.552      241.198       35.357        0.021      338.131       10.570      860.181
11/13/2014  22:00:00     -234.907      -39.283      -16.944      103.490       67.580       42.118    10710.272     4567.019     1773.914        3.703        0.853      238.169       38.724        0.026      338.117       10.549      860.184
11/13/2014  22:01:00     -306.269       14.396      -28.392       94.300      101.049       52.398     8892.522    10210.935     2745.571        5.833        1.092      306.607       49.456        0.026      338.126       10.561      860.190
11/13/2014  22:02:00     -174.035       -2.751      -11.955      103.399      104.816       41.733    10691.451    10986.445     1741.680        2.692        1.171      174.057       36.099        0.043      338.132       10.573      860.176
11/13/2014  22:03:00     -187.008      -54.126      -10.206       81.994       71.207       44.471     6723.058     5070.379     1977.703        2.589        0.689      194.683       39.928        0.042      338.135       10.580      860.176
11/13/2014  22:04:00     -111.661      -49.369       -4.859       63.794       65.203       33.509     4069.677     4251.402     1122.855        1.218        0.472      122.088       28.687        0.055      338.131       10.574      860.175
11/13/2014  22:05:00     -239.248      -37.127      -18.146      125.423       91.057       54.565    15730.915     8291.340     2977.322        4.297        1.350      242.112       62.676        0.067      338.140       10.587      860.173
11/13/2014  22:06:00     -227.178      -91.702       -7.634       74.884       67.102       47.144     5607.572     4502.713     2222.525        3.620        0.617      244.988       45.247        0.034      338.141       10.587      860.170
11/13/2014  22:07:00     -106.817       20.718        2.013       64.688       49.029       36.195     4184.582     2403.869     1310.080        0.987        0.395      108.808       23.116        0.045      338.145       10.599      860.155
11/13/2014  22:08:00     -238.224      -94.487       -4.014       86.819       69.790       47.383     7537.606     4870.694     2245.159        4.017        0.733      256.278       44.879        0.031      338.165       10.627      860.137
11/13/2014  22:09:00     -245.062       -9.365      -11.159      116.736      121.964       63.872    13627.349    14875.332     4079.583        4.642        1.629      245.241       54.785        0.050      338.141       10.587      860.114
11/13/2014  22:10:00     -238.098      -38.256       -5.082      104.349       76.147       48.846    10888.613     5798.389     2385.973        3.862        0.954      241.152       46.381        0.037      338.139       10.583      860.095
11/13/2014  22:11:00     -212.070     -115.496       -5.966      134.884       90.029       59.674    18193.679     8105.204     3561.010        4.410        1.493      241.481       59.517        0.061      338.138       10.583      860.058
11/13/2014  22:12:00     -231.263      -41.497      -10.429       88.610       76.890       48.881     7851.703     5912.056     2389.359        3.573        0.808      234.957       45.618        0.038      338.133       10.573      860.059
11/13/2014  22:13:00     -309.558       -2.530      -27.549      110.814       78.925       44.522    12279.723     6229.098     1982.200        5.854        1.025      309.568       34.980        0.013      338.126       10.562      860.070
11/13/2014  22:14:00     -180.564      -91.248      -11.210      106.736       55.621       41.021    11392.520     3093.716     1682.730        2.861        0.808      202.310       45.740        0.051      338.135       10.578      860.064
11/13/2014  22:15:00     -238.892      -96.048      -21.592       70.299       74.244       46.607     4941.963     5512.203     2172.258        3.969        0.631      257.478       38.084        0.022      338.123       10.557      860.053
11/13/2014  22:16:00     -246.356      -70.984      -11.104       74.166       84.867       42.189     5500.655     7202.409     1779.923        4.017        0.724      256.378       34.354        0.018      338.126       10.563      860.033
11/13/2014  22:17:00     -155.029        3.789      -19.298       87.194       80.007       36.292     7602.714     6401.071     1317.080        1.987        0.766      155.075       31.774        0.042      338.124       10.562      860.015
11/13/2014  22:18:00      -97.490      -48.447      -14.352       65.810       48.879       35.456     4330.946     2389.190     1257.131        1.002        0.399      108.864       22.675        0.043      338.122       10.557      860.005
11/13/2014  22:19:00     -189.256      -53.231      -18.208       85.624       50.385       33.679     7331.472     2538.665     1134.288        2.499        0.550      196.599       32.684        0.028      338.106       10.530      860.019
11/13/2014  22:20:00     -321.385      -88.333      -18.049      107.513       81.768       48.638    11559.090     6685.967     2365.647        6.601        1.031      333.303       27.680        0.007      338.097       10.515      860.010
11/13/2014  22:21:00     -247.758      -25.276      -21.221       89.880      121.800       48.579     8078.325    14835.170     2359.962        4.387        1.264      249.044       39.417        0.025      338.102       10.521      860.008
11/13/2014  22:22:00     -239.027      -64.964      -21.987       98.341       76.247       45.525     9670.902     5813.676     2072.515        3.969        0.878      247.698       40.319        0.026      338.103       10.522      859.990
11/13/2014  22:23:00     -171.884      -39.118       -5.806       67.389       73.818       36.186     4541.280     5449.148     1309.445        2.120        0.565      176.279       29.413        0.028      338.114       10.542      860.002
11/13/2014  22:24:00     -200.969      -30.892      -18.244       56.220       65.238       36.427     3160.678     4256.037     1326.960        2.521        0.437      203.329       31.502        0.024      338.133       10.575      860.027
11/13/2014  22:25:00     -177.263      -71.937      -13.450       92.260       70.125       43.745     8511.848     4917.494     1913.603        2.606        0.767      191.303       34.851        0.033      338.153       10.608      860.035
11/13/2014  22:26:00     -193.633      -55.664      -18.423       69.979       79.259       32.327     4897.096     6282.061     1045.025        2.658        0.611      201.475       25.218        0.016      338.137       10.581      860.084
11/13/2014  22:27:00     -315.067      -18.327      -26.336      155.354       90.848       50.896    24134.827     8253.427     2590.439        6.763        1.749      315.600       58.726        0.035      338.136       10.579      860.099
11/13/2014  22:28:00     -255.279      -76.364      -13.291      157.039       81.286       59.277    24661.156     6607.409     3513.760        5.297        1.739      266.456       67.170        0.064      338.156       10.613      860.093
11/13/2014  22:29:00     -238.539      -49.893      -27.875      166.340       81.397       50.616    27668.932     6625.470     2562.019        4.850        1.843      243.701       61.848        0.064      338.146       10.597      860.094
11/13/2014  22:30:00     -334.890      -11.644      -28.333      169.958       70.565       57.177    28885.817     4979.388     3269.223        7.510        1.857      335.092       75.764        0.051      338.139       10.585      860.100
11/13/2014  22:31:00     -263.461        8.724      -25.724      115.565      106.207       56.064    13355.186    11279.985     3143.206        4.896        1.389      263.605       60.688        0.053      338.132       10.573      860.111
11/13/2014  22:32:00     -180.705      -68.753        1.772      114.426      125.945       57.449    13093.341    15862.123     3300.338        3.481        1.613      193.342       63.442        0.108      338.120       10.553      860.130
11/13/2014  22:33:00     -232.685      -45.854      -22.370      113.961       91.688       52.942    12987.104     8406.742     2802.868        4.047        1.210      237.160       40.570        0.029      338.128       10.567      860.143
11/13/2014  22:34:00     -219.103      -26.654      -28.173       70.985       79.467       51.645     5038.890     6315.022     2667.248        3.176        0.701      220.719       39.603        0.032      338.119       10.551      860.150
11/13/2014  22:35:00      -83.283      -51.402      -13.672       77.577       50.238       35.631     6018.197     2523.907     1269.563        0.979        0.491       97.868       37.116        0.144      338.148       10.603      860.129
11/13/2014  22:36:00      -95.506      -44.733       11.648       83.099       66.755       45.498     6905.438     4456.246     2070.106        1.234        0.672      105.463       32.017        0.092      338.127       10.568      860.110
11/13/2014  22:37:00      -75.706      -17.458       12.896       97.231       47.872       44.056     9453.929     2291.757     1940.953        0.994        0.684       77.693       52.935        0.464      338.139       10.586      860.103
11/13/2014  22:38:00     -282.844      -61.634      -29.903       93.038       84.335       48.065     8656.147     7112.410     2310.255        5.138        0.904      289.481       52.219        0.033      338.152       10.604      860.102
11/13/2014  22:39:00     -121.671        3.669       -5.809       92.799      122.924       52.166     8611.647    15110.368     2721.276        2.064        1.322      121.726       48.457        0.158      338.151       10.605      860.107
11/13/2014  22:40:00     -109.963       49.341      -17.098       46.925       91.916       33.189     2201.979     8448.551     1101.490        1.328        0.588      120.525       24.377        0.041      338.157       10.616      860.106
11/13/2014  22:41:00     -345.039      -28.788      -29.724      105.145      120.884       54.870    11055.446    14612.893     3010.727        7.472        1.434      346.238       49.007        0.020      338.110       10.536      860.101
11/13/2014  22:42:00     -348.870     -133.053      -19.585       90.074      119.645       53.040     8113.272    14314.834     2813.195        8.251        1.262      373.381       44.119        0.014      338.140       10.585      860.073
11/13/2014  22:43:00     -212.791        4.983      -15.794      109.465       97.407       49.294    11982.478     9488.163     2429.880        3.472        1.195      212.849       51.224        0.058      338.119       10.551      860.071
11/13/2014  22:44:00     -133.564       46.752       -1.559      117.826      100.929       49.755    13882.982    10186.668     2475.556        2.328        1.327      141.510       53.361        0.142      338.105       10.529      860.080
11/13/2014  22:45:00     -209.090      -59.107       -0.632      132.324       89.172       50.805    17509.769     7951.618     2581.111        3.762        1.402      217.284       60.060        0.076      338.116       10.546      860.080
11/13/2014  22:46:00      -94.042      -28.112       25.995      143.209      108.812       62.575    20508.896    11839.972     3915.585        2.328        1.813       98.153       81.703        0.693      338.136       10.582      860.066
11/13/2014  22:47:00     -163.590      -26.586       -6.560      121.400       75.436       53.620    14737.944     5690.625     2875.083        2.540        1.165      165.736       59.762        0.130      338.140       10.587      860.071
11/13/2014  22:48:00     -355.716       -0.841      -21.852      133.548      137.029       57.946    17835.027    18776.893     3357.778        8.348        1.998      355.717       50.604        0.020      338.168       10.632      860.087
11/13/2014  22:49:00     -336.448      -81.533      -12.050      159.976      129.362       72.957    25592.375    16734.617     5322.695        8.381        2.382      346.187       79.793        0.053      338.177       10.647      860.052
11/13/2014  22:50:00     -298.317     -115.047       -5.716      155.409      113.937       63.782    24151.924    12981.530     4068.166        7.172        2.060      319.732       78.034        0.060      338.166       10.629      860.028
11/13/2014  22:51:00     -123.978      -34.278        1.051      122.051       96.956       55.372    14896.467     9400.370     3066.055        2.195        1.368      128.630       54.311        0.178      338.161       10.622      860.023
11/13/2014  22:52:00     -251.358      -36.279       -4.914      118.817       89.547       63.421    14117.558     8018.695     4022.170        4.533        1.308      253.963       65.317        0.066      338.144       10.592      860.086
11/13/2014  22:53:00     -130.032      -86.025       -1.618       87.534       65.019       48.127     7662.121     4227.441     2316.213        1.926        0.710      155.912       44.837        0.083      338.179       10.653      860.104
11/13/2014  22:54:00     -302.750      -66.049       -9.896      108.347       74.269       59.635    11738.967     5515.858     3556.276        5.846        1.041      309.871       56.867        0.034      338.158       10.616      860.067
11/13/2014  22:55:00     -290.600     -153.379        7.251      196.224      129.537       82.255    38503.680    16779.788     6765.894        8.503        3.102      328.594       95.762        0.085      338.183       10.658      860.059
11/13/2014  22:56:00     -228.656      -71.527       -1.596       97.254       92.053       46.804     9458.415     8473.794     2190.588        3.876        1.006      239.582       38.284        0.026      338.176       10.645      860.045
11/13/2014  22:57:00     -180.108       26.200       -8.978       82.819       80.779       52.754     6858.977     6525.187     2782.998        2.468        0.808      182.003       32.185        0.031      338.176       10.646      860.036
11/13/2014  22:58:00      -70.607      -60.009       -7.137       63.403       59.978       32.611     4019.951     3597.335     1063.502        0.866        0.434       92.663       22.843        0.061      338.190       10.673      860.018
11/13/2014  22:59:00     -227.297     -136.642       -9.466      171.473       76.839       51.288    29402.974     5904.276     2630.475        5.417        1.897      265.208       63.531        0.057      338.199       10.684      859.989
11/13/2014  23:00:00     -311.246      -14.851      -19.068      164.695       96.332       50.526    27124.487     9279.938     2552.830        6.820        1.948      311.600       59.530        0.036      338.197       10.682      859.994
11/13/2014  23:01:00     -136.305      -49.170       -0.287       74.012       76.537       45.145     5477.819     5857.892     2038.066        1.718        0.669      144.903       46.226        0.102      338.196       10.683      860.008
11/13/2014  23:02:00     -121.248      -62.819        4.207       97.557       77.138       36.625     9517.413     5950.230     1341.424        1.773        0.840      136.555       42.914        0.099      338.204       10.694      860.027
11/13/2014  23:03:00      -81.284      -79.737       19.855      127.025       79.140       60.641    16135.391     6263.154     3677.333        1.971        1.304      113.864       58.205        0.261      338.242       10.759      860.024
11/13/2014  23:04:00     -179.172      -13.486      -10.133      106.811       86.265       52.454    11408.691     7441.575     2751.449        2.699        1.080      179.679       47.494        0.070      338.217       10.717      860.040
11/13/2014  23:05:00     -126.787      -66.655        2.748      102.287       97.721       45.919    10462.539     9549.379     2108.555        2.132        1.106      143.240       44.940        0.098      338.230       10.738      860.068
11/13/2014  23:06:00      -65.673     -176.351      -10.021       55.846       60.379       40.322     3118.797     3645.565     1625.903        2.195        0.420      188.183       22.823        0.015      338.286       10.832      860.058
11/13/2014  23:07:00      -94.918      -79.159       13.135      111.027       66.839       47.062    12326.889     4467.418     2214.869        1.722        0.950      123.594       43.174        0.122      338.269       10.803      860.045
11/13/2014  23:08:00       43.139      -95.526      -25.655       52.576       47.995       27.596     2764.226     2303.476      761.556        0.874        0.291      104.815       17.875        0.029      338.353       10.947      860.070
11/13/2014  23:09:00       -3.569      -29.137        2.571       55.411       40.017       24.236     3070.421     1601.322      587.405        0.306        0.263       29.355       19.270        0.431      338.300       10.859      860.079
11/13/2014  23:10:00       36.646      -39.115       18.226       55.556       55.263       34.507     3086.495     3054.027     1190.765        0.527        0.367       53.600       34.297        0.409      338.263       10.796      860.059
11/13/2014  23:11:00       30.764      -65.601       12.251       62.044       65.704       42.281     3849.424     4317.014     1787.654        0.768        0.498       72.456       44.355        0.375      338.269       10.806      860.065
11/13/2014  23:12:00       -2.150     -110.925       13.404       69.228       67.289       38.398     4792.551     4527.786     1474.384        1.164        0.540      110.945       41.728        0.141      338.381       10.993      860.091
11/13/2014  23:13:00       15.797      -98.987       -6.587       46.765       34.374       31.844     2186.988     1181.562     1014.069        0.724        0.219      100.240       15.102        0.023      338.364       10.965      860.094
11/13/2014  23:14:00       49.051       25.224       41.821       42.243       47.020       34.754     1784.450     2210.882     1207.848        0.500        0.260       55.156       12.020        0.047      338.233       10.746      860.079
11/13/2014  23:15:00      132.682      -45.959       37.749       86.771       89.791       53.952     7529.169     8062.384     2910.777        1.982        0.925      140.416       65.457        0.217      338.089       10.503      860.066
11/13/2014  23:16:00      123.850      -74.238       20.175       83.584       96.251       54.095     6986.298     9264.316     2926.219        2.021        0.959      144.395       64.352        0.199      338.049       10.436      860.083
11/13/2014  23:17:00       16.332      -28.304       55.070       81.945       71.802       55.612     6715.007     5155.532     3092.674        0.953        0.748       32.678       54.006        2.731      338.027       10.401      860.110
11/13/2014  23:18:00      -27.300      -53.171       19.362       44.621       39.936       30.873     1990.993     1594.887      953.158        0.424        0.227       59.770       20.731        0.120      338.113       10.544      860.143
11/13/2014  23:19:00        8.235      -26.706       22.311       26.613       31.961       21.665      708.254     1021.506      469.385        0.174        0.110       27.947       18.312        0.429      338.108       10.535      860.146
11/13/2014  23:20:00      -16.747       37.153       50.483       25.882       51.725       24.240      669.859     2675.441      587.587        0.407        0.197       40.753       28.844        0.501      337.997       10.350      860.129
11/13/2014  23:21:00      -35.246       16.095        4.980       41.964       26.816       19.594     1760.995      719.093      383.942        0.219        0.143       38.747       15.126        0.152      338.017       10.383      860.142
11/13/2014  23:22:00     -125.555      -68.293       -1.293       46.408       45.410       25.213     2153.702     2062.084      635.681        1.264        0.243      142.926       22.393        0.025      337.978       10.317      860.181
11/13/2014  23:23:00      -95.262      -91.430       -2.486       54.397       53.519       26.701     2959.071     2864.265      712.942        1.199        0.327      132.039       20.994        0.025      337.982       10.324      860.219
11/13/2014  23:24:00     -116.530      -74.507      -11.582       38.842       55.767       24.010     1508.690     3109.917      576.462        1.223        0.260      138.313       27.792        0.040      338.002       10.359      860.237
11/13/2014  23:25:00      -91.868      -50.279        2.510       54.331       48.524       25.503     2951.878     2354.579      650.414        0.846        0.298      104.727       23.984        0.052      337.959       10.285      860.251
11/13/2014  23:26:00      -55.718      -63.554        2.641       42.773       26.833       20.607     1829.565      720.023      424.649        0.506        0.149       84.520       21.102        0.062      338.008       10.369      860.255
11/13/2014  23:27:00      -37.358      -44.237       -0.697       29.842       50.502       15.283      890.565     2550.498      233.576        0.351        0.184       57.901       16.140        0.078      337.996       10.346      860.242
11/13/2014  23:28:00        2.884       41.181       62.093       22.733       32.778       22.967      516.776     1074.407      527.486        0.384        0.106       41.282       20.714        0.252      338.043       10.427      860.207
11/13/2014  23:29:00       18.397       -5.997       38.572       25.615       39.003       29.109      656.148     1521.232      847.335        0.244        0.151       19.350       27.584        2.032      338.051       10.440      860.202
11/13/2014  23:30:00        8.761      -43.280        8.555       24.514       21.320       18.432      600.921      454.530      339.747        0.171        0.070       44.158       10.365        0.055      338.082       10.493      860.223
11/13/2014  23:31:00      -53.631      -29.048        1.699       35.703       25.878       18.508     1274.670      669.695      342.542        0.300        0.114       60.993       19.558        0.103      338.025       10.396      860.268
11/13/2014  23:32:00     -110.409      -33.388        2.234       43.271       39.033       20.140     1872.336     1523.552      405.604        0.855        0.190      115.346       15.173        0.017      337.937       10.249      860.310
11/13/2014  23:33:00     -184.474      -61.501        3.368       52.891       31.676       27.023     2797.427     1003.377      730.268        2.118        0.227      194.456       28.859        0.022      337.868       10.130      860.317
11/13/2014  23:34:00     -129.295      -55.072       -3.621       36.198       32.857       21.872     1310.297     1079.611      478.378        1.132        0.143      140.535       18.832        0.018      337.882       10.156      860.308
11/13/2014  23:35:00     -120.920      -59.022       -3.211       43.462       32.698       19.063     1888.926     1069.139      363.385        1.072        0.166      134.555       16.247        0.015      337.882       10.155      860.295
11/13/2014  23:36:00     -142.977      -37.975       -0.827       36.268       25.778       24.617     1315.398      664.496      605.982        1.224        0.129      147.934       20.852        0.020      337.871       10.138      860.295
11/13/2014  23:37:00      -96.321      -56.213       -0.271       37.746       24.882       18.128     1424.725      619.122      328.620        0.740        0.119      111.524       20.998        0.035      337.936       10.248      860.296
11/13/2014  23:38:00      -85.970      -63.326        0.376       37.467       30.506       19.033     1403.805      930.589      362.244        0.705        0.135      106.775       17.721        0.028      337.928       10.233      860.311
11/13/2014  23:39:00      -77.367      -58.378        5.683       40.597       38.598       19.548     1648.104     1489.817      382.136        0.647        0.176       96.921       16.809        0.030      337.913       10.209      860.322
11/13/2014  23:40:00      -77.260     -138.604      -10.525       27.759       24.514       17.383      770.559      600.914      302.157        1.348        0.084      158.683       10.218        0.004      337.846       10.095      860.337
11/13/2014  23:41:00      -73.859      -88.718       -2.842       55.845       43.292       13.236     3118.701     1874.220      175.191        0.925        0.258      115.438        7.525        0.004      337.867       10.129      860.356
11/13/2014  23:42:00     -108.871      -49.794        0.676       42.768       31.491       19.932     1829.064      991.672      397.267        0.877        0.161      119.717       19.532        0.027      337.854       10.109      860.356
11/13/2014  23:43:00     -108.529      -12.023       -6.495       43.703       43.149       24.249     1909.984     1861.813      588.027        0.816        0.218      109.193       17.513        0.026      337.820       10.051      860.341
11/13/2014  23:44:00      -96.179      -39.560        0.552       51.080       40.353       22.912     2609.169     1628.347      524.975        0.779        0.238      103.997       20.760        0.040      337.805       10.027      860.298
11/13/2014  23:45:00      -50.457      -38.972        7.144       32.284       48.377       17.850     1042.225     2340.304      318.638        0.391        0.185       63.755       18.425        0.084      337.796       10.014      860.271
11/13/2014  23:46:00     -114.077      -52.902        0.622       45.946       24.165       22.162     2111.054      583.961      491.134        0.950        0.159      125.747       21.136        0.028      337.802       10.022      860.273
11/13/2014  23:47:00      -59.213      -70.909        1.620       46.560       20.901       13.569     2167.819      436.834      184.122        0.566        0.139       92.381       18.787        0.041      337.796       10.014      860.256
11/13/2014  23:48:00     -116.154      -65.036       -5.475       32.746       23.005       15.557     1072.330      529.231      242.033        0.980        0.092      133.122        6.005        0.002      337.823       10.058      860.272
11/13/2014  23:49:00      -56.799      -64.191        2.368       39.593       31.077       23.156     1567.640      965.807      536.216        0.521        0.153       85.712       27.835        0.105      337.833       10.074      860.293
11/13/2014  23:50:00      -80.397      -29.272      -10.309       60.071       60.441       21.720     3608.475     3653.123      471.777        0.758        0.387       85.560       34.921        0.167      337.830       10.068      860.302
11/13/2014  23:51:00       17.659      -25.856       -2.243       53.745       67.319       34.270     2888.544     4531.890     1174.442        0.479        0.430       31.310       41.418        1.750      337.889       10.168      860.260
11/13/2014  23:52:00      -39.006      -25.600        3.082       42.735       27.700       25.829     1826.320      767.312      667.161        0.272        0.163       46.656       24.376        0.273      337.882       10.156      860.262
11/13/2014  23:53:00      -42.938      -39.008        6.379       50.102       31.762       22.007     2510.194     1008.800      484.309        0.370        0.200       58.011       22.300        0.148      337.985       10.329      860.260
11/13/2014  23:54:00        1.190      -90.445       18.268       39.193       68.939       22.202     1536.077     4752.571      492.919        0.765        0.339       90.453       20.110        0.049      338.040       10.421      860.261
11/13/2014  23:55:00     -168.920      -50.117       -6.264      107.500       48.180       32.002    11556.233     2321.272     1024.102        2.299        0.745      176.198       43.348        0.061      337.997       10.347      860.242
11/13/2014  23:56:00     -141.118      -51.281      -10.303      101.311       88.530       35.525    10264.008     7837.613     1261.991        2.100        0.968      150.147       44.756        0.089      338.027       10.398      860.224
11/13/2014  23:57:00     -124.552       -6.108       -1.029       99.294       78.976       56.045     9859.256     6237.220     3140.986        1.739        0.962      124.701       45.717        0.134      338.021       10.388      860.201
11/13/2014  23:58:00     -273.578      -46.411       -6.168      186.206      118.999       64.871    34672.563    14160.763     4208.277        6.503        2.652      277.487       66.475        0.057      338.024       10.393      860.178
11/13/2014  23:59:00     -387.580      -27.137      -22.230      151.173      144.145       73.584    22853.342    20777.855     5414.635       10.024        2.452      388.529       77.812        0.040      338.016       10.379      860.137
